[[{"header":{"parameterUnit":"m.s-1","parameterCategory":1,"la1":30.6,"la2":29.2853,"lo1":-89.7004,"lo2":-87.6739,"dy":0.0162,"dx":0.0183,"nx":112,"ny":82,"refTime":"2023-03-14T18:00:00:Z","depth":0,"parameterNumber":2,"parameterNumberName":"U-component_of_WINDS"},"data":[0.0,0.0,0.0,0.0,0.0,0.0,0.0,0.0,0.0,0.0,0.0,0.0,0.0,0.0,0.0,0.0,0.0,0.0,0.0,0.0,0.0,0.0,0.0,0.0,0.0,0.0,0.0,0.0,0.0,0.0,0.0,0.0,0.0,0.0,0.0,0.0,0.0,0.0,0.0,0.0,0.0,0.0,0.0,0.0,0.0,0.0,0.0,0.0,0.0,0.0,0.0,0.0,0.0,0.0,0.0,0.0,0.0,0.0,0.0,0.0,0.0,0.0,0.0,0.0,0.0,0.0,0.0,0.0,0.0,0.0,0.0,0.0,0.0,0.0,0.0,0.0,0.0,0.0,0.0,0.0,0.0,0.0,0.0,0.0,0.0,0.0,0.0,0.0,0.0,0.0,-6.4743,-6.9513,-8.2208,-9.0594,-9.1325,-8.8594,-8.1285,-6.8321,0.0,0.0,0.0,0.0,0.0,0.0,0.0,0.0,0.0,0.0,0.0,0.0,0.0,0.0,0.0,0.0,0.0,0.0,0.0,0.0,0.0,0.0,0.0,0.0,0.0,0.0,0.0,0.0,0.0,0.0,0.0,0.0,0.0,0.0,0.0,0.0,0.0,0.0,0.0,0.0,0.0,0.0,0.0,0.0,0.0,0.0,0.0,0.0,0.0,0.0,0.0,0.0,0.0,0.0,0.0,0.0,0.0,0.0,0.0,0.0,0.0,0.0,0.0,0.0,0.0,0.0,0.0,0.0,0.0,0.0,0.0,0.0,0.0,0.0,0.0,0.0,0.0,0.0,0.0,0.0,0.0,0.0,0.0,0.0,0.0,0.0,0.0,0.0,0.0,0.0,0.0,0.0,0.0,0.0,0.0,0.0,0.0,0.0,0.0,0.0,0.0,0.0,0.0,0.0,-6.6821,-8.1631,-8.8556,-9.2172,-9.2287,-8.7325,-7.99,-6.9937,0.0,0.0,0.0,0.0,0.0,0.0,0.0,0.0,0.0,0.0,0.0,0.0,0.0,0.0,0.0,0.0,0.0,0.0,0.0,0.0,0.0,0.0,0.0,0.0,0.0,0.0,0.0,0.0,0.0,0.0,0.0,0.0,0.0,0.0,0.0,0.0,0.0,0.0,0.0,0.0,0.0,0.0,0.0,0.0,0.0,0.0,0.0,0.0,0.0,0.0,0.0,0.0,0.0,0.0,0.0,0.0,0.0,0.0,0.0,0.0,0.0,0.0,0.0,0.0,0.0,0.0,0.0,0.0,0.0,0.0,0.0,0.0,0.0,0.0,0.0,0.0,0.0,0.0,0.0,0.0,0.0,0.0,0.0,0.0,0.0,0.0,0.0,0.0,0.0,0.0,0.0,0.0,0.0,0.0,0.0,0.0,0.0,0.0,0.0,0.0,0.0,0.0,0.0,-6.559,-7.2091,-8.7248,-9.1441,-9.2979,-9.2556,-8.7863,-8.0592,-7.036,-6.5243,0.0,0.0,0.0,0.0,0.0,0.0,0.0,0.0,0.0,0.0,0.0,0.0,0.0,0.0,0.0,0.0,0.0,0.0,0.0,0.0,0.0,0.0,0.0,0.0,0.0,0.0,0.0,0.0,0.0,0.0,0.0,0.0,0.0,0.0,0.0,0.0,0.0,0.0,0.0,0.0,0.0,0.0,0.0,0.0,0.0,0.0,0.0,0.0,0.0,0.0,0.0,0.0,0.0,0.0,0.0,0.0,0.0,0.0,0.0,0.0,0.0,0.0,0.0,0.0,0.0,0.0,0.0,0.0,0.0,0.0,0.0,0.0,0.0,0.0,0.0,0.0,0.0,0.0,0.0,0.0,0.0,0.0,0.0,0.0,0.0,0.0,0.0,0.0,0.0,0.0,0.0,0.0,0.0,0.0,0.0,0.0,0.0,0.0,0.0,0.0,0.0,0.0,-7.286,-7.8669,-9.0287,-9.2826,-9.3364,-9.2556,-8.7632,-8.0362,-7.0321,-6.4359,0.0,0.0,0.0,0.0,0.0,0.0,0.0,0.0,0.0,0.0,0.0,0.0,0.0,0.0,0.0,0.0,0.0,0.0,0.0,0.0,0.0,0.0,0.0,0.0,0.0,0.0,0.0,0.0,0.0,0.0,0.0,0.0,0.0,0.0,0.0,0.0,0.0,0.0,0.0,0.0,0.0,0.0,0.0,0.0,0.0,0.0,0.0,0.0,0.0,0.0,0.0,0.0,0.0,0.0,0.0,0.0,0.0,0.0,0.0,0.0,0.0,0.0,0.0,0.0,0.0,0.0,0.0,0.0,0.0,0.0,0.0,0.0,0.0,0.0,0.0,0.0,0.0,0.0,0.0,0.0,0.0,0.0,0.0,0.0,0.0,0.0,0.0,0.0,0.0,0.0,0.0,0.0,0.0,0.0,0.0,0.0,0.0,0.0,0.0,0.0,0.0,0.0,-7.7092,-8.6094,-9.1787,-9.3172,-9.3364,-9.2556,-8.4978,-7.7246,-7.0167,-6.2704,0.0,0.0,0.0,0.0,0.0,0.0,0.0,0.0,0.0,0.0,0.0,0.0,0.0,0.0,0.0,0.0,0.0,0.0,0.0,0.0,0.0,0.0,0.0,0.0,0.0,0.0,0.0,0.0,0.0,0.0,0.0,0.0,0.0,0.0,0.0,0.0,0.0,0.0,0.0,0.0,0.0,0.0,0.0,0.0,0.0,0.0,0.0,0.0,0.0,0.0,0.0,0.0,0.0,0.0,0.0,0.0,0.0,0.0,0.0,0.0,0.0,0.0,0.0,0.0,0.0,0.0,0.0,0.0,0.0,0.0,0.0,0.0,0.0,0.0,0.0,0.0,0.0,0.0,0.0,0.0,0.0,0.0,0.0,0.0,0.0,0.0,0.0,0.0,0.0,0.0,0.0,0.0,0.0,0.0,0.0,0.0,0.0,0.0,0.0,0.0,0.0,0.0,-7.5091,-8.3324,-9.1633,-9.2787,-9.2402,-9.1018,-8.6017,-7.8938,-6.9513,0.0,0.0,0.0,0.0,0.0,0.0,0.0,0.0,0.0,0.0,0.0,0.0,0.0,0.0,0.0,0.0,0.0,0.0,0.0,0.0,0.0,0.0,0.0,0.0,0.0,0.0,0.0,0.0,0.0,0.0,0.0,0.0,0.0,0.0,0.0,0.0,0.0,0.0,0.0,0.0,0.0,0.0,0.0,0.0,0.0,0.0,0.0,0.0,0.0,0.0,0.0,0.0,0.0,0.0,0.0,0.0,0.0,0.0,0.0,0.0,0.0,0.0,0.0,0.0,0.0,0.0,0.0,0.0,0.0,0.0,0.0,0.0,0.0,0.0,0.0,0.0,0.0,0.0,0.0,0.0,0.0,0.0,0.0,0.0,0.0,0.0,0.0,0.0,0.0,0.0,0.0,0.0,0.0,0.0,0.0,0.0,0.0,0.0,0.0,0.0,0.0,0.0,-6.7667,-7.5207,-8.3016,-9.1595,-9.2249,-9.1402,-8.9671,-8.5209,-7.8361,-6.859,0.0,0.0,0.0,0.0,0.0,0.0,0.0,0.0,0.0,0.0,0.0,0.0,0.0,0.0,0.0,0.0,0.0,0.0,0.0,0.0,0.0,0.0,0.0,0.0,0.0,0.0,0.0,0.0,0.0,0.0,0.0,0.0,0.0,0.0,0.0,0.0,0.0,0.0,0.0,0.0,0.0,0.0,0.0,0.0,0.0,0.0,0.0,0.0,0.0,0.0,0.0,0.0,0.0,0.0,0.0,0.0,0.0,0.0,0.0,0.0,0.0,0.0,0.0,0.0,0.0,0.0,0.0,0.0,0.0,0.0,0.0,0.0,0.0,0.0,0.0,0.0,0.0,0.0,0.0,0.0,0.0,0.0,0.0,0.0,0.0,0.0,0.0,0.0,0.0,0.0,0.0,0.0,0.0,0.0,0.0,0.0,0.0,0.0,0.0,0.0,0.0,0.0,-6.8936,-7.8592,-8.6863,-9.1941,-9.171,-9.0517,-8.8825,-8.1708,-7.4399,0.0,0.0,0.0,0.0,0.0,0.0,0.0,0.0,0.0,0.0,0.0,0.0,0.0,0.0,0.0,0.0,0.0,0.0,0.0,0.0,0.0,0.0,0.0,0.0,0.0,0.0,0.0,0.0,0.0,0.0,0.0,0.0,0.0,0.0,0.0,0.0,0.0,0.0,0.0,0.0,0.0,0.0,0.0,0.0,0.0,0.0,0.0,0.0,0.0,0.0,0.0,0.0,0.0,0.0,0.0,0.0,0.0,0.0,0.0,0.0,0.0,0.0,0.0,0.0,0.0,0.0,0.0,0.0,0.0,0.0,0.0,0.0,0.0,0.0,0.0,0.0,0.0,0.0,0.0,0.0,0.0,0.0,0.0,0.0,0.0,0.0,0.0,0.0,0.0,0.0,0.0,0.0,0.0,0.0,0.0,0.0,0.0,0.0,0.0,0.0,0.0,0.0,0.0,-6.909,-7.8592,-8.6632,-9.1095,-9.1364,-9.0287,-8.7979,-8.3516,-7.6899,-6.7667,0.0,0.0,0.0,0.0,0.0,0.0,0.0,0.0,0.0,0.0,0.0,0.0,0.0,0.0,0.0,0.0,0.0,0.0,0.0,0.0,0.0,0.0,0.0,0.0,0.0,0.0,0.0,0.0,0.0,0.0,0.0,0.0,0.0,0.0,0.0,0.0,0.0,0.0,0.0,0.0,0.0,0.0,0.0,0.0,0.0,0.0,0.0,0.0,0.0,0.0,0.0,0.0,0.0,0.0,0.0,0.0,0.0,0.0,0.0,0.0,0.0,0.0,0.0,0.0,0.0,0.0,0.0,0.0,0.0,0.0,0.0,0.0,0.0,0.0,0.0,0.0,0.0,0.0,0.0,0.0,0.0,0.0,0.0,0.0,0.0,0.0,0.0,0.0,0.0,0.0,0.0,0.0,0.0,0.0,0.0,0.0,0.0,0.0,0.0,0.0,0.0,0.0,-6.9565,-7.8477,-8.6132,-9.071,-9.0902,-8.9787,-8.7594,-8.4593,-7.8631,-6.8744,0.0,0.0,0.0,0.0,0.0,0.0,0.0,0.0,0.0,0.0,0.0,0.0,0.0,0.0,0.0,0.0,0.0,0.0,0.0,0.0,0.0,0.0,0.0,0.0,0.0,0.0,0.0,0.0,0.0,0.0,0.0,0.0,0.0,0.0,0.0,0.0,0.0,0.0,0.0,0.0,0.0,0.0,0.0,0.0,0.0,0.0,0.0,0.0,0.0,0.0,0.0,0.0,0.0,0.0,0.0,0.0,0.0,0.0,0.0,0.0,0.0,0.0,0.0,0.0,0.0,0.0,0.0,0.0,0.0,0.0,0.0,0.0,0.0,0.0,0.0,0.0,0.0,0.0,0.0,0.0,0.0,0.0,0.0,0.0,0.0,0.0,0.0,0.0,0.0,0.0,0.0,0.0,0.0,0.0,0.0,0.0,0.0,0.0,0.0,0.0,0.0,0.0,-7.031,-7.8515,-8.5709,-9.0671,-9.0441,-8.921,-8.7555,-8.4978,-7.9554,-7.0398,0.0,0.0,0.0,0.0,0.0,0.0,0.0,0.0,0.0,0.0,0.0,0.0,0.0,0.0,0.0,0.0,0.0,0.0,0.0,0.0,0.0,0.0,0.0,0.0,0.0,0.0,0.0,0.0,0.0,0.0,0.0,0.0,0.0,0.0,0.0,0.0,0.0,0.0,0.0,0.0,0.0,0.0,0.0,0.0,0.0,0.0,0.0,0.0,0.0,0.0,0.0,0.0,0.0,0.0,0.0,0.0,0.0,0.0,0.0,0.0,-6.7205,-6.4859,0.0,0.0,0.0,0.0,0.0,0.0,0.0,0.0,0.0,0.0,0.0,0.0,0.0,0.0,0.0,0.0,0.0,0.0,0.0,0.0,0.0,0.0,0.0,0.0,0.0,0.0,0.0,0.0,0.0,0.0,0.0,0.0,0.0,0.0,0.0,0.0,0.0,0.0,0.0,0.0,-7.1349,-7.99,-8.7017,-9.0787,-9.0441,-8.921,-8.7555,-8.4439,-7.9169,-7.1168,-6.7475,0.0,0.0,0.0,0.0,0.0,0.0,0.0,0.0,0.0,0.0,0.0,0.0,0.0,0.0,0.0,0.0,0.0,0.0,0.0,0.0,0.0,0.0,0.0,0.0,0.0,0.0,0.0,0.0,0.0,0.0,0.0,0.0,0.0,0.0,0.0,0.0,0.0,0.0,0.0,0.0,0.0,0.0,0.0,0.0,0.0,0.0,0.0,0.0,0.0,0.0,0.0,0.0,0.0,0.0,0.0,0.0,0.0,0.0,0.0,-7.2976,-7.0514,0.0,0.0,0.0,0.0,0.0,0.0,0.0,0.0,0.0,0.0,0.0,0.0,0.0,0.0,0.0,0.0,0.0,0.0,0.0,0.0,0.0,0.0,0.0,0.0,0.0,0.0,0.0,0.0,0.0,0.0,0.0,0.0,0.0,0.0,0.0,0.0,0.0,0.0,0.0,0.0,-7.1079,-7.9361,-8.6209,-8.9633,-8.9594,-8.8786,-8.7517,-8.5016,-8.0823,-7.4361,-6.9667,0.0,0.0,0.0,0.0,0.0,0.0,0.0,0.0,0.0,0.0,0.0,0.0,0.0,0.0,0.0,0.0,0.0,0.0,0.0,0.0,0.0,0.0,0.0,0.0,0.0,0.0,0.0,0.0,0.0,0.0,0.0,0.0,0.0,0.0,0.0,0.0,0.0,0.0,0.0,0.0,0.0,0.0,0.0,0.0,0.0,0.0,0.0,0.0,0.0,0.0,0.0,0.0,0.0,-8.2747,-8.3632,-8.4324,-8.5016,-8.5055,-8.4324,-8.0823,-7.8284,-7.6399,-7.2976,0.0,0.0,0.0,0.0,0.0,0.0,0.0,0.0,0.0,0.0,0.0,0.0,0.0,0.0,0.0,0.0,0.0,0.0,0.0,0.0,0.0,0.0,-6.6128,-6.7013,-6.9321,-6.9821,-6.4205,0.0,0.0,0.0,0.0,0.0,0.0,0.0,0.0,0.0,0.0,0.0,-7.0912,-7.8631,-8.5132,-8.8556,-8.8786,-8.8402,-8.7671,-8.594,-8.2862,-7.8054,-7.2552,-6.759,0.0,0.0,0.0,0.0,0.0,0.0,0.0,0.0,0.0,0.0,0.0,0.0,0.0,0.0,0.0,0.0,0.0,0.0,0.0,0.0,0.0,0.0,0.0,0.0,0.0,0.0,0.0,0.0,0.0,0.0,0.0,0.0,-6.8744,-6.9783,0.0,0.0,0.0,0.0,0.0,0.0,0.0,0.0,0.0,0.0,0.0,0.0,0.0,-8.0092,-8.2747,-8.5709,-8.7671,-8.8594,-9.0941,-9.2095,-9.221,-9.2326,-9.271,-9.3287,-9.2749,0.0,-7.9015,-7.563,0.0,0.0,0.0,0.0,0.0,0.0,0.0,0.0,0.0,0.0,0.0,0.0,0.0,0.0,0.0,0.0,0.0,0.0,0.0,0.0,0.0,0.0,-7.1398,-7.2283,-7.286,-7.2899,-7.2014,-6.7167,-6.2471,-6.0794,-5.8722,-5.6655,0.0,0.0,0.0,0.0,0.0,0.0,-7.2643,-7.9939,-8.6017,-8.9402,-8.9133,-8.8632,-8.8517,-8.6286,-8.3362,-7.9708,-7.5938,-7.1975,-6.7744,-6.4205,0.0,0.0,0.0,0.0,0.0,0.0,0.0,0.0,0.0,0.0,0.0,0.0,0.0,0.0,0.0,0.0,0.0,0.0,0.0,0.0,0.0,0.0,0.0,0.0,0.0,0.0,0.0,0.0,0.0,-6.8987,-7.2283,-7.1706,-7.2899,-7.2706,0.0,0.0,0.0,0.0,0.0,0.0,0.0,0.0,0.0,-8.5016,-8.6286,-8.8363,-9.1364,-9.3864,-9.5518,-9.6365,-9.8904,-9.9865,-9.9442,-10.0404,-10.0481,-9.9981,-9.9481,-9.5942,-9.0017,-8.4247,-7.9708,-7.6169,0.0,0.0,0.0,0.0,-7.1283,-7.1283,-7.4245,-7.4668,-7.3822,-7.3514,0.0,0.0,0.0,0.0,0.0,0.0,0.0,-6.5551,-6.9052,-7.1783,-7.4053,-7.5861,-7.7053,-7.763,-7.7169,-7.3553,-6.9527,-6.6485,-6.4571,-6.2359,-5.877,-5.8172,0.0,0.0,0.0,-6.9823,-7.3091,-7.9323,-8.4401,-8.6824,-8.6786,-8.6555,-8.6555,-8.5093,-8.3131,-8.0669,-7.6861,-7.3668,-7.136,-6.709,-6.3628,0.0,0.0,0.0,0.0,0.0,0.0,0.0,0.0,0.0,0.0,0.0,0.0,0.0,0.0,0.0,0.0,0.0,0.0,0.0,0.0,0.0,0.0,0.0,0.0,0.0,0.0,0.0,0.0,-7.2514,-7.5861,-7.3745,-7.6899,-7.7553,0.0,0.0,0.0,0.0,0.0,0.0,-8.2978,-8.6094,-8.9671,-9.3672,-9.4864,-9.6942,-10.0096,-10.1597,-10.2789,-10.3597,-10.5482,-10.6213,-10.5905,-10.7098,-10.679,-10.5097,-10.4482,-10.2597,-9.9519,-9.2095,-8.6517,-8.2439,-7.9669,-7.7553,-7.6284,-7.7746,-7.8015,-7.8207,-8.2439,-8.3131,-8.1823,-8.0362,-7.7553,-7.386,-6.8975,0.0,0.0,0.0,0.0,-6.8783,-7.2783,-7.5053,-7.6938,-7.9246,-8.0785,-8.1516,-8.0631,-7.8784,-7.6053,-7.1783,-6.9937,-6.7705,-6.3474,-6.2743,0.0,-6.1858,-6.6859,-7.1591,-7.413,-7.9054,-8.2978,-8.4709,-8.4901,-8.4901,-8.4901,-8.4093,-8.2978,-8.1516,-7.7784,-7.5322,-7.4514,-6.9783,-6.6167,-6.4012,0.0,0.0,0.0,0.0,0.0,0.0,0.0,0.0,0.0,0.0,0.0,0.0,0.0,0.0,0.0,0.0,0.0,0.0,0.0,0.0,0.0,0.0,0.0,0.0,0.0,0.0,0.0,0.0,0.0,-7.7438,-8.3555,0.0,0.0,0.0,0.0,-8.3016,-8.6209,-8.9248,-9.171,-9.4326,-9.7288,-10.0712,-10.2404,-10.4597,-10.7213,-10.7982,-10.8906,-10.979,-10.9906,-11.0406,-11.1098,-11.1214,-11.0291,-10.8598,-10.8598,-10.6713,-10.3097,-9.6211,-9.2287,-9.0287,-8.6901,-8.6017,-8.644,-8.4978,-8.4901,-8.5478,-8.5016,-8.4786,-8.4939,-8.6401,-8.2978,-7.79,-7.6015,-7.2014,0.0,0.0,-7.1822,-7.3899,-7.7284,-7.9477,-8.1208,-8.2939,-8.3401,-8.3247,-8.2362,-8.1477,-7.9592,-7.5284,-7.2476,-7.0206,-6.8359,0.0,-6.8,-6.7975,-7.1014,-7.4245,-7.6784,-8.0131,-8.2978,-8.4709,-8.4901,-8.4901,-8.4901,-8.4093,-8.3208,-8.2285,-7.9785,-7.7938,-7.713,-7.2937,-6.909,-6.582,-6.3294,0.0,0.0,0.0,0.0,0.0,0.0,0.0,0.0,0.0,0.0,0.0,0.0,0.0,0.0,0.0,0.0,0.0,0.0,0.0,0.0,0.0,0.0,0.0,0.0,0.0,0.0,0.0,0.0,-8.6324,-9.2018,0.0,-8.9556,-9.071,-9.1787,-9.1787,-9.5403,-9.8288,-9.975,-10.2289,-10.4905,-10.779,-10.8521,-10.9713,-11.1714,-11.1983,-11.2291,-11.2714,-11.3214,-11.3407,-11.3099,-11.3714,-11.3291,-11.2214,-11.1598,-11.0098,-10.7713,-10.4713,-9.9942,-9.4326,-9.2518,-9.1018,-8.9825,-8.9787,-8.9979,-9.0325,-9.1133,-9.0671,-8.944,-8.7286,-8.4401,-8.1362,-7.9131,-7.7553,-7.6823,-7.7938,-7.8669,-7.9708,-8.2016,-8.267,-8.2862,-8.3439,-8.317,-8.267,-8.2362,-8.167,-8.0631,-7.9131,-7.6746,-7.4322,-7.2091,-7.1654,-7.1514,-7.0937,-7.3283,-7.5822,-7.7823,-8.0092,-8.1977,-8.3093,-8.3247,-8.3247,-8.3247,-8.2939,-8.217,-8.0785,-7.9323,-7.79,-7.6515,-7.3976,-7.0706,-6.6744,-6.5282,-6.2062,0.0,0.0,0.0,0.0,0.0,0.0,0.0,0.0,0.0,0.0,0.0,0.0,0.0,0.0,0.0,0.0,0.0,0.0,0.0,0.0,0.0,0.0,0.0,0.0,0.0,-8.6478,-9.3018,-9.3287,-9.9596,-10.2289,-9.798,-9.9135,-10.0019,-9.975,-10.2789,-10.5213,-10.6405,-10.829,-11.0598,-11.3099,-11.3214,-11.3984,-11.5715,-11.5407,-11.5291,-11.5291,-11.5599,-11.5407,-11.4907,-11.5407,-11.5099,-11.3984,-11.3407,-11.1983,-11.0175,-10.9598,-10.5482,-9.9596,-9.8442,-9.6788,-9.5057,-9.5057,-9.4864,-9.4749,-9.5557,-9.4749,-9.2826,-8.9671,-8.7517,-8.5747,-8.3478,-8.3016,-8.3285,-8.3516,-8.3785,-8.4286,-8.544,-8.5324,-8.4863,-8.4863,-8.4016,-8.3093,-8.2785,-8.2093,-8.14,-8.1131,-7.9746,-7.7938,-7.5976,-7.563,-7.5322,-7.4437,-7.6015,-7.7669,-7.8784,-8.0208,-8.1285,-8.1823,-8.19,-8.19,-8.19,-8.1631,-8.0862,-7.9438,-7.7746,-7.6169,-7.4784,-7.3129,-7.0591,-6.7167,-6.5743,-6.2666,-5.7819,0.0,0.0,0.0,0.0,0.0,0.0,0.0,0.0,0.0,0.0,0.0,0.0,0.0,0.0,0.0,0.0,0.0,0.0,0.0,0.0,0.0,0.0,0.0,-8.3939,-9.2672,-9.8788,-9.8096,-10.6097,-10.9406,-10.3597,-10.6097,-10.7713,-10.679,-10.829,-10.9906,-11.1598,-11.2522,-11.3984,-11.6484,-11.6599,-11.7407,-11.8985,-11.8215,-11.7792,-11.7715,-11.6907,-11.6484,-11.6484,-11.6484,-11.5599,-11.4099,-11.4099,-11.2599,-11.0291,-11.0291,-10.879,-10.629,-10.4597,-10.3405,-10.2404,-10.0789,-9.9596,-9.8711,-9.7827,-9.6442,-9.4903,-9.4018,-9.2633,-9.1018,-8.9363,-8.8248,-8.7363,-8.6555,-8.6863,-8.7478,-8.7478,-8.744,-8.7401,-8.7401,-8.6132,-8.467,-8.3824,-8.2939,-8.2093,-8.1285,-8.1131,-8.0862,-7.9977,-7.9862,-7.9554,-7.8707,-7.9285,0.0,-7.9862,-8.0592,-8.1093,-8.1054,-8.1054,-8.1054,-8.1054,-8.0246,-7.9323,-7.8438,-7.5284,-7.3053,-7.2168,-7.0552,-6.8821,-6.7051,-6.4512,-6.2012,-5.955,0.0,0.0,0.0,0.0,0.0,0.0,0.0,0.0,0.0,0.0,0.0,0.0,0.0,0.0,0.0,0.0,0.0,0.0,0.0,0.0,0.0,-8.7017,-9.1864,-9.1864,-9.9058,-10.5597,-10.9098,-11.3407,-11.5407,-11.3791,-11.4522,-11.4907,-11.4714,-11.5099,-11.5792,-11.6984,-11.6599,-11.6984,-11.8292,-11.8407,-11.8292,-11.8215,-11.7907,-11.7484,-11.6907,-11.6599,-11.6484,-11.6484,-11.6484,-11.6176,-11.5792,-11.5792,-11.4714,-11.2983,-11.2983,-11.1483,-10.8906,-10.6597,-10.4405,-10.252,-10.2097,-10.0981,-9.9519,-9.8019,-9.7211,-9.6557,-9.5095,-9.4326,-9.3749,-9.2672,-9.1748,-9.1056,-9.0825,-9.0017,-8.921,-8.921,-8.8325,-8.7401,-8.7401,-8.6132,-8.4824,-8.4593,-8.3862,-8.2978,-8.2131,-8.1977,-8.1708,-8.09,-8.0746,-8.0669,-8.04,-8.0592,-8.0746,-8.0746,-8.0939,-8.0862,-8.0208,-8.0169,-8.0169,-8.0169,-7.8823,-7.7361,-7.5822,-7.3745,-7.1898,-7.0437,-6.936,-6.7667,-6.532,-6.2781,-6.1127,0.0,0.0,0.0,0.0,0.0,0.0,0.0,0.0,0.0,0.0,0.0,0.0,0.0,0.0,0.0,0.0,0.0,0.0,0.0,0.0,0.0,0.0,-9.4557,-10.0596,-10.3174,-10.729,-11.1714,-11.6099,-11.86,-11.9908,-11.9908,-11.96,-11.9215,-11.8908,-11.8523,-11.86,-11.91,-11.86,-11.8715,-11.96,-11.96,-11.9485,-11.9408,-11.8715,-11.81,-11.76,-11.6792,-11.6484,-11.6484,-11.6484,-11.6292,-11.5984,-11.5984,-11.4984,-11.3483,-11.3483,-11.1983,-10.9483,0.0,0.0,0.0,0.0,-10.1212,-9.9904,-9.8519,-9.7827,-9.7288,-9.598,-9.5518,-9.5365,-9.4518,-9.3672,-9.2941,-9.2595,-9.1518,-9.0441,-9.0441,-8.944,-8.8363,-8.8017,-8.6632,-8.5324,-8.4978,-8.4209,-8.3439,-8.2939,-8.2554,0.0,-8.217,-8.1554,-8.0977,-8.0592,-8.0862,-8.0977,-8.0592,-8.0862,-8.09,-8.04,-8.0323,-8.0323,-8.0323,-7.8784,0.0,0.0,0.0,-7.0744,-6.8706,-6.7782,0.0,0.0,0.0,-6.3089,-6.2397,-6.2743,0.0,0.0,-6.0473,-5.9973,0.0,0.0,0.0,0.0,0.0,0.0,0.0,0.0,0.0,0.0,0.0,0.0,0.0,0.0,0.0,0.0,-10.1904,-10.9406,-11.5215,-11.6176,-11.7407,-12.0485,-12.2216,-12.3101,-12.3216,-12.2408,-12.16,-12.0793,-11.9985,-11.9485,-11.9485,-11.9408,0.0,0.0,0.0,-12.0793,-12.1408,-11.9908,-11.91,-11.8908,-11.7292,-11.6484,-11.6484,-11.6484,-11.6099,-11.5407,-11.5407,-11.4484,-11.2791,-11.2791,-11.1291,-10.8906,-10.8598,-10.6982,-10.4713,-10.2289,-10.0904,-9.9981,-9.9096,0.0,0.0,-9.6557,-9.6288,-9.6172,-9.5365,-9.448,-9.3557,-9.2826,-9.1941,-9.121,-9.121,-9.0556,-8.971,-8.8902,-8.744,-8.6017,-8.5209,-8.4439,-8.3862,-8.3747,-8.3131,-8.2785,-8.3362,-8.2208,-8.1016,-8.0323,-8.0785,-8.0977,-8.0169,-8.0669,-8.1054,-8.0977,-8.0939,0.0,-8.0939,-7.9361,-7.7669,-7.6092,-7.2899,-6.9975,-6.7628,-6.6821,-6.6397,-6.632,-6.7013,-6.6667,-6.5166,-6.6051,-6.6474,-6.6359,-6.3051,-6.1897,0.0,0.0,0.0,0.0,0.0,0.0,0.0,0.0,0.0,0.0,0.0,0.0,0.0,0.0,0.0,-10.0904,-10.8482,-11.5215,-11.9677,-12.1485,-12.2908,-12.4293,-12.4101,-12.4101,-12.4793,-12.4101,-12.3485,-12.3408,-12.2601,-12.2216,-12.2216,-12.1485,-12.1177,-12.1293,-12.1293,-12.11,-12.06,-11.96,-11.8715,-11.8023,-11.6984,0.0,-11.6484,-11.6484,-11.6407,-11.6292,-11.6292,-11.5291,-11.3714,-11.3714,-11.1791,-10.8713,-10.6597,-10.5097,-10.3982,-10.2789,-10.1404,-9.9981,-9.9096,-9.8211,-9.7365,-9.6557,-9.6288,-9.6288,-9.6095,-9.4941,0.0,-9.3518,-9.2364,-9.121,-9.121,-9.0556,-8.971,-8.8902,-8.7902,-8.6901,-8.6055,-8.5747,-8.544,-8.4786,-8.4516,-8.4016,-8.2747,-8.2285,-8.2247,-8.2785,-8.2401,-8.2016,-8.1823,-8.14,-8.0823,-8.0131,-8.0054,-8.0054,-8.0054,-7.8515,-7.7092,-7.6053,-7.3437,-7.1398,-7.0206,-7.0014,-6.9629,-6.8975,-6.9129,-6.9052,-6.8706,-6.9513,-6.9937,-6.986,-6.7128,-6.5974,0.0,0.0,0.0,0.0,0.0,0.0,0.0,0.0,0.0,0.0,0.0,-8.4632,-8.8017,0.0,-10.2481,-10.8098,-11.4291,-11.96,-12.2985,-12.4601,-12.5601,-12.5986,-12.5986,-12.6294,-12.7217,-12.6486,-12.6024,-12.6024,-12.4909,-12.4216,-12.4216,-12.2908,-12.2293,-12.2293,-12.1793,-12.1408,-12.0985,-11.9715,-11.8908,-11.8407,-11.71,-11.6484,-11.6484,-11.6484,-11.6484,-11.6484,-11.6484,-11.5484,-11.3907,-11.2214,-10.9906,-10.7521,-10.579,-10.4597,-10.3712,-10.2404,-10.1212,-9.9981,-9.9096,-9.8211,-9.7365,-9.6557,-9.6288,-9.6288,-9.6288,-9.5403,-9.4249,-9.3826,-9.2826,-9.1748,-9.1325,-9.0902,-9.0364,-8.9517,-8.8671,-8.7825,-8.694,-8.6401,-8.5978,-8.5593,-8.517,-8.4747,-8.4286,-8.3862,-8.3324,-8.2477,-8.2324,-8.2131,-8.1747,-8.1708,-8.1362,-8.0554,-8.0439,-8.0439,-8.0439,-7.8861,-7.7553,-7.6707,-7.463,-7.3245,-7.2822,-7.2437,-7.1822,-7.0975,-7.1783,-7.1783,-7.0937,-7.2206,-7.2591,-7.2206,-7.1745,-7.086,0.0,0.0,0.0,0.0,0.0,0.0,0.0,-8.0629,-8.2131,-8.4516,-8.8132,-9.221,-9.6673,-10.3289,-10.9598,-11.4214,-11.91,-12.3101,-12.5293,-12.6486,-12.7178,-12.7409,-12.7909,-12.8486,-12.941,-12.8717,-12.8217,-12.8217,-12.6717,-12.5794,-12.5678,-12.4216,-12.3216,-12.2908,-12.2216,-12.1793,-12.16,-11.9908,-11.91,-11.91,-11.7292,-11.6484,-11.6484,-11.6484,-11.6484,-11.6484,-11.6176,-11.5176,-11.3483,-11.0098,-10.7905,-10.6521,-10.5097,-10.4212,-10.3482,-10.2097,-10.0789,-9.975,-9.9019,-9.8134,-9.7173,-9.6519,-9.6288,-9.6288,-9.6288,-9.5557,-9.4595,-9.3903,-9.2979,-9.2095,-9.1364,-9.121,-9.0979,-9.0133,-8.9402,-8.8709,-8.7825,-8.7094,-8.6594,-8.6594,-8.6094,-8.5747,-8.6055,-8.5555,-8.4439,-8.2362,-8.2362,-8.2324,-8.167,-8.1862,-8.1823,-8.117,-8.1093,-8.1093,-8.1093,-7.9823,-7.8707,-7.8092,-7.6553,-7.5707,-7.5707,-7.4899,-7.413,-7.3437,-7.4745,-7.4784,-7.3437,-7.463,-7.4938,-7.4514,-7.5707,-7.5053,-7.2081,-7.0873,-7.247,-7.6913,-7.795,-8.0758,0.0,-9.2962,-9.3326,-9.8057,-10.1212,-10.3789,-10.5905,-11.0714,-11.5215,-11.81,-12.2216,-12.5293,-12.6409,-12.7909,-12.9217,-12.9987,-12.9487,-12.941,-13.0294,-12.9602,-12.9102,-12.9102,-12.8217,-12.7294,-12.6601,-12.5601,-12.4409,-12.2908,-12.2793,-12.2408,-12.16,-11.9908,-11.91,-11.91,-11.7292,-11.6484,-11.6484,-11.6484,-11.6484,-11.6407,-11.4907,-11.3714,-11.2599,-10.9213,-10.7713,-10.7213,-10.4097,-10.2789,-10.2712,-10.252,-10.0981,-9.8942,-9.8827,-9.775,-9.6442,-9.6326,-9.6288,-9.6288,-9.6288,-9.5134,-9.3826,-9.371,-9.2556,-9.1325,-9.1248,-9.121,-9.0979,-9.0133,-8.9825,-8.9556,-8.8709,-8.8479,-8.8402,-8.8402,-8.8325,-8.7825,-8.6363,-8.6017,-8.5863,-8.5593,-8.4362,-8.3401,-8.3324,-8.2093,-8.1208,-8.1093,-8.1093,-8.1093,-8.1093,-8.0939,-8.0785,-8.0669,-7.9785,-7.9246,-7.9246,-7.84,-7.79,-7.7784,-7.7977,-7.7977,-7.7784,-7.7284,-7.7323,-7.7938,-7.74,-7.6592,-7.7154,-7.6699,-7.825,-8.3382,-8.7045,-9.1103,-9.7731,-9.9442,-10.0481,-10.3597,-10.7482,-11.0483,-11.1214,-11.6292,-12.06,-12.1216,-12.4909,-12.7717,-12.8102,-12.8794,-12.9102,-12.8986,-12.8717,-12.9217,-13.0987,-13.091,-13.0679,-13.0679,-12.991,-12.8986,-12.8217,-12.6409,-12.4793,-12.3601,-12.2716,-12.1985,-12.16,-11.9908,-11.91,-11.91,-11.7292,-11.6484,-11.6484,-11.6484,-11.6176,-11.5676,-11.3984,-11.2483,-11.1098,-10.9213,-10.7213,-10.529,-10.3905,-10.2712,-10.1789,-10.1789,-10.0596,-9.8788,-9.8788,-9.7711,-9.6288,-9.6288,-9.6288,-9.6288,-9.6288,-9.5788,-9.5018,-9.398,-9.321,-9.2441,-9.1441,-9.121,-9.1133,-9.0748,-9.0287,-8.9825,-8.9479,-8.9017,-8.8709,-8.8709,-8.8286,-8.7709,-8.6978,-8.644,-8.6094,-8.6094,-8.467,-8.3401,-8.2901,-8.2247,-8.1631,-8.1131,-8.1093,-8.1093,-8.1093,-8.1093,-8.1093,-8.1093,-8.0746,-8.0554,-8.0554,-8.0208,-7.9785,-7.9285,-7.9746,-7.9515,-7.8477,-7.8669,-7.8669,-7.8477,-7.8669,-7.8554,-7.9274,-8.1119,-8.425,-8.9317,-9.4943,-10.0096,-10.3405,-10.529,-10.6905,-10.879,-11.2291,-11.5099,-11.5407,-11.9985,-12.3716,-12.3601,-12.6717,-12.9294,-12.9487,-12.9102,-12.8486,-12.7717,-12.6909,-12.7294,-12.941,-13.0487,-13.1102,-13.141,-13.0602,-12.991,-12.9217,-12.6794,-12.4986,-12.4101,-12.2716,-12.1677,-12.1177,-11.9792,-11.8985,-11.8715,-11.7176,-11.6484,-11.6484,-11.6292,-11.5676,-11.4907,-11.3407,-11.1714,-11.0098,-10.879,-10.6597,-10.4212,-10.3482,-10.2404,-10.1289,-10.1096,-10.0019,-9.875,-9.8519,-9.748,-9.6288,-9.6288,-9.6288,-9.6288,-9.6288,-9.6134,-9.5672,-9.4403,-9.371,-9.3095,-9.1864,-9.1364,-9.121,-9.121,-9.071,-9.0287,-9.0287,-8.9787,-8.9402,-8.9402,-8.8863,-8.8286,-8.7825,-8.7248,-8.6594,-8.5863,-8.4516,-8.3439,-8.3054,-8.2593,-8.217,-8.1823,-8.1362,-8.1208,-8.14,-8.1246,-8.1093,-8.1093,-8.1093,-8.1093,-8.1093,-8.1093,-8.0785,-8.0169,-8.0785,-8.0477,-7.9208,-7.9631,-7.9592,-7.9208,-7.9631,-7.9939,-7.5831,-8.1306,-8.8172,-9.3333,-9.9172,-10.4982,-11.0021,-11.1791,-11.3099,-11.5676,-11.6984,-11.7907,-11.8792,-12.11,-12.3485,-12.5101,-12.7486,-12.9487,-13.0294,-12.8986,-12.7602,-12.6794,-12.4601,-12.3408,-12.4216,-12.7294,-12.9602,-13.0487,-12.9717,-12.9217,-12.9217,-12.6794,-12.4986,-12.4101,-12.3293,-12.1985,-12.0408,-11.9485,-11.8715,-11.7792,-11.6907,-11.6484,-11.6484,-11.5676,-11.4907,-11.3984,-11.3099,-11.1714,-10.9983,-10.7521,-10.5905,-10.4789,-10.2289,-10.1289,-10.1212,-10.0404,-9.9558,-9.8673,-9.7827,-9.7019,-9.6288,-9.6288,-9.6288,-9.6288,-9.6288,-9.5711,-9.5018,-9.498,-9.3787,-9.2518,-9.2479,-9.1825,-9.121,-9.121,-9.1171,-9.1171,-9.1171,-9.1133,-9.1133,-9.1133,-9.1095,-9.0556,-8.894,-8.8632,-8.7786,-8.5324,-8.417,-8.3901,-8.4709,-8.3362,-8.2593,-8.3439,-8.2054,-8.14,-8.2208,-8.1554,-8.1093,-8.1093,-8.1093,-8.1093,-8.1093,-8.1093,-8.1093,-8.1054,-8.1093,-8.1054,-8.1016,-8.0208,-8.0208,-8.1016,-8.0169,-8.0246,-8.2074,-8.9088,-9.6843,-10.2689,-10.7787,-11.2406,-11.5792,-11.7215,-11.7715,-11.7407,-11.5792,-11.4214,-11.3291,-11.5291,-11.7484,-11.9177,-12.4486,-12.8602,-12.9487,-12.9102,-12.7409,-12.3793,-12.3101,-12.21,-12.01,-12.3485,-12.6909,-12.941,-12.941,-12.9217,-12.9217,-12.7294,-12.5601,-12.4101,-12.2793,-12.1793,-12.1177,-12.0292,-11.9715,-11.9408,-11.7984,-11.71,-11.6484,-11.5099,-11.4291,-11.3907,-11.1906,-11.0406,-10.9213,-10.7213,-10.5597,-10.4212,-10.2712,-10.1789,-10.1096,-9.975,-9.9058,-9.8673,-9.7788,-9.698,-9.6288,-9.6288,-9.6288,-9.6288,-9.6288,-9.6095,-9.5749,-9.5172,-9.4172,-9.3172,-9.2633,-9.1864,-9.121,-9.121,-9.121,-9.121,-9.121,-9.121,-9.121,-9.121,-9.0748,-8.9979,-8.8902,-8.8209,-8.7171,-8.5209,-8.417,-8.3478,-8.3208,-8.317,-8.3054,-8.2747,-8.2747,-8.2401,-8.1593,-8.1747,-8.167,-8.1131,-8.1093,-8.1093,-8.1093,-8.1093,-8.1093,-8.1093,-8.1093,-8.1093,-8.1093,-8.0823,-8.0823,-8.1093,-8.0785,-8.0823,-8.9638,-9.6971,-10.4317,-10.9808,-11.4407,-11.7907,-11.9215,-12.0216,-11.9985,-11.7407,-11.3907,-11.0598,-10.8406,-10.8482,-10.9983,-11.2906,-11.8215,-12.3293,-12.6909,-12.6294,-12.4716,-12.2293,-12.1216,-11.9908,-11.8023,-12.0292,-12.3408,-12.7101,-12.7986,-12.8217,-12.7909,-12.6486,-12.5101,-12.3716,-12.2293,-12.1485,-12.11,-12.06,-11.9985,-11.9408,-11.7984,-11.6907,-11.5984,-11.4599,-11.3714,-11.2983,-11.0983,-10.9406,-10.7905,-10.6521,-10.4905,-10.3289,-10.252,-10.1597,-10.0712,-9.9327,-9.8596,-9.8211,-9.7365,-9.6749,-9.6288,-9.6288,-9.6288,-9.6288,-9.6288,-9.6288,-9.6172,-9.5634,-9.4595,-9.3595,-9.3056,-9.2056,-9.1287,-9.1595,-9.1441,-9.1287,-9.1595,-9.1441,-9.121,-9.121,-9.0748,-9.0017,-8.8902,-8.7478,-8.6132,-8.5055,-8.4439,-8.3862,-8.3285,-8.3708,-8.3939,-8.367,-8.3632,-8.317,-8.2093,-8.2477,-8.2285,-8.117,-8.1362,-8.14,-8.1093,-8.1093,-8.1093,-8.1093,-8.1093,-8.1093,-8.1093,-8.1093,-8.1093,-8.1093,-8.1093,-8.1093,-9.7985,-10.4701,-11.0483,-11.4714,-11.8792,-12.1485,-12.06,-12.0908,-12.0177,-11.5907,-11.1406,-10.7213,-10.3905,-10.1404,-10.1481,-10.6713,-11.0098,-11.4907,-12.3101,-12.16,-12.0408,-12.2716,-11.9408,-11.7176,-11.7907,-11.8023,-11.9715,-12.3716,-12.5601,-12.6178,-12.5486,-12.4601,-12.3793,-12.2985,-12.21,-12.1177,-12.0408,-12.0292,-11.9485,-11.7907,-11.6907,-11.6099,-11.5291,-11.4407,-11.3022,-11.1406,-11.0483,-10.8713,-10.6405,-10.5405,-10.4097,-10.2597,-10.1712,-10.0789,-9.9981,-9.9096,-9.825,-9.7365,-9.6596,-9.6288,-9.6288,-9.6288,-9.6288,-9.6288,-9.6288,-9.6288,-9.6288,-9.6288,-9.5057,-9.371,-9.371,-9.2441,-9.1402,-9.2249,-9.1787,-9.1441,-9.2249,-9.1787,-9.121,-9.121,-9.1133,-9.0556,-8.8979,-8.6594,-8.4901,-8.4901,-8.4939,-8.4939,-8.4901,-8.4939,-8.5247,-8.5978,-8.4632,-8.367,-8.3593,-8.3632,-8.2978,-8.1323,-8.19,-8.1939,-8.1208,-8.1131,-8.1093,-8.1093,-8.1093,-8.1093,-8.1093,-8.1093,-8.1093,-8.1093,-8.1093,-8.1093,-10.5298,-11.2286,-11.81,-12.11,-12.2716,-12.3216,-12.2408,-12.0408,-11.7407,-11.2483,-10.4597,-9.7904,-9.5788,-9.5903,-9.8365,-10.4713,-11.3214,-12.0908,-12.6217,-12.6794,-12.5909,-12.3985,-12.2793,-12.1485,-11.9792,-12.0216,-12.1293,-12.3101,-12.4216,-12.5216,-12.6294,-12.5486,-12.4716,-12.3793,-12.2408,-12.1485,-12.1293,-12.06,-11.9792,-11.8792,-11.7176,-11.6099,-11.5215,-11.3714,-11.2522,-11.1406,-10.9906,-10.8482,-10.7213,-10.5097,-10.3982,-10.3405,-10.1904,-10.0789,-9.9981,-9.9096,-9.825,-9.7365,-9.6596,-9.6288,-9.6288,-9.6288,-9.6288,-9.6288,-9.6288,-9.6288,-9.6288,-9.6288,-9.5057,-9.371,-9.371,-9.2441,-9.1248,-9.1479,-9.1364,-9.1248,-9.1479,-9.1364,-9.121,-9.121,-9.0171,-8.921,-8.8748,-8.6594,-8.4901,-8.4901,-8.5401,-8.5593,-8.4978,-8.544,-8.5632,-8.5247,-8.5363,-8.4939,-8.3708,-8.4209,-8.4093,-8.3016,-8.2554,-8.2208,-8.2016,-8.14,-8.1093,-8.1093,-8.1093,-8.1093,-8.1093,-8.1093,-8.1093,-8.1093,-8.1093,-8.1093,-11.2692,-11.8484,-12.2985,-12.4793,-12.4986,-12.3485,-11.8908,-11.6099,-11.1983,-10.3097,-9.5557,-8.994,-8.7863,-8.8863,-9.2326,-9.9481,-10.8713,-11.7292,-12.4216,-12.5601,-12.5717,-12.5293,-12.4909,-12.3793,-12.1716,-12.2216,-12.2908,-12.3408,-12.3793,-12.4486,-12.5486,-12.5101,-12.4409,-12.3601,-12.2293,-12.1408,-12.0985,-12.0216,-11.9408,-11.8484,-11.6792,-11.5484,-11.4714,-11.3291,-11.2099,-11.0906,-10.9483,-10.8213,-10.7021,-10.4789,-10.3712,-10.3212,-10.1404,-10.0289,-9.9404,-9.8557,-9.7711,-9.6903,-9.648,-9.6288,-9.6288,-9.6288,-9.6288,-9.6288,-9.6288,-9.6288,-9.6211,-9.5826,-9.5018,-9.4172,-9.3787,-9.2979,-9.2402,-9.2787,-9.2595,-9.2402,-9.2787,-9.2287,-9.1672,-9.1287,-9.0133,-8.9248,-8.9248,-8.7748,-8.6555,-8.6555,-8.694,-8.7094,-8.6632,-8.6632,-8.6632,-8.6594,-8.6286,-8.5709,-8.4786,-8.5132,-8.4901,-8.367,-8.3516,-8.3093,-8.2324,-8.1862,-8.1477,-8.1093,-8.1093,-8.1093,-8.1093,-8.1093,-8.1093,-8.1093,-8.1093,-8.1093,-11.9485,-12.3408,-12.5986,-12.6986,-12.6178,-12.2793,-11.3714,-11.0214,-10.5097,-9.1941,-8.6286,-8.3131,-8.1131,-8.2401,-8.6401,-9.4518,-10.2212,-11.0598,-12.0793,-12.2293,-12.3485,-12.6794,-12.6294,-12.5216,-12.3909,-12.4101,-12.4409,-12.4601,-12.4293,-12.4101,-12.4101,-12.4101,-12.3716,-12.2793,-12.1985,-12.1177,-12.0292,-11.9485,-11.8715,-11.7792,-11.5984,-11.4714,-11.3984,-11.2983,-11.1598,-10.9983,-10.9213,-10.7905,-10.6097,-10.4482,-10.3405,-10.2404,-10.0789,-9.9558,-9.8673,-9.7827,-9.698,-9.6288,-9.6288,-9.6288,-9.6288,-9.6288,-9.6288,-9.6288,-9.6288,-9.6288,-9.6134,-9.5249,-9.498,-9.4788,-9.3941,-9.371,-9.3903,-9.4634,-9.4249,-9.3903,-9.4634,-9.3672,-9.2402,-9.1556,-9.0748,-9.0171,-8.9923,-8.9325,-8.8825,-8.8709,-8.8786,-8.8863,-8.8863,-8.8094,-8.7863,-8.8632,-8.7363,-8.644,-8.644,-8.6324,-8.5632,-8.4209,-8.4593,-8.417,-8.2554,-8.2362,-8.19,-8.1131,-8.1093,-8.1131,-8.1246,-8.1131,-8.1131,-8.1246,-8.1131,-8.1093,-12.3985,-12.6486,-12.7794,-12.941,-12.7101,-12.2216,-11.4291,-10.6982,-9.8788,-8.7979,-8.14,-7.7823,-7.8784,-8.2093,-8.8094,-9.8519,-10.6097,-11.4214,-12.4409,-12.5794,-12.6794,-12.9487,-12.8409,-12.7602,-12.8102,-12.6294,-12.5717,-12.7101,-12.5293,-12.4101,-12.4101,-12.4101,-12.3408,-12.1908,-12.1677,-12.1177,-12.0292,-11.9485,-11.8715,-11.7792,-11.5407,-11.4099,-11.3907,-11.2406,-11.0791,-10.9098,-10.8983,-10.7482,-10.529,-10.4289,-10.3405,-10.2404,-10.0789,-9.9558,-9.8673,-9.7827,-9.698,-9.6288,-9.6288,-9.6288,-9.6288,-9.6288,-9.6288,-9.6288,-9.6288,-9.6288,-9.6134,-9.5249,-9.498,-9.4788,-9.3941,-9.371,-9.3749,-9.3903,-9.3787,-9.3749,-9.3903,-9.371,-9.3249,-9.2441,-9.2133,-9.1595,-9.0171,-8.9787,-8.9479,-8.8786,-8.9286,-8.971,-8.971,-8.8979,-8.8517,-8.8671,-8.844,-8.8248,-8.8248,-8.7594,-8.7055,-8.6748,-8.5593,-8.4439,-8.3401,-8.267,-8.19,-8.1131,-8.1093,-8.1439,-8.2093,-8.14,-8.1439,-8.2093,-8.14,-8.1093,-12.6909,-12.8909,-12.9987,-13.041,-12.6601,-11.9792,-10.8098,-9.9596,-9.0633,-7.8207,-7.336,-7.2014,-7.413,-7.8746,-8.4863,-9.2787,-9.9788,-10.7905,-11.86,-12.1216,-12.3985,-12.9217,-12.991,-12.9717,-12.9217,-12.8486,-12.7986,-12.7909,-12.6794,-12.5717,-12.4793,-12.3909,-12.2908,-12.16,-12.1177,-12.0485,-11.9715,-11.8792,-11.7984,-11.71,-11.5484,-11.4407,-11.3907,-11.2291,-11.0791,-10.9483,-10.8713,-10.7598,-10.629,-10.4597,-10.3712,-10.2981,-10.0404,-9.9173,-9.8634,-9.7365,-9.6634,-9.6288,-9.6288,-9.6288,-9.6288,-9.6288,-9.6288,-9.6288,-9.6288,-9.6288,-9.6134,-9.5249,-9.5326,-9.548,-9.4595,-9.4711,-9.5057,-9.5057,-9.5057,-9.4941,-9.448,-9.4364,-9.4134,-9.3287,-9.3133,-9.2864,-9.2018,-9.1864,-9.1595,-9.0787,-9.1018,-9.1095,-9.0633,-9.0248,-9.0017,-9.0017,-8.921,-8.8863,-8.9286,-8.8132,-8.7401,-8.7401,-8.6209,-8.4939,-8.3632,-8.3208,-8.2362,-8.1131,-8.1516,-8.19,-8.2285,-8.19,-8.19,-8.2285,-8.1477,-8.1093,-12.8909,-13.0794,-13.1795,-13.0987,-12.5678,-11.6907,-10.2212,-9.2979,-8.3708,-6.9937,-6.6974,-6.7667,-7.0398,-7.5168,-8.0631,-8.644,-9.2326,-10.0212,-11.1791,-11.5792,-12.0408,-12.7986,-13.041,-13.0987,-12.9794,-12.9987,-12.9717,-12.8294,-12.7717,-12.6717,-12.5216,-12.3485,-12.2293,-12.16,-12.0793,-11.9908,-11.91,-11.8215,-11.7407,-11.6484,-11.5484,-11.4714,-11.3907,-11.2099,-11.0714,-10.979,-10.829,-10.7482,-10.6982,-10.4789,-10.3789,-10.3289,-10.0096,-9.8788,-9.8596,-9.6903,-9.6288,-9.6288,-9.6288,-9.6288,-9.6288,-9.6288,-9.6288,-9.6288,-9.6288,-9.6288,-9.6134,-9.5249,-9.5634,-9.6095,-9.5211,-9.5634,-9.6288,-9.6288,-9.6288,-9.6095,-9.5441,-9.5288,-9.5018,-9.4134,-9.4134,-9.4134,-9.3749,-9.3826,-9.371,-9.2864,-9.2749,-9.2518,-9.1825,-9.1595,-9.1479,-9.1479,-9.0133,-8.9479,-9.0133,-8.8632,-8.7671,-8.7671,-8.6709,-8.544,-8.3939,-8.3862,-8.317,-8.167,-8.2247,-8.267,-8.2862,-8.267,-8.267,-8.2824,-8.1823,-8.1362,-13.0102,-13.2179,-13.2679,-13.1795,-12.4793,-11.4791,-10.1789,-9.1171,-8.0823,-6.9436,-6.6513,-6.7013,-7.0283,-7.3245,-7.7861,-8.6055,-8.9863,-9.6442,-10.979,-11.4599,-11.9485,-12.7101,-12.9602,-13.0794,-13.141,-13.0217,-12.9294,-12.9102,-12.6909,-12.5216,-12.4293,-12.2601,-12.1677,-12.16,-12.0793,-11.9908,-11.91,-11.8215,-11.7407,-11.6484,-11.4907,-11.4099,-11.3907,-11.1406,-10.979,-10.8983,-10.8098,-10.679,-10.529,-10.4289,-10.3405,-10.2481,-9.9827,-9.8788,-9.8596,-9.6903,-9.6288,-9.6288,-9.6288,-9.6288,-9.6288,-9.6288,-9.6288,-9.6288,-9.6288,-9.6288,-9.6134,-9.5249,-9.5634,-9.6095,-9.5211,-9.5634,-9.6288,-9.6288,-9.6288,-9.6288,-9.6211,-9.6172,-9.5903,-9.5057,-9.5518,-9.5557,-9.398,-9.4364,-9.4595,-9.371,-9.3595,-9.3557,-9.348,-9.2826,-9.2364,-9.2364,-9.1518,-9.1018,-9.1056,-8.9556,-8.8556,-8.8556,-8.7017,-8.5709,-8.4824,-8.4786,-8.4324,-8.3401,-8.3439,-8.3862,-8.467,-8.3862,-8.3901,-8.4632,-8.2978,-8.217,-12.8794,-13.1987,-13.2679,-13.1295,-12.3601,-11.2983,-10.0212,-8.9402,-7.9092,-6.8552,-6.5705,-6.5974,-6.8859,-7.0206,-7.2706,-7.8169,-8.0285,-8.5478,-9.7596,-10.2212,-10.8906,-12.11,-12.4601,-12.7409,-13.1295,-13.0679,-12.9487,-12.8486,-12.6486,-12.4986,-12.4101,-12.2985,-12.21,-12.16,-12.0292,-11.9408,-11.91,-11.7715,-11.6792,-11.6484,-11.5792,-11.4984,-11.3907,-11.2406,-11.0714,-10.8906,-10.8021,-10.7021,-10.579,-10.4405,-10.3712,-10.3097,-9.9981,-9.8788,-9.8596,-9.6903,-9.6288,-9.6288,-9.6288,-9.6288,-9.6288,-9.6288,-9.6288,-9.6288,-9.6288,-9.6288,-9.6249,-9.5865,-9.6019,-9.6211,-9.5865,-9.6057,-9.6288,-9.6288,-9.6288,-9.6288,-9.6288,-9.6288,-9.6211,-9.5865,-9.6057,-9.6095,-9.5365,-9.5557,-9.548,-9.4595,-9.448,-9.4287,-9.3749,-9.3403,-9.321,-9.321,-9.2018,-9.121,-9.121,-9.0094,-8.921,-8.8709,-8.7555,-8.6286,-8.4939,-8.4901,-8.4747,-8.4401,-8.4863,-8.5286,-8.5632,-8.5286,-8.5016,-8.4863,-8.3632,-8.2785,-12.5794,-13.0602,-13.2179,-13.0487,-12.1716,-11.0291,-9.8596,-8.744,-7.6976,-6.7782,-6.5397,-6.5667,-6.7975,-6.8385,-6.9436,-7.2591,-7.463,-7.9169,-8.8748,-9.3864,-10.1212,-11.3483,-11.7715,-12.1793,-12.7794,-12.941,-12.941,-12.7717,-12.6217,-12.4909,-12.3793,-12.2985,-12.2216,-12.16,-11.9985,-11.91,-11.91,-11.7407,-11.6484,-11.6484,-11.5984,-11.5099,-11.3984,-11.2599,-11.0791,-10.8906,-10.8021,-10.7098,-10.5905,-10.4482,-10.3712,-10.3212,-9.9981,-9.8788,-9.8596,-9.6903,-9.6288,-9.6288,-9.6288,-9.6288,-9.6288,-9.6288,-9.6288,-9.6288,-9.6288,-9.6288,-9.6288,-9.6288,-9.6288,-9.6288,-9.6288,-9.6288,-9.6288,-9.6288,-9.6288,-9.6288,-9.6288,-9.6288,-9.6288,-9.6288,-9.6288,-9.6288,-9.6288,-9.6288,-9.6095,-9.548,-9.5365,-9.5172,-9.4557,-9.4249,-9.4057,-9.4057,-9.2787,-9.1825,-9.1595,-9.0556,-8.9671,-8.9094,-8.8248,-8.7248,-8.6055,-8.6017,-8.6017,-8.6017,-8.6594,-8.6863,-8.6863,-8.6863,-8.6594,-8.6017,-8.4863,-8.3747,-12.1408,-12.7909,-13.1295,-12.9602,-11.8985,-10.6482,-9.7134,-8.517,-7.413,-6.7282,-6.5897,-6.6397,-6.809,-6.8385,-6.9244,-7.1783,-7.5707,-8.0554,-8.6594,-9.3249,-9.9404,-10.4597,-10.8983,-11.3907,-11.9792,-12.5794,-12.8486,-12.6794,-12.5909,-12.4716,-12.3024,-12.21,-12.16,-12.16,-11.9985,-11.91,-11.91,-11.7407,-11.6484,-11.6484,-11.4791,-11.3984,-11.3907,-11.1406,-10.9713,-10.8906,-10.8021,-10.6713,-10.5097,-10.4212,-10.3405,-10.2404,-9.9788,-9.8788,-9.8596,-9.6903,-9.6288,-9.6288,-9.6288,-9.6288,-9.6288,-9.6288,-9.6288,-9.6288,-9.6288,-9.6288,-9.6288,-9.6288,-9.6288,-9.6288,-9.6288,-9.6288,-9.6288,-9.6288,-9.6288,-9.6288,-9.6288,-9.6288,-9.6288,-9.6288,-9.6288,-9.6288,-9.6288,-9.6288,-9.6288,-9.6288,-9.6288,-9.6288,-9.6288,-9.5518,-9.498,-9.498,-9.421,-9.3364,-9.2556,-9.0902,-8.9902,-8.9902,-8.9133,-8.8671,-8.8671,-8.8671,-8.8671,-8.8671,-8.8671,-8.8671,-8.8671,-8.8671,-8.8671,-8.8632,-8.6863,-8.517,-10.5405,-11.0983,-11.3714,-11.0791,-10.4289,-9.6365,-8.8171,-8.0977,-7.4091,-6.7282,-6.5897,-6.6397,-6.809,-6.8385,-7.0167,-7.563,-7.763,-7.9977,-8.4209,-9.1672,-9.8788,-10.4405,-11.5984,-12.4293,-12.6217,-12.7602,-12.7602,-12.5909,-12.5601,-12.4716,-12.2985,-12.21,-12.1293,-12.0716,-11.91,-11.8215,-11.8215,-11.71,-11.6176,-11.5676,-11.5099,-11.4291,-11.3099,-11.1714,-11.0291,-10.8906,-10.8021,-10.6713,-10.4982,-10.4212,-10.3405,-10.2289,-9.9788,-9.8788,-9.8596,-9.6903,-9.6288,-9.6288,-9.6288,-9.6288,-9.6288,-9.6288,-9.6288,-9.6288,-9.6288,-9.6288,-9.6288,-9.6288,-9.6288,-9.6288,-9.6288,-9.6288,-9.6288,-9.6288,-9.6288,-9.6288,-9.6288,-9.6288,-9.6288,-9.6288,-9.6288,-9.6288,-9.6288,-9.6288,-9.6288,-9.6288,-9.6288,-9.6288,-9.6288,-9.6057,-9.5903,-9.5903,-9.5095,-9.4249,-9.3403,-9.2326,-9.1441,-9.0825,-8.9979,-8.9286,-8.8709,-8.8709,-8.9248,-9.0402,-9.0402,-9.0402,-9.0402,-9.0402,-8.9825,-8.8671,-8.6901,-8.5824,-9.4172,-10.0596,-10.3405,-10.1019,-9.5788,-8.9671,-8.3285,-7.7592,-7.2168,-6.6974,-6.5897,-6.632,-6.7667,-6.7898,-6.9513,-7.4399,-7.6515,-7.8746,-8.217,-8.971,-9.7519,-10.4713,-11.6715,-12.4486,-12.4909,-12.6409,-12.6601,-12.4601,-12.4486,-12.3716,-12.1985,-12.11,-12.0292,-11.9408,-11.8292,-11.7792,-11.7792,-11.6599,-11.5792,-11.5291,-11.4599,-11.3599,-11.2214,-11.1406,-10.9906,-10.7905,-10.7405,-10.602,0.0,-10.3289,-10.2404,-10.1404,-9.9173,-9.8288,-9.8134,-9.6788,-9.6288,-9.6288,-9.6288,-9.6288,-9.6288,-9.6288,-9.6288,-9.6288,-9.6288,-9.6288,-9.6288,-9.6288,-9.6288,-9.6288,-9.6288,-9.6288,-9.6288,-9.6288,-9.6288,-9.6288,-9.6288,-9.6288,-9.6288,-9.6288,-9.6288,-9.6288,-9.6288,-9.6288,-9.6288,-9.6288,-9.6288,-9.6288,-9.6288,-9.6288,-9.6288,-9.6288,-9.5826,-9.5249,-9.4711,-9.3633,-9.2595,-9.1748,-9.1171,-9.0517,-8.9671,-8.9633,-9.0287,-9.1672,-9.171,-9.171,-9.171,-9.1364,-9.0479,-8.9133,-8.8055,-8.7209,0.0,-9.421,-9.7865,-9.6865,-9.1364,-8.5093,-8.1016,-7.4668,0.0,-6.6397,-6.5897,-6.6167,-6.709,-6.7244,-6.7859,-6.9975,-7.3707,-7.7515,-8.0823,-8.8209,-9.6788,-10.6097,-11.2983,-11.7292,-11.8023,-12.3216,-12.5486,-12.3101,-12.2793,-12.21,-12.0408,-11.9485,-11.86,-11.7715,-11.7715,-11.76,-11.76,-11.6099,-11.5215,-11.4984,-11.3407,-11.2214,-11.1291,-11.0406,-10.8598,-10.6405,-10.629,-10.4789,-10.252,-10.1712,-10.0789,-9.9904,-9.8173,-9.7519,-9.7403,-9.6596,-9.6288,-9.6288,-9.6288,-9.6288,-9.6288,-9.6288,-9.6288,-9.6288,-9.6288,-9.6288,-9.6288,-9.6288,-9.6288,-9.6288,-9.6288,-9.6288,-9.6288,-9.6288,-9.6288,-9.6288,-9.6288,-9.6288,-9.6288,-9.6288,-9.6288,-9.6288,-9.6288,-9.6288,-9.6288,-9.6288,-9.6288,-9.6288,-9.6288,-9.6288,-9.6288,-9.6288,-9.6288,-9.6288,-9.6288,-9.4749,-9.348,-9.271,-9.2633,-9.221,-9.1325,-9.1364,-9.1748,-9.2556,-9.2595,-9.2556,-9.2479,-9.1633,-9.0787,-8.9979,-8.994,-8.9056,-6.9552,0.0,-7.8246,-7.6092,-7.4707,-7.3245,0.0,-6.9513,-6.8167,-6.6282,-6.5897,-6.6551,-6.8706,-6.8552,-6.9937,-7.5515,-7.8361,-8.0631,-8.2708,-9.3518,-10.4713,-11.4022,-11.9408,-12.1908,-12.0793,-12.3101,-12.4216,-12.2985,-12.2293,-12.1408,-12.0408,-11.8908,-11.7715,-11.6792,-11.6215,-11.5907,-11.5907,-11.5484,-11.4291,-11.2406,-11.2022,-11.1021,-10.9483,-10.8021,-10.7021,-10.629,-10.502,-10.3789,-10.252,-10.1712,-10.0789,-9.9904,-9.8173,-9.7519,-9.7403,-9.6596,-9.6288,-9.6288,-9.6288,-9.6288,-9.6288,-9.6288,-9.6288,-9.6288,-9.6288,-9.6288,-9.6288,-9.6288,-9.6288,-9.6288,-9.6288,-9.6288,-9.6288,-9.6288,-9.6288,-9.6288,-9.6288,-9.6288,-9.6288,-9.6288,-9.6288,-9.6288,-9.6288,-9.6288,-9.6288,-9.6288,-9.6288,-9.6288,-9.6288,-9.6288,-9.6288,-9.6288,-9.6288,-9.6288,-9.6288,-9.5326,-9.4595,-9.4403,-9.3787,-9.3056,-9.221,-9.2787,-9.321,-9.3403,-9.3403,-9.3133,-9.2479,-9.1633,-9.1095,-9.0902,-9.021,-8.9363,-6.1897,-6.6282,-7.0206,-6.9244,-6.936,-6.936,-6.8013,-6.7744,-6.7436,-6.6167,-6.5897,-6.6436,-6.8167,-6.8129,-6.9398,-7.4245,-7.7438,-8.1823,-8.8979,-9.7673,-10.679,-11.6099,-11.9908,-12.1908,-12.2216,-12.2985,-12.2985,-12.1793,-12.1293,-12.0485,-11.9215,-11.8292,-11.7215,-11.5984,-11.5484,-11.5099,-11.4714,-11.3907,-11.2906,-11.1522,-11.0291,-10.9098,-10.7713,-10.6405,-10.5405,-10.4597,-10.3712,-10.2597,-10.1404,-10.0519,-9.9673,-9.8788,-9.7442,-9.6942,-9.6903,-9.648,-9.6288,-9.6288,-9.6288,-9.6288,-9.6288,-9.6288,-9.6288,-9.6288,-9.6288,-9.6288,-9.6288,-9.6288,-9.6288,-9.6288,-9.6288,-9.6288,-9.6288,-9.6288,-9.6288,-9.6288,-9.6288,-9.6288,-9.6288,-9.6288,-9.6288,-9.6288,-9.6288,-9.6288,-9.6288,-9.6288,-9.6288,-9.6288,-9.6288,-9.6288,-9.6288,-9.6288,-9.6288,-9.6288,-9.6288,-9.5865,-9.5441,-9.5018,-9.4557,-9.3903,-9.3095,-9.348,-9.3903,-9.4287,-9.3903,-9.348,-9.3056,-9.1825,-9.121,-9.121,-9.071,-9.0056,-5.9935,-6.4436,-6.8975,-6.8936,-6.9129,-6.909,-6.8205,-6.7436,-6.6705,-6.6051,-6.6013,-6.6359,-6.7321,-6.7821,-6.8936,-7.1629,-7.6322,-8.4132,-9.7057,-10.1712,-10.6905,-11.5291,-11.81,-11.9985,-12.1908,-12.2408,-12.1908,-12.0408,-12.01,-11.9215,-11.7715,-11.7484,-11.6599,-11.4791,-11.4714,-11.4214,-11.3214,-11.2099,-11.1214,-11.0714,-10.8521,-10.7021,-10.602,-10.5097,-10.3905,-10.2597,-10.2289,-10.1404,-9.9981,-9.9019,-9.8173,-9.7403,-9.6596,-9.6288,-9.6288,-9.6288,-9.6288,-9.6288,-9.6288,-9.6288,-9.6288,-9.6288,-9.6288,-9.6288,-9.6288,-9.6288,-9.6288,-9.6288,-9.6288,-9.6288,-9.6288,-9.6288,-9.6288,-9.6288,-9.6288,-9.6288,-9.6288,-9.6288,-9.6288,-9.6288,-9.6288,-9.6288,-9.6288,-9.6288,-9.6288,-9.6288,-9.6288,-9.6288,-9.6288,-9.6288,-9.6288,-9.6288,-9.6288,-9.6288,-9.6288,-9.6288,-9.598,-9.5249,-9.5211,-9.4864,-9.4134,-9.398,-9.4249,-9.498,-9.4249,-9.3826,-9.371,-9.2133,-9.1402,-9.1402,-9.1248,-9.0748,-6.1973,-6.7051,-7.0591,-6.6436,-6.6436,-6.7282,-6.6474,-6.6167,-6.6051,-6.5936,-6.6436,-6.7398,-6.9013,-7.1052,-7.3591,-7.6823,-8.4555,-9.3633,-10.3597,-10.729,-11.0598,-11.4984,-11.8215,-11.9715,-11.8715,-11.9908,-12.06,-12.0292,-11.8985,-11.7715,-11.6792,-11.6099,-11.4599,-11.2214,-11.2099,-11.1291,-10.9713,-11.0906,-11.0021,-10.7213,-10.679,-10.579,-10.4289,-10.3405,-10.2789,-10.252,-10.1096,-10.0289,-9.9981,-9.8365,-9.7634,-9.7403,-9.6596,-9.6288,-9.6288,-9.6288,-9.6288,-9.6288,-9.6288,-9.6288,-9.6288,-9.6288,-9.6288,-9.6288,-9.6288,-9.6288,-9.6288,-9.6288,-9.6288,-9.6288,-9.6288,-9.6288,-9.6288,-9.6288,-9.6288,-9.6288,-9.6288,-9.6288,-9.6288,-9.6288,-9.6288,-9.6288,-9.6288,-9.6288,-9.6288,-9.6288,-9.6288,-9.6288,-9.6288,-9.6288,-9.6288,-9.6288,-9.6288,-9.6288,-9.6288,-9.6288,-9.6249,-9.6095,-9.6095,-9.6057,-9.5903,-9.5172,-9.4864,-9.498,-9.4864,-9.4441,-9.371,-9.2749,-9.2287,-9.2287,-9.1556,-9.0748,-5.9473,-6.3551,-6.7398,-6.7359,-7.0321,-7.2783,-7.1052,-7.0321,-6.986,-6.9398,-6.959,-7.009,-7.0898,-7.4245,-7.9361,-8.6901,-9.2095,-9.7827,-10.529,-10.7405,-10.9906,-11.4714,-11.6984,-11.8484,-11.91,-11.9792,-11.9908,-11.8985,-11.8215,-11.7215,-11.5907,-11.5484,-11.4099,-11.1598,-11.1522,-11.0521,-10.829,-10.8598,-10.8021,-10.6405,-10.552,-10.4405,-10.3212,-10.2289,-10.1712,-10.1212,-10.0404,-9.9558,-9.8634,-9.7827,-9.725,-9.6826,-9.6442,-9.6288,-9.6288,-9.6288,-9.6288,-9.6288,-9.6288,-9.6288,-9.6288,-9.6288,-9.6288,-9.6288,-9.6288,-9.6288,-9.6288,-9.6288,-9.6288,-9.6288,-9.6288,-9.6288,-9.6288,-9.6288,-9.6288,-9.6288,-9.6288,-9.6288,-9.6288,-9.6288,-9.6288,-9.6288,-9.6288,-9.6288,-9.6288,-9.6288,-9.6288,-9.6288,-9.6288,-9.6288,-9.6288,-9.6288,-9.6288,-9.6288,-9.6288,-9.6288,-9.6288,-9.6288,-9.6288,-9.6288,-9.6288,-9.5903,-9.5711,-9.5711,-9.5249,-9.4788,-9.4403,-9.3557,-9.3133,-9.3133,-9.2749,-9.2326,-5.8319,-6.1435,-6.5436,-6.9321,-7.3514,-7.6669,-7.6515,-7.5553,-7.4707,-7.4822,-7.4861,-7.4668,-7.4091,-7.8631,-8.5632,-9.5326,-9.8904,-10.2289,-10.7521,-10.8406,-11.0291,-11.5291,-11.6407,-11.7677,-11.9792,-11.9792,-11.9215,-11.7907,-11.7407,-11.6599,-11.5099,-11.4599,-11.3291,-11.1021,-11.0714,-10.9521,-10.7098,-10.6405,-10.602,-10.579,-10.4289,-10.2981,-10.1981,-10.1289,-10.0596,-9.9788,-9.9558,-9.8711,-9.748,-9.7288,-9.6865,-9.6288,-9.6288,-9.6288,-9.6288,-9.6288,-9.6288,-9.6288,-9.6288,-9.6288,-9.6288,-9.6288,-9.6288,-9.6288,-9.6288,-9.6288,-9.6288,-9.6288,-9.6288,-9.6288,-9.6288,-9.6288,-9.6288,-9.6288,-9.6288,-9.6288,-9.6288,-9.6288,-9.6288,-9.6288,-9.6288,-9.6288,-9.6288,-9.6288,-9.6288,-9.6288,-9.6288,-9.6288,-9.6288,-9.6288,-9.6288,-9.6288,-9.6288,-9.6288,-9.6288,-9.6288,-9.6288,-9.6288,-9.6288,-9.6288,-9.6288,-9.6288,-9.6288,-9.6288,-9.5634,-9.5288,-9.5288,-9.4441,-9.398,-9.398,-9.3787,-9.371,-6.2204,-6.5397,-6.8667,-7.136,-7.1745,-7.3245,-8.0169,-7.9862,-7.9015,-8.2131,-8.2785,-8.2054,-7.9708,-8.5363,-9.221,-9.7711,-10.4597,-11.0291,-11.3099,-11.4099,-11.5407,-11.7407,-11.7715,-11.81,-11.91,-11.8484,-11.7907,-11.7792,-11.6407,-11.5099,-11.4099,-11.2599,-11.0906,-10.9098,-10.8406,-10.7098,-10.529,-10.5213,-10.4789,-10.4097,-10.3097,-10.1789,-10.0289,-10.0212,-9.9712,-9.8865,-9.8057,-9.7634,-9.7442,-9.6711,-9.6365,-9.6288,-9.6288,-9.6288,-9.6288,-9.6288,-9.6288,-9.6288,-9.6288,-9.6288,-9.6288,-9.6288,-9.6288,-9.6288,-9.6288,-9.6288,-9.6288,-9.6288,-9.6288,-9.6288,-9.6288,-9.6288,-9.6288,-9.6288,-9.6288,-9.6288,-9.6288,-9.6288,-9.6288,-9.6288,-9.6288,-9.6288,-9.6288,-9.6288,-9.6288,-9.6288,-9.6288,-9.6288,-9.6288,-9.6288,-9.6288,-9.6288,-9.6288,-9.6288,-9.6288,-9.6288,-9.6288,-9.6288,-9.6288,-9.6288,-9.6288,-9.6288,-9.6288,-9.6288,-9.6249,-9.6211,-9.6211,-9.5326,-9.4903,-9.4864,-9.4057,-9.371,-5.9935,-6.382,-6.8321,-7.1437,-7.513,-7.9285,-8.4324,-8.5517,-8.6247,-8.8632,-9.0402,-9.1056,-8.9517,-9.2479,-9.698,-10.2597,-10.8213,-11.2599,-11.5215,-11.5792,-11.6484,-11.7715,-11.7792,-11.7907,-11.8292,-11.8023,-11.7407,-11.6292,-11.5676,-11.4484,-11.2522,-11.1791,-11.0214,-10.7405,-10.7098,-10.6097,-10.4405,-10.3789,-10.3097,-10.2289,-10.252,-10.1712,-10.0096,-10.0096,-9.9327,-9.798,-9.7634,-9.7211,-9.6749,-9.6442,-9.6288,-9.6288,-9.6288,-9.6288,-9.6288,-9.6288,-9.6288,-9.6288,-9.6288,-9.6288,-9.6288,-9.6288,-9.6288,-9.6288,-9.6288,-9.6288,-9.6288,-9.6288,-9.6288,-9.6288,-9.6288,-9.6288,-9.6288,-9.6288,-9.6288,-9.6288,-9.6288,-9.6288,-9.6288,-9.6288,-9.6288,-9.6288,-9.6288,-9.6288,-9.6288,-9.6288,-9.6288,-9.6288,-9.6288,-9.6288,-9.6288,-9.6288,-9.6288,-9.6288,-9.6288,-9.6288,-9.6288,-9.6288,-9.6288,-9.6288,-9.6288,-9.6288,-9.6288,-9.6288,-9.6288,-9.6288,-9.6288,-9.598,-9.5826,-9.5788,-9.548,-9.5326,-5.8819,-6.1627,-6.5705,-6.9937,-7.5476,-8.1554,-8.794,-9.0902,-9.3172,-9.6249,-9.7019,-9.698,-9.6673,-9.775,-10.0289,-10.5213,-11.0214,-11.4214,-11.6176,-11.6484,-11.6676,-11.7292,-11.7407,-11.7292,-11.6984,-11.6984,-11.6407,-11.4984,-11.4407,-11.3291,-11.1598,-11.0521,-10.879,-10.6521,-10.5905,-10.4789,-10.3097,-10.252,-10.1597,-10.0519,-10.1096,-10.0712,-9.9288,-9.9288,-9.8481,-9.7134,-9.7134,-9.6826,-9.6288,-9.6288,-9.6288,-9.6288,-9.6288,-9.6288,-9.6288,-9.6288,-9.6288,-9.6288,-9.6288,-9.6288,-9.6288,-9.6288,-9.6288,-9.6288,-9.6288,-9.6288,-9.6288,-9.6288,-9.6288,-9.6288,-9.6288,-9.6288,-9.6288,-9.6288,-9.6288,-9.6288,-9.6288,-9.6288,-9.6288,-9.6288,-9.6288,-9.6288,-9.6288,-9.6288,-9.6288,-9.6288,-9.6288,-9.6403,-9.6634,-9.648,-9.6288,-9.6288,-9.6288,-9.6288,-9.6288,-9.6288,-9.6288,-9.6288,-9.6288,-9.6288,-9.6288,-9.6288,-9.6288,-9.6288,-9.6288,-9.6288,-9.6288,-9.6288,-9.6288,-9.6288,-9.6288,-9.6288,-5.9973,-5.955,-6.1012,-6.6974,-7.1668,-7.8169,-9.0864,-9.5711,-9.9211,-10.5213,-10.2404,-9.9135,-9.9981,-10.0789,-10.2212,-10.4713,-11.0791,-11.5599,-11.6407,-11.6484,-11.6484,-11.6484,-11.6484,-11.6176,-11.5407,-11.5291,-11.4907,-11.3984,-11.2406,-11.1522,-11.1522,-10.8213,-10.6405,-10.6405,-10.4713,-10.302,-10.1289,-10.1289,-10.0404,-9.8788,-9.8788,-9.8327,-9.7519,-9.7519,-9.7057,-9.6288,-9.6288,-9.6288,-9.6288,-9.6288,-9.6288,-9.6288,-9.6288,-9.6288,-9.6288,-9.6288,-9.6288,-9.6288,-9.6288,-9.6288,-9.6288,-9.6288,-9.6288,-9.6288,-9.6288,-9.6288,-9.6288,-9.6288,-9.6288,-9.6288,-9.6288,-9.6288,-9.6288,-9.6288,-9.6288,-9.6288,-9.6288,-9.6288,-9.6288,-9.6288,-9.6326,-9.6326,-9.6326,-9.6326,-9.6326,-9.6326,-9.6326,-9.6596,-9.7403,-9.6788,-9.6288,-9.6288,-9.6288,-9.6288,-9.6288,-9.6288,-9.6288,-9.6288,-9.6288,-9.6288,-9.6288,-9.6288,-9.6288,-9.6288,-9.6288,-9.6288,-9.6288,-9.6288,-9.6288,-9.6288,-9.6288,-9.6288,-5.9127,-6.2589,-6.7398,-7.0321,-7.8284,-8.7478,-9.548,-9.7865,-10.0596,-10.8406,-10.7405,-10.4982,-10.4597,-10.5713,-10.6713,-10.6905,-11.1098,-11.4907,-11.6292,-11.6484,-11.6484,-11.6484,-11.5984,-11.5599,-11.5291,-11.4714,-11.3791,-11.2291,-11.1791,-11.0521,-10.8021,-10.7021,-10.529,-10.2904,-10.2289,-10.1289,-9.9558,-9.9558,-9.8981,-9.7904,-9.7904,-9.775,-9.7519,-9.7519,-9.7057,-9.6288,-9.6288,-9.6288,-9.6288,-9.6288,-9.6288,-9.6288,-9.6288,-9.6288,-9.6288,-9.6288,-9.6288,-9.6288,-9.6288,-9.6288,-9.6288,-9.6288,-9.6288,-9.6288,-9.6288,-9.6288,-9.6288,-9.6288,-9.6288,-9.6288,-9.6288,-9.6288,-9.6288,-9.6288,-9.6288,-9.6288,-9.6288,-9.6288,-9.6288,-9.6288,-9.6749,-9.7134,-9.7134,-9.7634,-9.8057,-9.8057,-9.8057,-9.7904,-9.7557,-9.6788,-9.6288,-9.6288,-9.6288,-9.6288,-9.6288,-9.6288,-9.6288,-9.6288,-9.6288,-9.6288,-9.6288,-9.6288,-9.6288,-9.6288,-9.6288,-9.6288,-9.6288,-9.6288,-9.6288,-9.6288,-9.6288,-9.6288,-6.1512,-6.5436,-7.0667,-7.4707,-8.2093,-9.0556,-9.8942,-10.2404,-10.5713,-11.2214,-11.0906,-10.8598,-10.8521,-10.8983,-10.9406,-10.9213,-11.2214,-11.4984,-11.6292,-11.6176,-11.5984,-11.5984,-11.5291,-11.4484,-11.3907,-11.3291,-11.2214,-11.0098,-10.9713,-10.8406,-10.602,-10.4905,-10.3405,-10.1404,-10.0712,-9.9673,-9.8288,-9.8288,-9.7865,-9.7019,-9.7019,-9.7019,-9.7019,-9.7019,-9.6749,-9.6288,-9.5942,-9.598,-9.6288,-9.5942,-9.598,-9.6288,-9.6288,-9.6288,-9.6288,-9.6288,-9.6288,-9.6288,-9.6288,-9.6288,-9.6288,-9.6288,-9.6288,-9.6288,-9.6288,-9.6288,-9.6288,-9.6288,-9.6288,-9.6288,-9.6288,-9.6288,-9.6288,-9.6288,-9.6288,-9.6288,-9.6288,-9.6288,-9.6288,-9.6288,-9.6942,-9.7519,-9.7519,-9.8211,-9.8788,-9.8788,-9.8788,-9.8365,-9.7173,-9.6865,-9.6634,-9.6326,-9.6288,-9.6288,-9.6288,-9.6288,-9.6288,-9.6288,-9.6288,-9.6288,-9.6288,-9.6288,-9.6288,-9.6288,-9.6288,-9.6288,-9.6288,-9.6288,-9.6288,-9.6288,-9.6288,-9.6288,-6.5436,-6.7936,-7.2091,-7.9592,-8.467,-9.0748,-10.1789,-10.8098,-11.2406,-11.5407,-11.3176,-11.0983,-11.1598,-11.1098,-11.0906,-11.1522,-11.3599,-11.5407,-11.6176,-11.5599,-11.5176,-11.5099,-11.4291,-11.3099,-11.1406,-11.1214,-11.0098,-10.7598,-10.6713,-10.579,-10.4789,-10.2597,-10.1212,-10.1019,-9.9481,-9.825,-9.7403,-9.7403,-9.7019,-9.6288,-9.6288,-9.6288,-9.6288,-9.6288,-9.6249,-9.6134,-9.5326,-9.5403,-9.6019,-9.5211,-9.5403,-9.6172,-9.6172,-9.6249,-9.6288,-9.6288,-9.6288,-9.6288,-9.6288,-9.6288,-9.6288,-9.6288,-9.6288,-9.6288,-9.6288,-9.6288,-9.6288,-9.6288,-9.6288,-9.6288,-9.6288,-9.6288,-9.6288,-9.6288,-9.6288,-9.6288,-9.6288,-9.6288,-9.6288,-9.6288,-9.6942,-9.7519,-9.7596,-9.8327,-9.8904,-9.8904,-9.8788,-9.8134,-9.6596,-9.698,-9.7134,-9.648,-9.6326,-9.6326,-9.6403,-9.6326,-9.6288,-9.6288,-9.6288,-9.6288,-9.6288,-9.6288,-9.6288,-9.6288,-9.6288,-9.6288,-9.6288,-9.6288,-9.6288,-9.6288,-9.6288,-9.6288,-6.382,-6.9129,-7.6169,-8.2516,-9.2633,-10.2212,-10.679,-10.9713,-11.1714,-11.2406,-11.3907,-11.4791,-11.3714,-11.3907,-11.3791,-11.2599,-11.3483,-11.4291,-11.4484,-11.4407,-11.3984,-11.3291,-11.2522,-11.1406,-10.9598,-10.8906,-10.7713,-10.579,-10.5482,-10.4405,-10.2212,-10.1597,-10.0404,-9.8365,-9.798,-9.7403,-9.6557,-9.6557,-9.648,-9.6288,-9.6288,-9.6288,-9.6288,-9.6288,-9.5942,-9.5249,-9.5057,-9.4711,-9.4249,-9.4057,-9.448,-9.5288,-9.5288,-9.5711,-9.6288,-9.6288,-9.6288,-9.6288,-9.6288,-9.6288,-9.6288,-9.6288,-9.6288,-9.6288,-9.6288,-9.6288,-9.6288,-9.6288,-9.6288,-9.6288,-9.6288,-9.6288,-9.6288,-9.6288,-9.6288,-9.6288,-9.6288,-9.6288,-9.6288,-9.6288,-9.6942,-9.7711,-9.8404,-9.925,-9.9827,-9.9827,-9.8673,-9.7634,-9.7288,-9.6826,-9.6749,-9.7211,-9.6673,-9.6557,-9.7211,-9.6673,-9.6288,-9.6288,-9.6288,-9.6288,-9.6288,-9.6288,-9.6288,-9.6288,-9.6288,-9.6288,-9.6288,-9.6288,-9.6288,-9.6288,-9.6288,-9.6288,-6.6167,-7.1975,-7.94,-8.8632,-9.8404,-10.6213,-10.7905,-11.0021,-11.1522,-11.1522,-11.3214,-11.4407,-11.3483,-11.4099,-11.4214,-11.2906,-11.3099,-11.3407,-11.3407,-11.2714,-11.1906,-11.0983,-11.0214,-10.8983,-10.7213,-10.6405,-10.5213,-10.3405,-10.2904,-10.1904,-10.0212,-9.9712,-9.8865,-9.7557,-9.7134,-9.6519,-9.5672,-9.5672,-9.548,-9.5057,-9.5057,-9.5057,-9.5057,-9.548,-9.5211,-9.4364,-9.398,-9.3749,-9.3672,-9.3287,-9.3633,-9.4364,-9.4364,-9.4903,-9.5672,-9.5672,-9.5942,-9.6288,-9.6288,-9.6288,-9.6288,-9.6288,-9.6288,-9.6288,-9.6288,-9.6288,-9.6288,-9.6288,-9.6288,-9.6288,-9.6288,-9.6288,-9.6288,-9.6288,-9.6288,-9.6288,-9.6288,-9.6288,-9.6288,-9.6288,-9.6942,-9.7634,-9.8096,-9.8904,-9.9327,-9.8904,-9.8096,-9.7365,-9.698,-9.6903,-9.7057,-9.7442,-9.7134,-9.7057,-9.7442,-9.6749,-9.6288,-9.6288,-9.6288,-9.6288,-9.6288,-9.6288,-9.6288,-9.6288,-9.6288,-9.6288,-9.6288,-9.6288,-9.6288,-9.6288,-9.6288,-9.6288,-6.8898,-7.5476,-8.3439,-9.4864,-10.202,-10.6405,-10.7482,-10.9406,-11.1098,-11.1098,-11.1906,-11.2714,-11.2522,-11.2983,-11.3099,-11.2214,-11.1906,-11.1791,-11.1791,-11.0483,-10.9213,-10.829,-10.7713,-10.6597,-10.4789,-10.3905,-10.2789,-10.1212,-10.0289,-9.9481,-9.8634,-9.7904,-9.7365,-9.7096,-9.6403,-9.5672,-9.4788,-9.4788,-9.4403,-9.371,-9.371,-9.3633,-9.3518,-9.4249,-9.4172,-9.3441,-9.2787,-9.2787,-9.321,-9.2556,-9.2749,-9.348,-9.348,-9.4018,-9.4788,-9.4788,-9.5326,-9.6095,-9.6095,-9.6172,-9.6288,-9.6288,-9.6288,-9.6288,-9.6288,-9.6288,-9.6288,-9.6288,-9.6288,-9.6288,-9.6288,-9.6288,-9.6288,-9.6288,-9.6288,-9.6288,-9.6288,-9.6288,-9.6288,-9.6288,-9.7057,-9.7788,-9.7904,-9.8557,-9.8788,-9.8057,-9.7827,-9.748,-9.6826,-9.7326,-9.7788,-9.7942,-9.7673,-9.7557,-9.7711,-9.6865,-9.6288,-9.6288,-9.6288,-9.6288,-9.6288,-9.6288,-9.6288,-9.6288,-9.6288,-9.6288,-9.6288,-9.6288,-9.6288,-9.6288,-9.6288,-9.6288,-6.7321,-7.89,-9.0979,-9.7096,-10.1981,-10.5713,-10.729,-10.8482,-10.9213,-10.9213,-11.1098,-11.2522,-11.1791,-11.1098,-11.0406,-10.9483,-10.879,-10.8406,-10.8406,-10.7521,-10.6597,-10.5713,-10.5482,-10.4789,-10.3097,-10.2212,-10.1289,-10.0289,-9.9442,-9.8596,-9.7711,-9.7557,-9.6826,-9.5365,-9.5211,-9.4749,-9.3864,-9.3864,-9.3826,-9.371,-9.371,-9.3326,-9.2672,-9.2787,-9.2749,-9.2633,-9.2556,-9.2133,-9.1518,-9.1441,-9.1864,-9.2672,-9.2672,-9.3172,-9.3864,-9.3864,-9.4441,-9.5172,-9.5172,-9.5672,-9.6288,-9.6288,-9.6288,-9.6288,-9.6288,-9.6288,-9.6288,-9.6288,-9.6288,-9.6288,-9.6288,-9.6288,-9.6288,-9.6288,-9.6288,-9.6288,-9.6288,-9.6288,-9.6288,-9.6288,-9.7557,-9.8865,-9.9596,-9.9827,-9.9865,-9.975,-9.9096,-9.8596,-9.8481,-9.8557,-9.8904,-9.9673,-9.8404,-9.7827,-9.8557,-9.7211,-9.6288,-9.6288,-9.6288,-9.6288,-9.6288,-9.6288,-9.6288,-9.6288,-9.6288,-9.6288,-9.6288,-9.6288,-9.6288,-9.6288,-9.6288,-9.6288,-7.0706,-8.1054,-9.0748,-9.7788,-10.1289,-10.3405,-10.5213,-10.6213,-10.679,-10.679,-10.7713,-10.8598,-10.929,-10.9098,-10.8482,-10.7598,-10.679,-10.6213,-10.6213,-10.5482,-10.4482,-10.3097,-10.2981,-10.2289,-10.0596,-9.9673,-9.9019,-9.8673,-9.7865,-9.7019,-9.6134,-9.6095,-9.5518,-9.4287,-9.4249,-9.3633,-9.2326,-9.2287,-9.2056,-9.1595,-9.2056,-9.2095,-9.1787,-9.1787,-9.1787,-9.1787,-9.1787,-9.1556,-9.121,-9.121,-9.1441,-9.1787,-9.1787,-9.2287,-9.3018,-9.3018,-9.3864,-9.498,-9.498,-9.5557,-9.6288,-9.6288,-9.6288,-9.6288,-9.6288,-9.6288,-9.6288,-9.6288,-9.6288,-9.6288,-9.6288,-9.6288,-9.6288,-9.6288,-9.6288,-9.6288,-9.6288,-9.6288,-9.6288,-9.6288,-9.6903,-9.7519,-9.7904,-9.8327,-9.8634,-9.8634,-9.8711,-9.8788,-9.8788,-9.9211,-9.9673,-10.0115,-9.9404,-9.8904,-9.8788,-9.7673,-9.698,-9.698,-9.698,-9.7211,-9.7673,-9.725,-9.698,-9.698,-9.6519,-9.6288,-9.6288,-9.6288,-9.6288,-9.6288,-9.6288,-9.6288,-7.086,-7.8861,-8.6094,-9.421,-9.7673,-9.9788,-10.2597,-10.3905,-10.4482,-10.4482,-10.4482,-10.4713,-10.5597,-10.629,-10.6405,-10.5597,-10.4713,-10.4097,-10.3905,-10.3097,-10.2097,-10.0789,-10.0712,-10.0212,-9.8904,-9.8019,-9.7519,-9.7519,-9.6557,-9.5672,-9.5018,-9.4788,-9.4172,-9.3095,-9.3287,-9.2479,-9.0594,-9.0556,-9.0248,-8.9594,-9.0248,-9.0556,-9.0556,-9.0556,-9.0671,-9.0902,-9.1095,-9.121,-9.121,-9.121,-9.121,-9.121,-9.121,-9.1595,-9.2172,-9.2172,-9.321,-9.4672,-9.4672,-9.5403,-9.6288,-9.6288,-9.6288,-9.6288,-9.6288,-9.6288,-9.6288,-9.6288,-9.6288,-9.6288,-9.6288,-9.6288,-9.6288,-9.6288,-9.6288,-9.6288,-9.6288,-9.6288,-9.6365,-9.6557,-9.6596,-9.6749,-9.7173,-9.775,-9.8211,-9.8442,-9.9019,-9.9442,-9.9442,-9.9981,-10.0404,-10.0404,-10.0212,-9.9827,-9.9173,-9.8327,-9.7827,-9.7827,-9.7827,-9.8019,-9.8442,-9.7865,-9.7403,-9.7211,-9.6596,-9.6288,-9.6288,-9.6288,-9.6288,-9.6288,-9.6288,-9.6288,-6.3397,-6.959,-7.7015,-8.3978,-8.9363,-9.4441,-10.0096,-10.2097,-10.2712,-10.2712,-10.2712,-10.2289,-10.0789,-10.2481,-10.3789,-10.2904,-10.2097,-10.1212,-10.0481,-9.9596,-9.9019,-9.8942,-9.8942,-9.8904,-9.8788,-9.8019,-9.7519,-9.7519,-9.598,-9.5057,-9.498,-9.421,-9.3018,-9.1364,-9.2133,-9.1364,-8.8825,-8.8825,-8.8786,-8.8748,-8.8786,-8.8825,-8.8825,-8.8825,-8.9248,-9.0017,-9.0825,-9.121,-9.121,-9.121,-9.121,-9.121,-9.121,-9.1248,-9.1287,-9.1287,-9.2326,-9.3749,-9.3749,-9.4864,-9.6288,-9.6288,-9.6288,-9.6288,-9.6288,-9.6288,-9.6288,-9.6288,-9.6288,-9.6288,-9.6288,-9.6288,-9.6288,-9.6288,-9.6288,-9.6288,-9.6288,-9.6288,-9.6519,-9.7288,-9.7442,-9.7942,-9.9596,-9.9942,-10.0212,-10.1019,-10.1096,-10.1212,-10.1212,-10.1212,-10.1212,-10.1212,-10.0596,-10.0096,-9.9981,-9.9211,-9.8711,-9.8711,-9.8711,-9.8365,-9.7596,-9.7519,-9.7134,-9.6365,-9.6326,-9.6288,-9.6288,-9.6288,-9.6288,-9.6288,-9.6288,-9.6288,-6.4051,-6.7744,-7.2283,-7.9092,-8.4247,-8.8594,-9.2364,-9.6365,-9.9327,-9.9327,-9.9788,-9.9981,-9.9365,-10.0481,-10.1212,-10.0289,-9.9904,-9.9596,-9.9288,-9.8981,-9.8596,-9.8019,-9.798,-9.7557,-9.648,-9.6596,-9.6288,-9.5134,-9.5018,-9.4287,-9.2633,-9.2287,-9.1325,-8.9633,-8.9902,-8.9363,-8.7863,-8.7863,-8.7863,-8.7863,-8.844,-8.8709,-8.8709,-8.8709,-8.9133,-8.994,-9.0248,-9.0671,-9.121,-9.121,-9.121,-9.121,-9.121,-9.121,-9.121,-9.121,-9.2249,-9.371,-9.371,-9.4826,-9.6288,-9.6288,-9.6288,-9.6288,-9.6288,-9.6288,-9.6288,-9.6288,-9.6288,-9.6288,-9.6288,-9.6288,-9.6442,-9.6942,-9.748,-9.7904,-9.7904,-9.748,-9.7326,-9.8173,-9.8327,-9.8519,-9.9173,-9.9712,-10.0173,-10.0481,-10.1019,-10.1289,-10.1289,-10.1289,-10.1289,-10.1289,-10.1019,-10.0712,-10.0096,-9.9788,-9.9635,-9.9635,-9.9635,-9.9481,-9.9173,-9.9173,-9.8519,-9.7096,-9.7057,-9.6826,-9.6288,-9.6288,-9.6288,-9.6288,-9.6288,-9.6288,-6.2743,-6.4589,-6.7475,-7.4245,-7.7669,-8.1016,-8.7248,-9.1287,-9.4172,-9.5865,-9.7134,-9.7942,-9.7942,-9.8173,-9.8365,-9.8365,-9.8365,-9.825,-9.798,-9.7942,-9.7634,-9.6749,-9.6673,-9.6095,-9.4711,-9.5095,-9.4941,-9.3787,-9.371,-9.2979,-9.1287,-9.0671,-8.9863,-8.8748,-8.8132,-8.7671,-8.7401,-8.7094,-8.6978,-8.6978,-8.7555,-8.7825,-8.7825,-8.7825,-8.844,-8.9479,-8.921,-8.971,-9.0787,-9.1095,-9.1018,-9.0787,-9.1095,-9.121,-9.121,-9.121,-9.2095,-9.3326,-9.3595,-9.4634,-9.5903,-9.6211,-9.6288,-9.6288,-9.6288,-9.6288,-9.6288,-9.6288,-9.6288,-9.6365,-9.6634,-9.6903,-9.7288,-9.7827,-9.8365,-9.8865,-9.9173,-9.8557,-9.8096,-9.8673,-9.8788,-9.8904,-9.9173,-9.9712,-10.0173,-10.0481,-10.0981,-10.1289,-10.1289,-10.1289,-10.1289,-10.1289,-10.1289,-10.1096,-10.0481,-10.0481,-10.0481,-10.0481,-10.0481,-10.0404,-10.0096,-10.0096,-9.9288,-9.7519,-9.7519,-9.7096,-9.6288,-9.6288,-9.6288,-9.6288,-9.6288,-9.6288,0.0,0.0,0.0,-6.8936,-6.9436,-7.1783,-8.5016,-8.6901,-8.7286,-9.2326,-9.4826,-9.6095,-9.6134,-9.548,-9.5441,-9.7057,-9.7365,-9.7134,-9.6326,-9.6211,-9.5903,-9.5057,-9.496,-9.4595,-9.371,-9.3672,-9.3672,-9.3557,-9.2095,-9.1171,-9.1095,-8.9517,-8.8632,-8.8632,-8.6978,-8.6517,-8.7363,-8.6517,-8.6094,-8.6094,-8.6094,-8.6094,-8.6094,-8.6094,-8.7055,-8.8594,-8.7786,-8.8325,-8.9902,-9.0787,-9.0671,-8.9979,-9.0864,-9.121,-9.121,-9.1248,-9.1787,-9.2633,-9.3441,-9.4287,-9.5134,-9.6019,-9.6288,-9.6288,-9.6288,-9.6288,-9.6288,-9.6288,-9.6326,-9.6519,-9.7326,-9.8173,-9.8827,-9.8827,-9.8865,-9.9096,-9.9942,-9.9481,-9.8865,-9.8865,-9.8865,-9.9135,-9.9981,-10.0096,-10.0404,-10.1212,-10.1289,-10.1289,-10.1289,-10.1289,-10.1289,-10.1289,-10.1289,-10.1289,-10.1289,-10.1289,-10.1289,-10.1289,-10.1289,-10.0904,-10.0096,-10.0096,-9.9327,-9.7557,-9.7557,-9.7134,-9.6326,-9.6326,-9.6288,-9.6288,-9.6288,-9.6288,-6.0242,0.0,0.0,0.0,0.0,0.0,-7.136,-7.6553,-8.1516,-8.4786,-8.8325,-9.1171,-9.2402,-9.2941,-9.3133,-9.2979,-9.3941,-9.4672,-9.4441,-9.4403,-9.4326,-9.4095,-9.4057,-9.348,-9.2018,-9.2979,-9.2672,-9.0248,-9.0787,-9.0402,-8.8556,-8.7401,-8.6824,-8.6824,-8.6363,-8.6209,-8.6478,-8.6209,-8.6094,-8.6094,-8.6094,-8.6094,-8.6094,-8.6094,-8.6709,-8.7748,-8.7517,-8.7671,-8.8209,-8.9671,-9.0133,-8.9979,-9.0864,-9.121,-9.1287,-9.1902,-9.2287,-9.271,-9.4134,-9.4788,-9.5134,-9.6019,-9.6288,-9.6288,-9.6288,-9.6288,-9.6288,-9.6288,-9.6711,-9.7365,-9.8211,-9.9096,-9.975,-9.975,-10.0212,-10.0712,-10.0904,-10.0789,-10.0596,-10.0596,-10.0596,-10.0712,-10.0904,-10.1019,-10.1019,-10.1289,-10.1289,-10.1289,-10.1289,-10.1289,-10.1289,-10.1289,-10.1289,-10.1289,-10.1289,-10.1289,-10.1289,-10.1289,-10.1289,-10.0904,-10.0096,-10.0712,-10.0212,-9.8481,-9.8442,-9.8019,-9.7173,-9.6596,-9.6288,-9.6288,-9.6288,-9.6288,-6.2589,-6.1743,-6.1281,-6.1973,0.0,0.0,-6.7628,-7.1514,-7.5707,-8.0746,-8.4324,-8.7209,-8.9248,-8.9748,-8.9787,-8.9633,-9.0441,-9.1441,-9.2518,-9.2672,-9.2518,-9.2172,-9.2095,-9.1595,-9.0287,-9.1018,-9.0787,-8.8825,-8.9286,-8.8671,-8.6478,-8.5901,-8.544,-8.5055,-8.5055,-8.5247,-8.5593,-8.5593,-8.5786,-8.6094,-8.6094,-8.6094,-8.6094,-8.6094,-8.6594,-8.7363,-8.7017,-8.7055,-8.7478,-8.844,-8.9056,-8.9479,-9.0325,-9.0902,-9.1248,-9.1787,-9.1979,-9.2133,-9.348,-9.3941,-9.4172,-9.5365,-9.5749,-9.5826,-9.6172,-9.6288,-9.6288,-9.6288,-9.7134,-9.825,-9.9096,-9.9981,-10.0596,-10.0596,-10.0981,-10.1289,-10.1289,-10.1289,-10.1289,-10.1289,-10.1289,-10.1289,-10.1289,-10.1289,-10.1289,-10.1289,-10.1289,-10.1289,-10.1289,-10.1289,-10.1289,-10.1289,-10.1289,-10.1289,-10.1289,-10.1289,-10.1289,-10.1289,-10.1289,-10.1096,-10.0596,-10.1096,-10.0712,-9.9365,-9.9327,-9.8904,-9.8057,-9.6865,-9.648,-9.6788,-9.6788,-9.7019,-6.5474,-6.4474,-6.4166,-6.5436,-6.2474,0.0,-6.8898,-6.9283,-7.009,-7.7592,-8.0592,-8.267,-8.5132,-8.517,-8.5016,-8.5478,-8.6132,-8.7555,-9.0364,-9.0787,-9.0517,-8.9863,-8.9594,-8.9248,-8.8632,-8.8479,-8.8363,-8.8286,-8.7478,-8.6363,-8.4978,-8.4824,-8.4401,-8.3632,-8.3593,-8.3978,-8.4747,-8.4863,-8.5247,-8.5978,-8.6055,-8.6094,-8.6094,-8.6094,-8.6517,-8.7209,-8.644,-8.6555,-8.7248,-8.7248,-8.7825,-8.8786,-8.9594,-9.0441,-9.121,-9.1325,-9.1287,-9.1364,-9.2402,-9.2672,-9.2787,-9.4557,-9.5057,-9.5172,-9.6057,-9.6288,-9.6326,-9.6519,-9.7634,-9.9019,-9.9981,-10.0789,-10.1289,-10.1289,-10.1289,-10.1289,-10.1289,-10.1289,-10.1289,-10.1289,-10.1289,-10.1289,-10.1289,-10.1289,-10.1289,-10.1289,-10.1289,-10.1289,-10.1289,-10.1289,-10.1289,-10.1289,-10.1289,-10.1289,-10.1289,-10.1289,-10.1289,-10.1289,-10.1289,-10.1289,-10.1289,-10.1289,-10.1019,-10.0212,-10.0096,-9.9673,-9.8788,-9.7288,-9.6942,-9.7634,-9.7634,-9.8057,-6.8129,-6.7552,-6.7,-6.5282,-6.5128,0.0,-6.1666,-6.3281,-6.5628,-6.659,-6.9206,-7.1937,-7.3783,-7.5668,-7.6322,-7.4437,-7.8169,-8.2901,-8.7478,-8.8132,-8.8325,-8.8863,-8.7709,-8.7055,-8.7594,-8.7017,-8.6324,-8.5709,-8.4824,-8.4478,-8.4901,-8.4247,-8.3785,-8.3593,-8.3593,-8.367,-8.3862,-8.4555,-8.4978,-8.5132,-8.5786,-8.6094,-8.6094,-8.6094,-8.6209,-8.6324,-8.617,-8.6209,-8.6363,-8.6363,-8.7286,-8.8786,-8.9594,-9.0441,-9.1287,-9.1979,-9.1787,-9.1518,-9.3749,-9.3633,-9.2903,-9.5288,-9.5557,-9.5172,-9.6057,-9.6288,-9.6596,-9.7942,-9.8557,-9.9135,-10.0712,-10.1212,-10.1289,-10.1289,-10.1289,-10.1289,-10.1289,-10.1289,-10.1289,-10.1289,-10.1289,-10.1289,-10.1289,-10.1289,-10.1289,-10.1289,-10.1289,-10.1289,-10.1289,-10.1289,-10.1289,-10.1289,-10.1289,-10.1289,-10.1289,-10.1289,-10.1289,-10.1289,-10.1289,-10.1289,-10.1289,-10.1289,-10.1212,-10.1096,-10.0404,-9.9673,-9.8788,-9.8481,-9.8404,-9.8557,-9.8557,-9.8634,-6.986,-6.8744,-6.809,-6.6821,-6.6167,0.0,0.0,-6.2435,-6.3705,-6.4936,-6.5897,-6.7282,-6.9821,-7.0629,-7.1052,-7.1475,-7.4437,-7.813,-8.2362,-8.4439,-8.567,-8.6094,-8.5401,-8.5016,-8.544,-8.5093,-8.467,-8.4286,-8.3862,-8.3593,-8.3593,-8.317,-8.2747,-8.2362,-8.2362,-8.2554,-8.2939,-8.3824,-8.4478,-8.4901,-8.5709,-8.6094,-8.6094,-8.6094,-8.6094,-8.6094,-8.6094,-8.6094,-8.6094,-8.6094,-8.7132,-8.8748,-8.9133,-9.0094,-9.1248,-9.171,-9.1595,-9.1364,-9.2672,-9.2826,-9.2787,-9.4441,-9.498,-9.5172,-9.6057,-9.6288,-9.6634,-9.8327,-9.8788,-9.9173,-10.0904,-10.1289,-10.1289,-10.1289,-10.1289,-10.1289,-10.1289,-10.1289,-10.1289,-10.1289,-10.1289,-10.1289,-10.1289,-10.1289,-10.1289,-10.1289,-10.1289,-10.1289,-10.1289,-10.1289,-10.1289,-10.1289,-10.1289,-10.1289,-10.1289,-10.1289,-10.1289,-10.1289,-10.1289,-10.1289,-10.1289,-10.1289,-10.1289,-10.1289,-10.0904,-10.0481,-10.0019,-10.0019,-9.9827,-9.9442,-9.9442,-9.9673,-7.2052,-7.0629,-7.009,-6.8936,-6.7705,-6.6359,0.0,0.0,0.0,-6.4974,-6.4051,-6.3743,-6.6513,-6.6128,-6.6128,-6.8398,-7.0744,-7.3024,-7.5118,-7.8653,-8.1606,-8.317,-8.2631,-8.2516,-8.3478,-8.317,-8.2978,-8.3324,-8.2901,-8.2516,-8.2324,-8.2131,-8.1785,-8.1131,-8.1093,-8.14,-8.2054,-8.2901,-8.3785,-8.467,-8.5478,-8.5863,-8.5863,-8.5863,-8.5863,-8.5863,-8.5863,-8.5978,-8.6094,-8.6094,-8.7132,-8.8709,-8.8709,-8.971,-9.121,-9.121,-9.121,-9.121,-9.1402,-9.1787,-9.2441,-9.3595,-9.4518,-9.5365,-9.6095,-9.6288,-9.6634,-9.8327,-9.8788,-9.9173,-10.0904,-10.1212,-10.1096,-10.1096,-10.1096,-10.1096,-10.1096,-10.1212,-10.1289,-10.1289,-10.1289,-10.1289,-10.1289,-10.1289,-10.1289,-10.1289,-10.1289,-10.1289,-10.1289,-10.1289,-10.1289,-10.1289,-10.1289,-10.1289,-10.1289,-10.1289,-10.1289,-10.1289,-10.1289,-10.1289,-10.1289,-10.1289,-10.1289,-10.1289,-10.152,-10.152,-10.1289,-10.152,-10.1096,-10.0289,-10.0289,-10.0712,-7.6438,-7.6284,-7.6092,-7.086,-7.2168,-7.2745,-6.5166,0.0,-6.2435,-5.9819,0.0,-5.6819,-5.7203,0.0,0.0,-5.6819,-6.2858,-6.7022,-6.4726,-6.8677,-7.444,-8.16,-7.9131,-7.8631,-8.317,-8.1554,-8.0862,-8.2324,-8.0362,-8.0015,-8.217,-8.1631,-8.1208,-8.1093,-8.1093,-8.1131,-8.1246,-8.2054,-8.2901,-8.3747,-8.4632,-8.5055,-8.5055,-8.5055,-8.5055,-8.5055,-8.5055,-8.544,-8.6094,-8.6094,-8.7132,-8.8709,-8.8709,-8.971,-9.121,-9.121,-9.121,-9.1325,-9.2095,-9.1902,-9.1748,-9.4095,-9.5441,-9.6172,-9.6288,-9.6288,-9.6634,-9.8327,-9.8788,-9.9173,-10.0904,-10.0789,-10.0212,-10.0212,-10.0212,-10.0212,-10.0212,-10.0789,-10.1289,-10.1289,-10.1289,-10.1289,-10.1289,-10.1289,-10.1289,-10.1289,-10.1289,-10.1289,-10.1289,-10.1289,-10.1289,-10.1289,-10.1289,-10.1289,-10.1289,-10.1289,-10.1289,-10.1289,-10.1289,-10.1289,-10.1289,-10.1289,-10.1289,-10.1289,-10.2097,-10.2097,-10.1289,-10.2097,-10.202,-10.1212,-10.1212,-10.1212,-7.8054,-7.8361,-7.8823,-7.386,-7.4322,-7.4168,-6.7128,-6.4743,-6.3512,-6.1589,0.0,0.0,0.0,0.0,0.0,0.0,-6.0311,-6.2721,-6.2768,-6.4558,-6.8133,-7.4153,-7.2597,-7.2537,-7.6424,-7.698,-7.7549,-7.8577,-7.8273,-7.8623,-8.0015,-8.0746,-8.1093,-8.1093,-8.1093,-8.1093,-8.1093,-8.19,-8.2477,-8.2862,-8.4247,-8.4901,-8.4901,-8.4901,-8.517,-8.5555,-8.5093,-8.5363,-8.6094,-8.6094,-8.7132,-8.8709,-8.8709,-8.971,-9.121,-9.121,-9.121,-9.1248,-9.1633,-9.2133,-9.2979,-9.5095,-9.6019,-9.6288,-9.6288,-9.6288,-9.6634,-9.8327,-9.8788,-9.9173,-10.0904,-10.1019,-10.0789,-10.0789,-10.0789,-10.0789,-10.0789,-10.1096,-10.1289,-10.1289,-10.1289,-10.1289,-10.1289,-10.1289,-10.1289,-10.1289,-10.1289,-10.1289,-10.1289,-10.1289,-10.1289,-10.1289,-10.1289,-10.1289,-10.1289,-10.1289,-10.1289,-10.1289,-10.1289,-10.1289,-10.1289,-10.1289,-10.1289,-10.1289,-10.2212,-10.2212,-10.1289,-10.2212,-10.2212,-10.1289,-10.1289,-10.1289,-8.1323,-8.1246,-8.1323,-7.6592,-7.5707,-7.4514,-6.8744,-6.6705,-6.5667,-6.4589,-6.2858,0.0,0.0,0.0,-5.8796,-5.901,0.0,-6.0431,-6.1109,-6.1157,-6.2873,-6.7692,-6.7972,-6.8697,-7.1085,-7.2359,-7.3628,-7.5088,-7.5468,-7.6386,-7.8077,-7.9592,-8.0592,-8.1093,-8.1093,-8.1093,-8.1093,-8.167,-8.2093,-8.2324,-8.3824,-8.4439,-8.4209,-8.4439,-8.4863,-8.5363,-8.4786,-8.5132,-8.6094,-8.6094,-8.6978,-8.8325,-8.8325,-8.9363,-9.0864,-9.1133,-9.121,-9.121,-9.121,-9.2287,-9.3941,-9.5441,-9.6095,-9.6288,-9.6288,-9.6442,-9.6942,-9.8404,-9.8981,-9.9481,-10.0904,-10.1096,-10.1019,-10.1019,-10.1019,-10.1019,-10.1019,-10.1096,-10.1289,-10.1289,-10.1289,-10.1289,-10.1289,-10.1289,-10.1289,-10.1289,-10.1289,-10.1289,-10.1289,-10.1289,-10.1289,-10.1289,-10.1289,-10.1289,-10.1289,-10.1289,-10.1289,-10.1289,-10.1289,-10.1289,-10.1289,-10.152,-10.1712,-10.1712,-10.2712,-10.2712,-10.1712,-10.252,-10.2404,-10.1289,-10.1289,-10.1289,-8.8017,-8.6517,-8.4555,-7.8669,-7.6592,-7.4668,-6.9552,-6.8975,-6.9052,-6.7321,-6.6898,-6.6359,-6.4782,-6.3743,-6.2038,-5.8846,-6.0301,0.0,0.0,-5.699,-5.9008,-6.4481,-6.722,-6.8975,-6.9795,-6.8466,-6.9116,-7.2898,-7.15,-7.2477,-7.7077,-7.813,-7.9361,-8.1054,-8.1093,-8.1093,-8.1093,-8.1131,-8.1516,-8.2324,-8.3208,-8.3208,-8.2401,-8.3247,-8.367,-8.367,-8.3632,-8.4593,-8.6094,-8.6094,-8.6632,-8.744,-8.744,-8.8479,-9.0056,-9.0902,-9.121,-9.121,-9.121,-9.2287,-9.3826,-9.4749,-9.5595,-9.6288,-9.6288,-9.6826,-9.7634,-9.8557,-9.9404,-10.0289,-10.1096,-10.0712,-10.0096,-10.0096,-10.0096,-10.0096,-10.0096,-10.0789,-10.1289,-10.1289,-10.1289,-10.1289,-10.1289,-10.1289,-10.1289,-10.1289,-10.1289,-10.1289,-10.1289,-10.1289,-10.1289,-10.1289,-10.1289,-10.1289,-10.1289,-10.1289,-10.1289,-10.1289,-10.1289,-10.1289,-10.1289,-10.2097,-10.2597,-10.2597,-10.4212,-10.4212,-10.2597,-10.3405,-10.2981,-10.1289,-10.1289,-10.1289,-8.9671,-9.0056,-8.9325,-8.1708,-8.0439,-7.9092,-7.1745,-7.1168,-7.1898,-7.0706,-7.0014,-6.9283,-6.8167,-6.5897,-6.3411,-6.1057,-6.0393,-5.9265,0.0,-5.5355,-5.5714,-5.8435,-6.1706,-6.3313,-6.2233,-6.5067,-6.7043,-6.727,-6.9594,-7.1684,-7.3308,-7.6647,-7.8599,-7.8832,-8.0312,-8.1093,-8.1093,-8.1093,-8.1246,-8.1516,-8.2324,-8.2593,-8.2324,-8.2593,-8.3054,-8.3593,-8.3593,-8.4247,-8.5363,-8.5901,-8.6594,-8.7401,-8.7401,-8.844,-8.9923,-9.0248,-9.071,-9.1364,-9.2479,-9.321,-9.3941,-9.5403,-9.6057,-9.6288,-9.6288,-9.648,-9.6865,-9.7711,-9.8557,-9.9442,-10.0289,-10.0712,-10.0904,-10.0904,-10.0904,-10.0904,-10.0904,-10.1096,-10.1289,-10.1289,-10.1289,-10.1289,-10.1289,-10.1289,-10.1289,-10.1289,-10.1289,-10.1289,-10.1289,-10.1289,-10.1289,-10.1289,-10.1289,-10.1289,-10.1289,-10.1789,-10.2212,-10.2212,-10.2212,-10.2404,-10.2981,-10.2712,-10.2904,-10.3405,-10.4482,-10.4597,-10.3482,-10.3789,-10.3597,-10.2981,-10.1789,-10.1289,-9.2979,-9.3133,-9.2249,-8.6209,-8.4593,-8.2747,-7.6053,-7.6092,-7.713,-7.5668,-7.4668,-7.3822,-7.2976,-6.9552,-6.5987,-6.3297,-6.1326,-5.9106,0.0,-5.551,-5.5533,-5.5985,-5.8243,-5.957,-5.9157,-6.1689,-6.3371,-6.3404,-6.6303,-6.8676,-7.0173,-7.462,-7.7408,-7.7952,-8.0005,-8.1093,-8.1093,-8.1093,-8.1093,-8.1093,-8.19,-8.2131,-8.1862,-8.217,-8.2593,-8.3131,-8.3478,-8.4093,-8.4978,-8.5786,-8.644,-8.6978,-8.7286,-8.8248,-8.9517,-8.9787,-9.0671,-9.1864,-9.321,-9.3903,-9.4403,-9.5826,-9.6288,-9.6288,-9.6288,-9.6519,-9.6826,-9.7365,-9.8365,-9.9365,-9.9942,-10.0712,-10.1289,-10.1289,-10.1289,-10.1289,-10.1289,-10.1289,-10.1289,-10.1289,-10.1289,-10.1289,-10.1289,-10.1289,-10.1289,-10.1289,-10.1289,-10.1289,-10.1289,-10.1289,-10.1289,-10.1289,-10.1289,-10.1289,-10.1289,-10.2097,-10.252,-10.2212,-10.2712,-10.3212,-10.3405,-10.3482,-10.4482,-10.6597,-10.5905,-10.579,-10.6097,-10.4597,-10.3712,-10.3405,-10.2289,-10.1789]},{"header":{"parameterUnit":"m.s-1","parameterCategory":1,"la1":30.6,"la2":29.2853,"lo1":-89.7004,"lo2":-87.6739,"dy":0.0162,"dx":0.0183,"nx":112,"ny":82,"refTime":"2023-03-14T18:00:00:Z","depth":0,"parameterNumber":3,"parameterNumberName":"V-component_of_WINDS"},"data":[0.0,0.0,0.0,0.0,0.0,0.0,0.0,0.0,0.0,0.0,0.0,0.0,0.0,0.0,0.0,0.0,0.0,0.0,0.0,0.0,0.0,0.0,0.0,0.0,0.0,0.0,0.0,0.0,0.0,0.0,0.0,0.0,0.0,0.0,0.0,0.0,0.0,0.0,0.0,0.0,0.0,0.0,0.0,0.0,0.0,0.0,0.0,0.0,0.0,0.0,0.0,0.0,0.0,0.0,0.0,0.0,0.0,0.0,0.0,0.0,0.0,0.0,0.0,0.0,0.0,0.0,0.0,0.0,0.0,0.0,0.0,0.0,0.0,0.0,0.0,0.0,0.0,0.0,0.0,0.0,0.0,0.0,0.0,0.0,0.0,0.0,0.0,0.0,0.0,0.0,1.1416,1.2257,1.4496,1.5974,1.6103,1.5622,1.4333,1.2047,0.0,0.0,0.0,0.0,0.0,0.0,0.0,0.0,0.0,0.0,0.0,0.0,0.0,0.0,0.0,0.0,0.0,0.0,0.0,0.0,0.0,0.0,0.0,0.0,0.0,0.0,0.0,0.0,0.0,0.0,0.0,0.0,0.0,0.0,0.0,0.0,0.0,0.0,0.0,0.0,0.0,0.0,0.0,0.0,0.0,0.0,0.0,0.0,0.0,0.0,0.0,0.0,0.0,0.0,0.0,0.0,0.0,0.0,0.0,0.0,0.0,0.0,0.0,0.0,0.0,0.0,0.0,0.0,0.0,0.0,0.0,0.0,0.0,0.0,0.0,0.0,0.0,0.0,0.0,0.0,0.0,0.0,0.0,0.0,0.0,0.0,0.0,0.0,0.0,0.0,0.0,0.0,0.0,0.0,0.0,0.0,0.0,0.0,0.0,0.0,0.0,0.0,0.0,0.0,1.1782,1.4394,1.5615,1.6252,1.6273,1.5398,1.4089,1.2332,0.0,0.0,0.0,0.0,0.0,0.0,0.0,0.0,0.0,0.0,0.0,0.0,0.0,0.0,0.0,0.0,0.0,0.0,0.0,0.0,0.0,0.0,0.0,0.0,0.0,0.0,0.0,0.0,0.0,0.0,0.0,0.0,0.0,0.0,0.0,0.0,0.0,0.0,0.0,0.0,0.0,0.0,0.0,0.0,0.0,0.0,0.0,0.0,0.0,0.0,0.0,0.0,0.0,0.0,0.0,0.0,0.0,0.0,0.0,0.0,0.0,0.0,0.0,0.0,0.0,0.0,0.0,0.0,0.0,0.0,0.0,0.0,0.0,0.0,0.0,0.0,0.0,0.0,0.0,0.0,0.0,0.0,0.0,0.0,0.0,0.0,0.0,0.0,0.0,0.0,0.0,0.0,0.0,0.0,0.0,0.0,0.0,0.0,0.0,0.0,0.0,0.0,0.0,1.1565,1.2712,1.5384,1.6123,1.6395,1.632,1.5493,1.4211,1.2406,1.1504,0.0,0.0,0.0,0.0,0.0,0.0,0.0,0.0,0.0,0.0,0.0,0.0,0.0,0.0,0.0,0.0,0.0,0.0,0.0,0.0,0.0,0.0,0.0,0.0,0.0,0.0,0.0,0.0,0.0,0.0,0.0,0.0,0.0,0.0,0.0,0.0,0.0,0.0,0.0,0.0,0.0,0.0,0.0,0.0,0.0,0.0,0.0,0.0,0.0,0.0,0.0,0.0,0.0,0.0,0.0,0.0,0.0,0.0,0.0,0.0,0.0,0.0,0.0,0.0,0.0,0.0,0.0,0.0,0.0,0.0,0.0,0.0,0.0,0.0,0.0,0.0,0.0,0.0,0.0,0.0,0.0,0.0,0.0,0.0,0.0,0.0,0.0,0.0,0.0,0.0,0.0,0.0,0.0,0.0,0.0,0.0,0.0,0.0,0.0,0.0,0.0,0.0,1.2847,1.3871,1.592,1.6368,1.6463,1.632,1.5452,1.417,1.24,1.1348,0.0,0.0,0.0,0.0,0.0,0.0,0.0,0.0,0.0,0.0,0.0,0.0,0.0,0.0,0.0,0.0,0.0,0.0,0.0,0.0,0.0,0.0,0.0,0.0,0.0,0.0,0.0,0.0,0.0,0.0,0.0,0.0,0.0,0.0,0.0,0.0,0.0,0.0,0.0,0.0,0.0,0.0,0.0,0.0,0.0,0.0,0.0,0.0,0.0,0.0,0.0,0.0,0.0,0.0,0.0,0.0,0.0,0.0,0.0,0.0,0.0,0.0,0.0,0.0,0.0,0.0,0.0,0.0,0.0,0.0,0.0,0.0,0.0,0.0,0.0,0.0,0.0,0.0,0.0,0.0,0.0,0.0,0.0,0.0,0.0,0.0,0.0,0.0,0.0,0.0,0.0,0.0,0.0,0.0,0.0,0.0,0.0,0.0,0.0,0.0,0.0,0.0,1.3593,1.5181,1.6185,1.6429,1.6463,1.632,1.4984,1.362,1.2372,1.1056,0.0,0.0,0.0,0.0,0.0,0.0,0.0,0.0,0.0,0.0,0.0,0.0,0.0,0.0,0.0,0.0,0.0,0.0,0.0,0.0,0.0,0.0,0.0,0.0,0.0,0.0,0.0,0.0,0.0,0.0,0.0,0.0,0.0,0.0,0.0,0.0,0.0,0.0,0.0,0.0,0.0,0.0,0.0,0.0,0.0,0.0,0.0,0.0,0.0,0.0,0.0,0.0,0.0,0.0,0.0,0.0,0.0,0.0,0.0,0.0,0.0,0.0,0.0,0.0,0.0,0.0,0.0,0.0,0.0,0.0,0.0,0.0,0.0,0.0,0.0,0.0,0.0,0.0,0.0,0.0,0.0,0.0,0.0,0.0,0.0,0.0,0.0,0.0,0.0,0.0,0.0,0.0,0.0,0.0,0.0,0.0,0.0,0.0,0.0,0.0,0.0,0.0,1.3241,1.4692,1.6157,1.6361,1.6293,1.6049,1.5167,1.3919,1.2257,0.0,0.0,0.0,0.0,0.0,0.0,0.0,0.0,0.0,0.0,0.0,0.0,0.0,0.0,0.0,0.0,0.0,0.0,0.0,0.0,0.0,0.0,0.0,0.0,0.0,0.0,0.0,0.0,0.0,0.0,0.0,0.0,0.0,0.0,0.0,0.0,0.0,0.0,0.0,0.0,0.0,0.0,0.0,0.0,0.0,0.0,0.0,0.0,0.0,0.0,0.0,0.0,0.0,0.0,0.0,0.0,0.0,0.0,0.0,0.0,0.0,0.0,0.0,0.0,0.0,0.0,0.0,0.0,0.0,0.0,0.0,0.0,0.0,0.0,0.0,0.0,0.0,0.0,0.0,0.0,0.0,0.0,0.0,0.0,0.0,0.0,0.0,0.0,0.0,0.0,0.0,0.0,0.0,0.0,0.0,0.0,0.0,0.0,0.0,0.0,0.0,0.0,1.1932,1.3261,1.4638,1.6151,1.6266,1.6117,1.5811,1.5025,1.3817,1.2094,0.0,0.0,0.0,0.0,0.0,0.0,0.0,0.0,0.0,0.0,0.0,0.0,0.0,0.0,0.0,0.0,0.0,0.0,0.0,0.0,0.0,0.0,0.0,0.0,0.0,0.0,0.0,0.0,0.0,0.0,0.0,0.0,0.0,0.0,0.0,0.0,0.0,0.0,0.0,0.0,0.0,0.0,0.0,0.0,0.0,0.0,0.0,0.0,0.0,0.0,0.0,0.0,0.0,0.0,0.0,0.0,0.0,0.0,0.0,0.0,0.0,0.0,0.0,0.0,0.0,0.0,0.0,0.0,0.0,0.0,0.0,0.0,0.0,0.0,0.0,0.0,0.0,0.0,0.0,0.0,0.0,0.0,0.0,0.0,0.0,0.0,0.0,0.0,0.0,0.0,0.0,0.0,0.0,0.0,0.0,0.0,0.0,0.0,0.0,0.0,0.0,0.0,1.2155,1.3858,1.5316,1.6212,1.6171,1.5961,1.5662,1.4407,1.3119,0.0,0.0,0.0,0.0,0.0,0.0,0.0,0.0,0.0,0.0,0.0,0.0,0.0,0.0,0.0,0.0,0.0,0.0,0.0,0.0,0.0,0.0,0.0,0.0,0.0,0.0,0.0,0.0,0.0,0.0,0.0,0.0,0.0,0.0,0.0,0.0,0.0,0.0,0.0,0.0,0.0,0.0,0.0,0.0,0.0,0.0,0.0,0.0,0.0,0.0,0.0,0.0,0.0,0.0,0.0,0.0,0.0,0.0,0.0,0.0,0.0,0.0,0.0,0.0,0.0,0.0,0.0,0.0,0.0,0.0,0.0,0.0,0.0,0.0,0.0,0.0,0.0,0.0,0.0,0.0,0.0,0.0,0.0,0.0,0.0,0.0,0.0,0.0,0.0,0.0,0.0,0.0,0.0,0.0,0.0,0.0,0.0,0.0,0.0,0.0,0.0,0.0,0.0,1.2182,1.3858,1.5276,1.6062,1.611,1.592,1.5513,1.4726,1.3559,1.1932,0.0,0.0,0.0,0.0,0.0,0.0,0.0,0.0,0.0,0.0,0.0,0.0,0.0,0.0,0.0,0.0,0.0,0.0,0.0,0.0,0.0,0.0,0.0,0.0,0.0,0.0,0.0,0.0,0.0,0.0,0.0,0.0,0.0,0.0,0.0,0.0,0.0,0.0,0.0,0.0,0.0,0.0,0.0,0.0,0.0,0.0,0.0,0.0,0.0,0.0,0.0,0.0,0.0,0.0,0.0,0.0,0.0,0.0,0.0,0.0,0.0,0.0,0.0,0.0,0.0,0.0,0.0,0.0,0.0,0.0,0.0,0.0,0.0,0.0,0.0,0.0,0.0,0.0,0.0,0.0,0.0,0.0,0.0,0.0,0.0,0.0,0.0,0.0,0.0,0.0,0.0,0.0,0.0,0.0,0.0,0.0,0.0,0.0,0.0,0.0,0.0,0.0,1.2188,1.3838,1.5187,1.5995,1.6029,1.5832,1.5445,1.4916,1.3865,1.2121,0.0,0.0,0.0,0.0,0.0,0.0,0.0,0.0,0.0,0.0,0.0,0.0,0.0,0.0,0.0,0.0,0.0,0.0,0.0,0.0,0.0,0.0,0.0,0.0,0.0,0.0,0.0,0.0,0.0,0.0,0.0,0.0,0.0,0.0,0.0,0.0,0.0,0.0,0.0,0.0,0.0,0.0,0.0,0.0,0.0,0.0,0.0,0.0,0.0,0.0,0.0,0.0,0.0,0.0,0.0,0.0,0.0,0.0,0.0,0.0,0.0,0.0,0.0,0.0,0.0,0.0,0.0,0.0,0.0,0.0,0.0,0.0,0.0,0.0,0.0,0.0,0.0,0.0,0.0,0.0,0.0,0.0,0.0,0.0,0.0,0.0,0.0,0.0,0.0,0.0,0.0,0.0,0.0,0.0,0.0,0.0,0.0,0.0,0.0,0.0,0.0,0.0,1.2239,1.3844,1.5113,1.5988,1.5947,1.573,1.5438,1.4984,1.4027,1.2413,0.0,0.0,0.0,0.0,0.0,0.0,0.0,0.0,0.0,0.0,0.0,0.0,0.0,0.0,0.0,0.0,0.0,0.0,0.0,0.0,0.0,0.0,0.0,0.0,0.0,0.0,0.0,0.0,0.0,0.0,0.0,0.0,0.0,0.0,0.0,0.0,0.0,0.0,0.0,0.0,0.0,0.0,0.0,0.0,0.0,0.0,0.0,0.0,0.0,0.0,0.0,0.0,0.0,0.0,0.0,0.0,0.0,0.0,0.0,0.0,1.185,1.1436,0.0,0.0,0.0,0.0,0.0,0.0,0.0,0.0,0.0,0.0,0.0,0.0,0.0,0.0,0.0,0.0,0.0,0.0,0.0,0.0,0.0,0.0,0.0,0.0,0.0,0.0,0.0,0.0,0.0,0.0,0.0,0.0,0.0,0.0,0.0,0.0,0.0,0.0,0.0,0.0,1.242,1.4089,1.5343,1.6008,1.5947,1.573,1.5438,1.4889,1.396,1.2549,1.1898,0.0,0.0,0.0,0.0,0.0,0.0,0.0,0.0,0.0,0.0,0.0,0.0,0.0,0.0,0.0,0.0,0.0,0.0,0.0,0.0,0.0,0.0,0.0,0.0,0.0,0.0,0.0,0.0,0.0,0.0,0.0,0.0,0.0,0.0,0.0,0.0,0.0,0.0,0.0,0.0,0.0,0.0,0.0,0.0,0.0,0.0,0.0,0.0,0.0,0.0,0.0,0.0,0.0,0.0,0.0,0.0,0.0,0.0,0.0,1.2868,1.2433,0.0,0.0,0.0,0.0,0.0,0.0,0.0,0.0,0.0,0.0,0.0,0.0,0.0,0.0,0.0,0.0,0.0,0.0,0.0,0.0,0.0,0.0,0.0,0.0,0.0,0.0,0.0,0.0,0.0,0.0,0.0,0.0,0.0,0.0,0.0,0.0,0.0,0.0,0.0,0.0,1.2373,1.3994,1.5201,1.5805,1.5798,1.5655,1.5432,1.4991,1.4251,1.3112,1.2284,0.0,0.0,0.0,0.0,0.0,0.0,0.0,0.0,0.0,0.0,0.0,0.0,0.0,0.0,0.0,0.0,0.0,0.0,0.0,0.0,0.0,0.0,0.0,0.0,0.0,0.0,0.0,0.0,0.0,0.0,0.0,0.0,0.0,0.0,0.0,0.0,0.0,0.0,0.0,0.0,0.0,0.0,0.0,0.0,0.0,0.0,0.0,0.0,0.0,0.0,0.0,0.0,0.0,1.459,1.4746,1.4869,1.4991,1.4997,1.4869,1.4251,1.3804,1.3471,1.2868,0.0,0.0,0.0,0.0,0.0,0.0,0.0,0.0,0.0,0.0,0.0,0.0,0.0,0.0,0.0,0.0,0.0,0.0,0.0,0.0,0.0,0.0,1.166,1.1816,1.2223,1.2311,1.1321,0.0,0.0,0.0,0.0,0.0,0.0,0.0,0.0,0.0,0.0,0.0,1.2424,1.3865,1.5011,1.5615,1.5655,1.5588,1.5459,1.5153,1.4611,1.3763,1.2793,1.1918,0.0,0.0,0.0,0.0,0.0,0.0,0.0,0.0,0.0,0.0,0.0,0.0,0.0,0.0,0.0,0.0,0.0,0.0,0.0,0.0,0.0,0.0,0.0,0.0,0.0,0.0,0.0,0.0,0.0,0.0,0.0,0.0,1.2121,1.2305,0.0,0.0,0.0,0.0,0.0,0.0,0.0,0.0,0.0,0.0,0.0,0.0,0.0,1.4122,1.459,1.5113,1.5459,1.5622,1.6035,1.6239,1.6259,1.6279,1.6347,1.6449,1.6354,0.0,1.3933,1.3336,0.0,0.0,0.0,0.0,0.0,0.0,0.0,0.0,0.0,0.0,0.0,0.0,0.0,0.0,0.0,0.0,0.0,0.0,0.0,0.0,0.0,0.0,1.2589,1.2745,1.2847,1.2854,1.2698,1.1843,1.0805,0.9697,0.9038,0.8341,0.0,0.0,0.0,0.0,0.0,0.0,1.2727,1.4095,1.5167,1.5764,1.5716,1.5628,1.5608,1.5215,1.4699,1.4055,1.339,1.2691,1.1945,1.1321,0.0,0.0,0.0,0.0,0.0,0.0,0.0,0.0,0.0,0.0,0.0,0.0,0.0,0.0,0.0,0.0,0.0,0.0,0.0,0.0,0.0,0.0,0.0,0.0,0.0,0.0,0.0,0.0,0.0,1.2319,1.2745,1.2644,1.2854,1.282,0.0,0.0,0.0,0.0,0.0,0.0,0.0,0.0,0.0,1.4991,1.5215,1.5581,1.611,1.6551,1.6842,1.6992,1.7439,1.7609,1.7534,1.7704,1.7717,1.7629,1.7541,1.6917,1.5872,1.4855,1.4055,1.3431,0.0,0.0,0.0,0.0,1.2569,1.2569,1.3091,1.3166,1.3017,1.2963,0.0,0.0,0.0,0.0,0.0,0.0,0.0,1.1558,1.2176,1.2657,1.3057,1.3376,1.3587,1.3688,1.3607,1.2969,1.2181,1.12,1.0805,1.0295,0.9243,0.9019,0.0,0.0,0.0,1.1841,1.2888,1.3987,1.4882,1.5309,1.5303,1.5262,1.5262,1.5004,1.4658,1.4224,1.3553,1.299,1.2583,1.183,1.1219,0.0,0.0,0.0,0.0,0.0,0.0,0.0,0.0,0.0,0.0,0.0,0.0,0.0,0.0,0.0,0.0,0.0,0.0,0.0,0.0,0.0,0.0,0.0,0.0,0.0,0.0,0.0,0.0,1.2786,1.3376,1.3003,1.3559,1.3675,0.0,0.0,0.0,0.0,0.0,0.0,1.4631,1.5181,1.5811,1.6517,1.6727,1.7093,1.765,1.7914,1.8124,1.8267,1.8599,1.8728,1.8674,1.8884,1.883,1.8531,1.8423,1.8091,1.7548,1.6239,1.5255,1.4536,1.4048,1.3675,1.3451,1.3709,1.3756,1.379,1.4536,1.4658,1.4428,1.417,1.3675,1.3024,1.2162,0.0,0.0,0.0,0.0,1.2128,1.2834,1.3234,1.3566,1.3973,1.4245,1.4373,1.4217,1.3892,1.341,1.2657,1.2332,1.1938,1.1192,1.1063,0.0,1.0907,1.1789,1.2623,1.3071,1.3939,1.4631,1.4936,1.497,1.497,1.497,1.4828,1.4631,1.4373,1.3715,1.3281,1.3139,1.2305,1.1667,1.1287,0.0,0.0,0.0,0.0,0.0,0.0,0.0,0.0,0.0,0.0,0.0,0.0,0.0,0.0,0.0,0.0,0.0,0.0,0.0,0.0,0.0,0.0,0.0,0.0,0.0,0.0,0.0,0.0,0.0,1.3654,1.4733,0.0,0.0,0.0,0.0,1.4638,1.5201,1.5737,1.6171,1.6632,1.7154,1.7758,1.8057,1.8443,1.8905,1.904,1.9203,1.9359,1.9379,1.9468,1.959,1.961,1.9447,1.9149,1.9149,1.8816,1.8179,1.6965,1.6273,1.592,1.5323,1.5167,1.5242,1.4984,1.497,1.5072,1.4991,1.495,1.4977,1.5235,1.4631,1.3736,1.3403,1.2698,0.0,0.0,1.2664,1.303,1.3627,1.4014,1.4319,1.4624,1.4706,1.4679,1.4523,1.4367,1.4034,1.3275,1.2779,1.2379,1.2054,0.0,1.2067,1.1986,1.2522,1.3091,1.3539,1.4129,1.4631,1.4936,1.497,1.497,1.497,1.4828,1.4672,1.4509,1.4068,1.3743,1.36,1.2861,1.2182,1.1606,1.1089,0.0,0.0,0.0,0.0,0.0,0.0,0.0,0.0,0.0,0.0,0.0,0.0,0.0,0.0,0.0,0.0,0.0,0.0,0.0,0.0,0.0,0.0,0.0,0.0,0.0,0.0,0.0,0.0,1.5221,1.6225,0.0,1.5791,1.5995,1.6185,1.6185,1.6822,1.7331,1.7589,1.8036,1.8498,1.9006,1.9135,1.9345,1.9698,1.9746,1.98,1.9875,1.9963,1.9997,1.9942,2.0051,1.9976,1.9786,1.9678,1.9413,1.8993,1.8464,1.7623,1.6632,1.6313,1.6049,1.5839,1.5832,1.5866,1.5927,1.6069,1.5988,1.5771,1.5391,1.4882,1.4346,1.3953,1.3675,1.3546,1.3743,1.3871,1.4055,1.4462,1.4577,1.4611,1.4713,1.4665,1.4577,1.4523,1.4401,1.4217,1.3953,1.3532,1.3105,1.2712,1.2715,1.261,1.2508,1.2922,1.337,1.3722,1.4122,1.4455,1.4652,1.4679,1.4679,1.4679,1.4624,1.4489,1.4245,1.3987,1.3736,1.3492,1.3044,1.2467,1.1769,1.1511,1.0873,0.0,0.0,0.0,0.0,0.0,0.0,0.0,0.0,0.0,0.0,0.0,0.0,0.0,0.0,0.0,0.0,0.0,0.0,0.0,0.0,0.0,0.0,0.0,0.0,0.0,1.5248,1.6402,1.6449,1.7561,1.8036,1.7277,1.748,1.7636,1.7589,1.8124,1.8552,1.8762,1.9094,1.9501,1.9942,1.9963,2.0098,2.0404,2.0349,2.0329,2.0329,2.0383,2.0349,2.0261,2.0349,2.0295,2.0098,1.9997,1.9746,1.9427,1.9325,1.8599,1.7561,1.7358,1.7066,1.6761,1.6761,1.6727,1.6707,1.6849,1.6707,1.6368,1.5811,1.5432,1.512,1.4719,1.4638,1.4685,1.4726,1.4774,1.4862,1.5065,1.5045,1.4964,1.4964,1.4814,1.4652,1.4597,1.4475,1.4353,1.4306,1.4061,1.3743,1.3397,1.3336,1.3281,1.3125,1.3403,1.3695,1.3892,1.4143,1.4333,1.4428,1.4441,1.4441,1.4441,1.4394,1.4258,1.4007,1.3709,1.3431,1.3186,1.2895,1.2447,1.1843,1.1592,1.105,1.0195,0.0,0.0,0.0,0.0,0.0,0.0,0.0,0.0,0.0,0.0,0.0,0.0,0.0,0.0,0.0,0.0,0.0,0.0,0.0,0.0,0.0,0.0,0.0,1.4801,1.6341,1.7419,1.7297,1.8708,1.9291,1.8267,1.8708,1.8993,1.883,1.9094,1.9379,1.9678,1.9841,2.0098,2.0539,2.056,2.0702,2.098,2.0845,2.077,2.0756,2.0614,2.0539,2.0539,2.0539,2.0383,2.0119,2.0119,1.9854,1.9447,1.9447,1.9183,1.8742,1.8443,1.8233,1.8057,1.7772,1.7561,1.7405,1.7249,1.7005,1.6734,1.6578,1.6334,1.6049,1.5757,1.556,1.5404,1.5262,1.5316,1.5425,1.5425,1.5418,1.5411,1.5411,1.5187,1.493,1.478,1.4624,1.4475,1.4333,1.4306,1.4258,1.4102,1.4082,1.4027,1.3878,1.398,0.0,1.4082,1.4211,1.4299,1.4292,1.4292,1.4292,1.4292,1.415,1.3987,1.3831,1.3275,1.2881,1.2725,1.244,1.2135,1.1823,1.1375,1.0934,1.05,0.0,0.0,0.0,0.0,0.0,0.0,0.0,0.0,0.0,0.0,0.0,0.0,0.0,0.0,0.0,0.0,0.0,0.0,0.0,0.0,0.0,1.5343,1.6198,1.6198,1.7467,1.862,1.9237,1.9997,2.0349,2.0064,2.0193,2.0261,2.0227,2.0295,2.0417,2.0627,2.056,2.0627,2.0858,2.0878,2.0858,2.0845,2.079,2.0716,2.0614,2.056,2.0539,2.0539,2.0539,2.0485,2.0417,2.0417,2.0227,1.9922,1.9922,1.9657,1.9203,1.8796,1.8409,1.8077,1.8002,1.7806,1.7548,1.7283,1.7141,1.7026,1.6768,1.6632,1.653,1.6341,1.6178,1.6056,1.6015,1.5872,1.573,1.573,1.5574,1.5411,1.5411,1.5187,1.4957,1.4916,1.4787,1.4631,1.4482,1.4455,1.4407,1.4265,1.4238,1.4224,1.4177,1.4211,1.4238,1.4238,1.4272,1.4258,1.4143,1.4136,1.4136,1.4136,1.3899,1.3641,1.337,1.3003,1.2678,1.242,1.223,1.1932,1.1518,1.107,1.0778,0.0,0.0,0.0,0.0,0.0,0.0,0.0,0.0,0.0,0.0,0.0,0.0,0.0,0.0,0.0,0.0,0.0,0.0,0.0,0.0,0.0,0.0,1.6673,1.7738,1.8192,1.8918,1.9698,2.0471,2.0912,2.1143,2.1143,2.1089,2.1021,2.0967,2.0899,2.0912,2.1001,2.0912,2.0933,2.1089,2.1089,2.1068,2.1055,2.0933,2.0824,2.0736,2.0594,2.0539,2.0539,2.0539,2.0505,2.0451,2.0451,2.0275,2.001,2.001,1.9746,1.9305,0.0,0.0,0.0,0.0,1.7846,1.7616,1.7372,1.7249,1.7154,1.6924,1.6842,1.6815,1.6666,1.6517,1.6388,1.6327,1.6137,1.5947,1.5947,1.5771,1.5581,1.552,1.5276,1.5045,1.4984,1.4848,1.4713,1.4624,1.4557,0.0,1.4489,1.438,1.4278,1.4211,1.4258,1.4278,1.4211,1.4258,1.4265,1.4177,1.4163,1.4163,1.4163,1.3892,0.0,0.0,0.0,1.2474,1.2115,1.1952,0.0,0.0,0.0,1.1124,1.1002,1.1063,0.0,0.0,1.0663,1.0575,0.0,0.0,0.0,0.0,0.0,0.0,0.0,0.0,0.0,0.0,0.0,0.0,0.0,0.0,0.0,0.0,1.7968,1.9291,2.0315,2.0485,2.0702,2.1245,2.155,2.1706,2.1726,2.1584,2.1441,2.1299,2.1157,2.1068,2.1068,2.1055,0.0,0.0,0.0,2.1299,2.1408,2.1143,2.1001,2.0967,2.0682,2.0539,2.0539,2.0539,2.0471,2.0349,2.0349,2.0187,1.9888,1.9888,1.9624,1.9203,1.9149,1.8864,1.8464,1.8036,1.7792,1.7629,1.7473,0.0,0.0,1.7026,1.6978,1.6958,1.6815,1.6659,1.6497,1.6368,1.6212,1.6083,1.6083,1.5967,1.5818,1.5676,1.5418,1.5167,1.5025,1.4889,1.4787,1.4767,1.4658,1.4597,1.4699,1.4496,1.4285,1.4163,1.4245,1.4278,1.4136,1.4224,1.4292,1.4278,1.4272,0.0,1.4272,1.3994,1.3695,1.3417,1.2854,1.2338,1.1925,1.1782,1.1708,1.1694,1.1816,1.1755,1.1491,1.1647,1.1721,1.1701,1.1118,1.0914,0.0,0.0,0.0,0.0,0.0,0.0,0.0,0.0,0.0,0.0,0.0,0.0,0.0,0.0,0.0,1.7792,1.9128,2.0315,2.1102,2.1421,2.1672,2.1916,2.1882,2.1882,2.2004,2.1882,2.1774,2.176,2.1618,2.155,2.155,2.1421,2.1367,2.1387,2.1387,2.1353,2.1265,2.1089,2.0933,2.0811,2.0627,0.0,2.0539,2.0539,2.0526,2.0505,2.0505,2.0329,2.0051,2.0051,1.9712,1.9169,1.8796,1.8531,1.8335,1.8124,1.788,1.7629,1.7473,1.7317,1.7168,1.7026,1.6978,1.6978,1.6944,1.6741,0.0,1.649,1.6286,1.6083,1.6083,1.5967,1.5818,1.5676,1.5499,1.5323,1.5174,1.512,1.5065,1.495,1.4903,1.4814,1.459,1.4509,1.4502,1.4597,1.4529,1.4462,1.4428,1.4353,1.4251,1.4129,1.4116,1.4116,1.4116,1.3844,1.3593,1.341,1.2949,1.2589,1.2379,1.2345,1.2277,1.2162,1.2189,1.2176,1.2115,1.2257,1.2332,1.2318,1.1837,1.1633,0.0,0.0,0.0,0.0,0.0,0.0,0.0,0.0,0.0,0.0,0.0,1.4923,1.552,0.0,1.807,1.9061,2.0153,2.1089,2.1686,2.1971,2.2147,2.2215,2.2215,2.2269,2.2432,2.2303,2.2221,2.2221,2.2025,2.1903,2.1903,2.1672,2.1564,2.1564,2.1475,2.1408,2.1333,2.1109,2.0967,2.0878,2.0648,2.0539,2.0539,2.0539,2.0539,2.0539,2.0539,2.0363,2.0085,1.9786,1.9379,1.8959,1.8654,1.8443,1.8287,1.8057,1.7846,1.7629,1.7473,1.7317,1.7168,1.7026,1.6978,1.6978,1.6978,1.6822,1.6619,1.6544,1.6368,1.6178,1.6103,1.6029,1.5934,1.5784,1.5635,1.5486,1.533,1.5235,1.516,1.5092,1.5018,1.4943,1.4862,1.4787,1.4692,1.4543,1.4516,1.4482,1.4414,1.4407,1.4346,1.4204,1.4183,1.4183,1.4183,1.3905,1.3675,1.3526,1.3159,1.2915,1.284,1.2773,1.2664,1.2515,1.2657,1.2657,1.2508,1.2732,1.28,1.2732,1.2651,1.2494,0.0,0.0,0.0,0.0,0.0,0.0,0.0,1.4671,1.4482,1.4903,1.554,1.6259,1.7046,1.8213,1.9325,2.0139,2.1001,2.1706,2.2093,2.2303,2.2425,2.2466,2.2554,2.2656,2.2818,2.2696,2.2608,2.2608,2.2344,2.2181,2.216,2.1903,2.1726,2.1672,2.155,2.1475,2.1441,2.1143,2.1001,2.1001,2.0682,2.0539,2.0539,2.0539,2.0539,2.0539,2.0485,2.0309,2.001,1.9413,1.9027,1.8782,1.8531,1.8375,1.8247,1.8002,1.7772,1.7589,1.746,1.7304,1.7134,1.7019,1.6978,1.6978,1.6978,1.6849,1.668,1.6558,1.6395,1.6239,1.611,1.6083,1.6042,1.5893,1.5764,1.5642,1.5486,1.5357,1.5269,1.5269,1.5181,1.512,1.5174,1.5086,1.4889,1.4523,1.4523,1.4516,1.4401,1.4434,1.4428,1.4312,1.4299,1.4299,1.4299,1.4075,1.3878,1.377,1.3498,1.3349,1.3349,1.3207,1.3071,1.2949,1.318,1.3186,1.2949,1.3159,1.3214,1.3139,1.3349,1.3234,2.3769,2.1499,1.9164,1.8643,1.7103,1.5881,0.0,1.6496,1.6456,1.729,1.7846,1.8301,1.8674,1.9522,2.0315,2.0824,2.155,2.2093,2.2289,2.2554,2.2784,2.292,2.2832,2.2818,2.2974,2.2852,2.2764,2.2764,2.2608,2.2445,2.2323,2.2147,2.1937,2.1672,2.1652,2.1584,2.1441,2.1143,2.1001,2.1001,2.0682,2.0539,2.0539,2.0539,2.0539,2.0526,2.0261,2.0051,1.9854,1.9257,1.8993,1.8905,1.8355,1.8124,1.8111,1.8077,1.7806,1.7446,1.7426,1.7236,1.7005,1.6985,1.6978,1.6978,1.6978,1.6775,1.6544,1.6524,1.632,1.6103,1.609,1.6083,1.6042,1.5893,1.5839,1.5791,1.5642,1.5601,1.5588,1.5588,1.5574,1.5486,1.5228,1.5167,1.514,1.5092,1.4875,1.4706,1.4692,1.4475,1.4319,1.4299,1.4299,1.4299,1.4299,1.4272,1.4245,1.4224,1.4068,1.3973,1.3973,1.3824,1.3736,1.3715,1.3749,1.3749,1.3715,1.3627,1.3634,1.3743,1.3648,1.3505,2.258,2.0283,1.8426,1.8772,1.7709,1.6679,1.7343,1.7534,1.7717,1.8267,1.8952,1.9481,1.961,2.0505,2.1265,2.1374,2.2025,2.252,2.2588,2.271,2.2764,2.2744,2.2696,2.2784,2.3097,2.3083,2.3042,2.3042,2.2907,2.2744,2.2608,2.2289,2.2004,2.1794,2.1638,2.1509,2.1441,2.1143,2.1001,2.1001,2.0682,2.0539,2.0539,2.0539,2.0485,2.0397,2.0098,1.9834,1.959,1.9257,1.8905,1.8565,1.8321,1.8111,1.7948,1.7948,1.7738,1.7419,1.7419,1.7229,1.6978,1.6978,1.6978,1.6978,1.6978,1.689,1.6754,1.6571,1.6435,1.63,1.6123,1.6083,1.6069,1.6001,1.592,1.5839,1.5778,1.5696,1.5642,1.5642,1.5567,1.5466,1.5337,1.5242,1.5181,1.5181,1.493,1.4706,1.4618,1.4502,1.4394,1.4306,1.4299,1.4299,1.4299,1.4299,1.4299,1.4299,1.4238,1.4204,1.4204,1.4143,1.4068,1.398,1.4061,1.4021,1.3838,1.3871,1.3871,1.3838,1.3871,1.3851,2.1241,1.9194,1.7908,1.868,1.824,1.765,1.8233,1.8565,1.885,1.9183,1.98,2.0295,2.0349,2.1157,2.1815,2.1794,2.2344,2.2798,2.2832,2.2764,2.2656,2.252,2.2378,2.2445,2.2818,2.3008,2.3117,2.3171,2.3029,2.2907,2.2784,2.2357,2.2038,2.1882,2.1638,2.1455,2.1367,2.1123,2.098,2.0933,2.0661,2.0539,2.0539,2.0505,2.0397,2.0261,1.9997,1.9698,1.9413,1.9183,1.8796,1.8375,1.8247,1.8057,1.786,1.7826,1.7636,1.7412,1.7372,1.7188,1.6978,1.6978,1.6978,1.6978,1.6978,1.6951,1.687,1.6646,1.6524,1.6415,1.6198,1.611,1.6083,1.6083,1.5995,1.592,1.592,1.5832,1.5764,1.5764,1.5669,1.5567,1.5486,1.5384,1.5269,1.514,1.4903,1.4713,1.4645,1.4563,1.4489,1.4428,1.4346,1.4319,1.4353,1.4326,1.4299,1.4299,1.4299,1.4299,1.4299,1.4299,1.4245,1.4136,1.4245,1.419,1.3966,1.4041,1.4034,1.3966,1.4041,1.4095,2.0053,1.8211,1.684,1.772,1.8157,1.8511,1.94,1.9712,1.9942,2.0397,2.0627,2.079,2.0946,2.1353,2.1774,2.2059,2.2479,2.2832,2.2974,2.2744,2.25,2.2357,2.1971,2.176,2.1903,2.2445,2.2852,2.3008,2.2873,2.2784,2.2784,2.2357,2.2038,2.1882,2.174,2.1509,2.1231,2.1068,2.0933,2.077,2.0614,2.0539,2.0539,2.0397,2.0261,2.0098,1.9942,1.9698,1.9393,1.8959,1.8674,1.8477,1.8036,1.786,1.7846,1.7704,1.7555,1.7399,1.7249,1.7107,1.6978,1.6978,1.6978,1.6978,1.6978,1.6876,1.6754,1.6748,1.6537,1.6313,1.6307,1.6191,1.6083,1.6083,1.6076,1.6076,1.6076,1.6069,1.6069,1.6069,1.6062,1.5967,1.5683,1.5628,1.5479,1.5045,1.4841,1.4794,1.4936,1.4699,1.4563,1.4713,1.4468,1.4353,1.4496,1.438,1.4299,1.4299,1.4299,1.4299,1.4299,1.4299,1.4299,1.4292,1.4299,1.4292,1.4285,1.4143,1.4143,1.4285,1.4136,1.415,1.9231,1.8632,1.8496,1.8685,1.9248,1.982,2.0417,2.0668,2.0756,2.0702,2.0417,2.0139,1.9976,2.0329,2.0716,2.1014,2.195,2.2676,2.2832,2.2764,2.2466,2.1828,2.1706,2.153,2.1177,2.1774,2.2378,2.2818,2.2818,2.2784,2.2784,2.2445,2.2147,2.1882,2.1652,2.1475,2.1367,2.1211,2.1109,2.1055,2.0804,2.0648,2.0539,2.0295,2.0153,2.0085,1.9732,1.9468,1.9257,1.8905,1.862,1.8375,1.8111,1.7948,1.7826,1.7589,1.7467,1.7399,1.7243,1.71,1.6978,1.6978,1.6978,1.6978,1.6978,1.6944,1.6883,1.6781,1.6605,1.6429,1.6334,1.6198,1.6083,1.6083,1.6083,1.6083,1.6083,1.6083,1.6083,1.6083,1.6001,1.5866,1.5676,1.5554,1.5371,1.5025,1.4841,1.4719,1.4672,1.4665,1.4645,1.459,1.459,1.4529,1.4387,1.4414,1.4401,1.4306,1.4299,1.4299,1.4299,1.4299,1.4299,1.4299,1.4299,1.4299,1.4299,1.4251,1.4251,1.4299,1.4245,1.4251,1.9053,1.9069,1.9334,1.9486,2.0173,2.079,2.1021,2.1197,2.1157,2.0702,2.0085,1.9501,1.9115,1.9128,1.9393,1.9908,2.0845,2.174,2.2378,2.2269,2.1991,2.1564,2.1374,2.1143,2.0811,2.1211,2.176,2.2411,2.2567,2.2608,2.2554,2.2303,2.2059,2.1815,2.1564,2.1421,2.1353,2.1265,2.1157,2.1055,2.0804,2.0614,2.0451,2.0207,2.0051,1.9922,1.9569,1.9291,1.9027,1.8782,1.8498,1.8213,1.8077,1.7914,1.7758,1.7514,1.7385,1.7317,1.7168,1.706,1.6978,1.6978,1.6978,1.6978,1.6978,1.6978,1.6958,1.6863,1.668,1.6503,1.6408,1.6232,1.6096,1.6151,1.6123,1.6096,1.6151,1.6123,1.6083,1.6083,1.6001,1.5872,1.5676,1.5425,1.5187,1.4997,1.4889,1.4787,1.4685,1.476,1.4801,1.4753,1.4746,1.4665,1.4475,1.4543,1.4509,1.4312,1.4346,1.4353,1.4299,1.4299,1.4299,1.4299,1.4299,1.4299,1.4299,1.4299,1.4299,1.4299,1.4299,1.4299,1.9379,1.9405,1.9481,2.0227,2.0946,2.1421,2.1265,2.1319,2.119,2.0438,1.9644,1.8905,1.8321,1.788,1.7894,1.8816,1.9413,2.0261,2.1706,2.1441,2.1231,2.1638,2.1055,2.0661,2.079,2.0811,2.1109,2.1815,2.2147,2.2249,2.2127,2.1971,2.1828,2.1686,2.153,2.1367,2.1231,2.1211,2.1068,2.079,2.0614,2.0471,2.0329,2.0173,1.9929,1.9644,1.9481,1.9169,1.8762,1.8586,1.8355,1.8091,1.7935,1.7772,1.7629,1.7473,1.7324,1.7168,1.7032,1.6978,1.6978,1.6978,1.6978,1.6978,1.6978,1.6978,1.6978,1.6978,1.6761,1.6524,1.6524,1.63,1.6117,1.6266,1.6185,1.6123,1.6266,1.6185,1.6083,1.6083,1.6069,1.5967,1.5689,1.5269,1.497,1.497,1.4977,1.4977,1.497,1.4977,1.5031,1.516,1.4923,1.4753,1.474,1.4746,1.4631,1.434,1.4441,1.4448,1.4319,1.4306,1.4299,1.4299,1.4299,1.4299,1.4299,1.4299,1.4299,1.4299,1.4299,1.4299,1.9397,2.0052,2.0824,2.1353,2.1638,2.1726,2.1584,2.1231,2.0702,1.9834,1.8443,1.7263,1.689,1.691,1.7344,1.8464,1.9963,2.1319,2.2255,2.2357,2.2201,2.1862,2.1652,2.1421,2.1123,2.1197,2.1387,2.1706,2.1903,2.2079,2.2269,2.2127,2.1991,2.1828,2.1584,2.1421,2.1387,2.1265,2.1123,2.0946,2.0661,2.0471,2.0315,2.0051,1.9841,1.9644,1.9379,1.9128,1.8905,1.8531,1.8335,1.8233,1.7968,1.7772,1.7629,1.7473,1.7324,1.7168,1.7032,1.6978,1.6978,1.6978,1.6978,1.6978,1.6978,1.6978,1.6978,1.6978,1.6761,1.6524,1.6524,1.63,1.609,1.613,1.611,1.609,1.613,1.611,1.6083,1.6083,1.59,1.573,1.5649,1.5269,1.497,1.497,1.5059,1.5092,1.4984,1.5065,1.5099,1.5031,1.5052,1.4977,1.476,1.4848,1.4828,1.4638,1.4557,1.4496,1.4462,1.4353,1.4299,1.4299,1.4299,1.4299,1.4299,1.4299,1.4299,1.4299,1.4299,1.4299,1.9997,2.0892,2.1686,2.2004,2.2038,2.1774,2.0967,2.0471,1.9746,1.8179,1.6849,1.5859,1.5493,1.5669,1.6279,1.7541,1.9169,2.0682,2.1903,2.2147,2.2167,2.2093,2.2025,2.1828,2.1462,2.155,2.1672,2.176,2.1828,2.195,2.2127,2.2059,2.1937,2.1794,2.1564,2.1408,2.1333,2.1197,2.1055,2.0892,2.0594,2.0363,2.0227,1.9976,1.9766,1.9556,1.9305,1.9081,1.8871,1.8477,1.8287,1.8199,1.788,1.7684,1.7528,1.7378,1.7229,1.7087,1.7012,1.6978,1.6978,1.6978,1.6978,1.6978,1.6978,1.6978,1.6965,1.6897,1.6754,1.6605,1.6537,1.6395,1.6293,1.6361,1.6327,1.6293,1.6361,1.6273,1.6164,1.6096,1.5893,1.5737,1.5737,1.5472,1.5262,1.5262,1.533,1.5357,1.5276,1.5276,1.5276,1.5269,1.5215,1.5113,1.495,1.5011,1.497,1.4753,1.4726,1.4652,1.4516,1.4434,1.4367,1.4299,1.4299,1.4299,1.4299,1.4299,1.4299,1.4299,1.4299,1.4299,2.1068,2.176,2.2215,2.2391,2.2249,2.1652,2.0051,1.9434,1.8531,1.6212,1.5215,1.4658,1.4306,1.4529,1.5235,1.6666,1.8023,1.9501,2.1299,2.1564,2.1774,2.2357,2.2269,2.2079,2.1848,2.1882,2.1937,2.1971,2.1916,2.1882,2.1882,2.1882,2.1815,2.1652,2.1509,2.1367,2.1211,2.1068,2.0933,2.077,2.0451,2.0227,2.0098,1.9922,1.9678,1.9393,1.9257,1.9027,1.8708,1.8423,1.8233,1.8057,1.7772,1.7555,1.7399,1.7249,1.71,1.6978,1.6978,1.6978,1.6978,1.6978,1.6978,1.6978,1.6978,1.6978,1.6951,1.6795,1.6748,1.6714,1.6564,1.6524,1.6558,1.6686,1.6619,1.6558,1.6686,1.6517,1.6293,1.6144,1.6001,1.59,1.5957,1.575,1.5662,1.5642,1.5655,1.5669,1.5669,1.5533,1.5493,1.5628,1.5404,1.5242,1.5242,1.5221,1.5099,1.4848,1.4916,1.4841,1.4557,1.4523,1.4441,1.4306,1.4299,1.4306,1.4326,1.4306,1.4306,1.4326,1.4306,1.4299,2.1862,2.2303,2.2534,2.2818,2.2411,2.155,2.0153,1.8864,1.7419,1.5513,1.4353,1.3722,1.3892,1.4475,1.5533,1.7372,1.8708,2.0139,2.1937,2.2181,2.2357,2.2832,2.2642,2.25,2.2588,2.2269,2.2167,2.2411,2.2093,2.1882,2.1882,2.1882,2.176,2.1496,2.1455,2.1367,2.1211,2.1068,2.0933,2.077,2.0349,2.0119,2.0085,1.982,1.9535,1.9237,1.9217,1.8952,1.8565,1.8389,1.8233,1.8057,1.7772,1.7555,1.7399,1.7249,1.71,1.6978,1.6978,1.6978,1.6978,1.6978,1.6978,1.6978,1.6978,1.6978,1.6951,1.6795,1.6748,1.6714,1.6564,1.6524,1.653,1.6558,1.6537,1.653,1.6558,1.6524,1.6442,1.63,1.6246,1.6151,1.59,1.5832,1.5778,1.5655,1.5744,1.5818,1.5818,1.5689,1.5608,1.5635,1.5594,1.556,1.556,1.5445,1.535,1.5296,1.5092,1.4889,1.4706,1.4577,1.4441,1.4306,1.4299,1.436,1.4475,1.4353,1.436,1.4475,1.4353,1.4299,2.2378,2.273,2.292,2.2995,2.2323,2.1123,1.9061,1.7561,1.5981,1.379,1.2935,1.2698,1.3071,1.3885,1.4964,1.6361,1.7595,1.9027,2.0912,2.1374,2.1862,2.2784,2.2907,2.2873,2.2784,2.2656,2.2567,2.2554,2.2357,2.2167,2.2004,2.1848,2.1672,2.1441,2.1367,2.1245,2.1109,2.0946,2.0804,2.0648,2.0363,2.0173,2.0085,1.98,1.9535,1.9305,1.9169,1.8972,1.8742,1.8443,1.8287,1.8158,1.7704,1.7487,1.7392,1.7168,1.7039,1.6978,1.6978,1.6978,1.6978,1.6978,1.6978,1.6978,1.6978,1.6978,1.6951,1.6795,1.6809,1.6836,1.668,1.67,1.6761,1.6761,1.6761,1.6741,1.6659,1.6639,1.6598,1.6449,1.6422,1.6374,1.6225,1.6198,1.6151,1.6008,1.6049,1.6062,1.5981,1.5913,1.5872,1.5872,1.573,1.5669,1.5744,1.554,1.5411,1.5411,1.5201,1.4977,1.4746,1.4672,1.4523,1.4306,1.4373,1.4441,1.4509,1.4441,1.4441,1.4509,1.4367,1.4299,2.273,2.3063,2.3239,2.3097,2.216,2.0614,1.8023,1.6395,1.476,1.2332,1.1809,1.1932,1.2413,1.3254,1.4217,1.5242,1.6279,1.767,1.9712,2.0417,2.1231,2.2567,2.2995,2.3097,2.2886,2.292,2.2873,2.2622,2.252,2.2344,2.2079,2.1774,2.1564,2.1441,2.1299,2.1143,2.1001,2.0845,2.0702,2.0539,2.0363,2.0227,2.0085,1.9766,1.9522,1.9359,1.9094,1.8952,1.8864,1.8477,1.8301,1.8213,1.765,1.7419,1.7385,1.7087,1.6978,1.6978,1.6978,1.6978,1.6978,1.6978,1.6978,1.6978,1.6978,1.6978,1.6951,1.6795,1.6863,1.6944,1.6788,1.6863,1.6978,1.6978,1.6978,1.6944,1.6829,1.6802,1.6754,1.6598,1.6598,1.6598,1.653,1.6544,1.6524,1.6374,1.6354,1.6313,1.6191,1.6151,1.613,1.613,1.5893,1.5778,1.5893,1.5628,1.5459,1.5459,1.5289,1.5065,1.4801,1.4787,1.4665,1.4401,1.4502,1.4577,1.4611,1.4577,1.4577,1.4604,1.4428,1.4346,2.294,2.3307,2.3395,2.3239,2.2004,2.0241,1.7948,1.6076,1.4251,1.2244,1.1728,1.1816,1.2393,1.2915,1.3729,1.5174,1.5845,1.7005,1.9359,2.0207,2.1068,2.2411,2.2852,2.3063,2.3171,2.2961,2.2798,2.2764,2.2378,2.2079,2.1916,2.1618,2.1455,2.1441,2.1299,2.1143,2.1001,2.0845,2.0702,2.0539,2.0261,2.0119,2.0085,1.9644,1.9359,1.9217,1.9061,1.883,1.8565,1.8389,1.8233,1.807,1.7602,1.7419,1.7385,1.7087,1.6978,1.6978,1.6978,1.6978,1.6978,1.6978,1.6978,1.6978,1.6978,1.6978,1.6951,1.6795,1.6863,1.6944,1.6788,1.6863,1.6978,1.6978,1.6978,1.6978,1.6965,1.6958,1.691,1.6761,1.6842,1.6849,1.6571,1.6639,1.668,1.6524,1.6503,1.6497,1.6483,1.6368,1.6286,1.6286,1.6137,1.6049,1.6056,1.5791,1.5615,1.5615,1.5343,1.5113,1.4957,1.495,1.4869,1.4706,1.4713,1.4787,1.493,1.4787,1.4794,1.4923,1.4631,1.4489,2.271,2.3273,2.3395,2.3151,2.1794,1.9922,1.767,1.5764,1.3946,1.2088,1.1586,1.1633,1.2142,1.2379,1.282,1.3783,1.4156,1.5072,1.7209,1.8023,1.9203,2.1353,2.1971,2.2466,2.3151,2.3042,2.2832,2.2656,2.2303,2.2038,2.1882,2.1686,2.153,2.1441,2.1211,2.1055,2.1001,2.0756,2.0594,2.0539,2.0417,2.0275,2.0085,1.982,1.9522,1.9203,1.9047,1.8871,1.8654,1.8409,1.8287,1.8179,1.7629,1.7419,1.7385,1.7087,1.6978,1.6978,1.6978,1.6978,1.6978,1.6978,1.6978,1.6978,1.6978,1.6978,1.6971,1.6904,1.6931,1.6965,1.6904,1.6937,1.6978,1.6978,1.6978,1.6978,1.6978,1.6978,1.6965,1.6904,1.6937,1.6944,1.6815,1.6849,1.6836,1.668,1.6659,1.6625,1.653,1.6469,1.6435,1.6435,1.6225,1.6083,1.6083,1.5886,1.573,1.5642,1.5438,1.5215,1.4977,1.497,1.4943,1.4882,1.4964,1.5038,1.5099,1.5038,1.4991,1.4964,1.4746,1.4597,2.2181,2.3029,2.3307,2.3008,2.1462,1.9447,1.7385,1.5418,1.3573,1.1952,1.1531,1.1579,1.1986,1.2135,1.2244,1.28,1.3159,1.396,1.5649,1.6551,1.7846,2.001,2.0756,2.1475,2.2534,2.2818,2.2818,2.252,2.2255,2.2025,2.1828,2.1686,2.155,2.1441,2.1157,2.1001,2.1001,2.0702,2.0539,2.0539,2.0451,2.0295,2.0098,1.9854,1.9535,1.9203,1.9047,1.8884,1.8674,1.8423,1.8287,1.8199,1.7629,1.7419,1.7385,1.7087,1.6978,1.6978,1.6978,1.6978,1.6978,1.6978,1.6978,1.6978,1.6978,1.6978,1.6978,1.6978,1.6978,1.6978,1.6978,1.6978,1.6978,1.6978,1.6978,1.6978,1.6978,1.6978,1.6978,1.6978,1.6978,1.6978,1.6978,1.6978,1.6944,1.6836,1.6815,1.6781,1.6673,1.6619,1.6585,1.6585,1.6361,1.6191,1.6151,1.5967,1.5811,1.571,1.556,1.5384,1.5174,1.5167,1.5167,1.5167,1.5269,1.5316,1.5316,1.5316,1.5269,1.5167,1.4964,1.4767,2.1408,2.2554,2.3151,2.2852,2.098,1.8776,1.7127,1.5018,1.3071,1.1864,1.1619,1.1708,1.2006,1.2135,1.221,1.2657,1.3349,1.4204,1.5269,1.6442,1.7528,1.8443,1.9217,2.0085,2.1123,2.2181,2.2656,2.2357,2.2201,2.1991,2.1692,2.153,2.1441,2.1441,2.1157,2.1001,2.1001,2.0702,2.0539,2.0539,2.0241,2.0098,2.0085,1.9644,1.9345,1.9203,1.9047,1.8816,1.8531,1.8375,1.8233,1.8057,1.7595,1.7419,1.7385,1.7087,1.6978,1.6978,1.6978,1.6978,1.6978,1.6978,1.6978,1.6978,1.6978,1.6978,1.6978,1.6978,1.6978,1.6978,1.6978,1.6978,1.6978,1.6978,1.6978,1.6978,1.6978,1.6978,1.6978,1.6978,1.6978,1.6978,1.6978,1.6978,1.6978,1.6978,1.6978,1.6978,1.6978,1.6842,1.6748,1.6748,1.6612,1.6463,1.632,1.6029,1.5852,1.5852,1.5716,1.5635,1.5635,1.5635,1.5635,1.5635,1.5635,1.5635,1.5635,1.5635,1.5635,1.5628,1.5316,1.5018,1.8586,1.9569,2.0051,1.9535,1.8389,1.6992,1.5547,1.4278,1.3064,1.1864,1.1619,1.1708,1.2006,1.2135,1.2372,1.3336,1.3688,1.4102,1.4848,1.6164,1.7419,1.8409,2.0451,2.1916,2.2255,2.25,2.25,2.2201,2.2147,2.1991,2.1686,2.153,2.1387,2.1285,2.1001,2.0845,2.0845,2.0648,2.0485,2.0397,2.0295,2.0153,1.9942,1.9698,1.9447,1.9203,1.9047,1.8816,1.8511,1.8375,1.8233,1.8036,1.7595,1.7419,1.7385,1.7087,1.6978,1.6978,1.6978,1.6978,1.6978,1.6978,1.6978,1.6978,1.6978,1.6978,1.6978,1.6978,1.6978,1.6978,1.6978,1.6978,1.6978,1.6978,1.6978,1.6978,1.6978,1.6978,1.6978,1.6978,1.6978,1.6978,1.6978,1.6978,1.6978,1.6978,1.6978,1.6978,1.6978,1.6937,1.691,1.691,1.6768,1.6619,1.6469,1.6279,1.6123,1.6015,1.5866,1.5744,1.5642,1.5642,1.5737,1.594,1.594,1.594,1.594,1.594,1.5839,1.5635,1.5323,1.5133,1.6605,1.7738,1.8233,1.7812,1.689,1.5811,1.4685,1.3682,1.2725,1.1809,1.1619,1.1694,1.1932,1.1972,1.2257,1.3119,1.3492,1.3885,1.4489,1.5818,1.7195,1.8464,2.058,2.195,2.2025,2.2289,2.2323,2.1971,2.195,2.1815,2.1509,2.1353,2.1211,2.1055,2.0858,2.077,2.077,2.056,2.0417,2.0329,2.0207,2.0031,1.9786,1.9644,1.9379,1.9027,1.8938,1.8694,0.0,1.8213,1.8057,1.788,1.7487,1.7331,1.7304,1.7066,1.6978,1.6978,1.6978,1.6978,1.6978,1.6978,1.6978,1.6978,1.6978,1.6978,1.6978,1.6978,1.6978,1.6978,1.6978,1.6978,1.6978,1.6978,1.6978,1.6978,1.6978,1.6978,1.6978,1.6978,1.6978,1.6978,1.6978,1.6978,1.6978,1.6978,1.6978,1.6978,1.6978,1.6978,1.6978,1.6978,1.6897,1.6795,1.67,1.651,1.6327,1.6178,1.6076,1.5961,1.5811,1.5805,1.592,1.6164,1.6171,1.6171,1.6171,1.611,1.5954,1.5716,1.5527,1.5377,0.0,1.6612,1.7256,1.708,1.611,1.5004,1.4285,1.3166,0.0,1.1708,1.1619,1.1667,1.183,1.1857,1.1965,1.2338,1.2996,1.3668,1.4251,1.5554,1.7066,1.8708,1.9922,2.0682,2.0811,2.1726,2.2127,2.1706,2.1652,2.153,2.1231,2.1068,2.0912,2.0756,2.0756,2.0736,2.0736,2.0471,2.0315,2.0275,1.9997,1.9786,1.9624,1.9468,1.9149,1.8762,1.8742,1.8477,1.8077,1.7935,1.7772,1.7616,1.7311,1.7195,1.7175,1.7032,1.6978,1.6978,1.6978,1.6978,1.6978,1.6978,1.6978,1.6978,1.6978,1.6978,1.6978,1.6978,1.6978,1.6978,1.6978,1.6978,1.6978,1.6978,1.6978,1.6978,1.6978,1.6978,1.6978,1.6978,1.6978,1.6978,1.6978,1.6978,1.6978,1.6978,1.6978,1.6978,1.6978,1.6978,1.6978,1.6978,1.6978,1.6978,1.6978,1.6707,1.6483,1.6347,1.6334,1.6259,1.6103,1.611,1.6178,1.632,1.6327,1.632,1.6307,1.6157,1.6008,1.5866,1.5859,1.5703,1.2264,0.0,1.3797,1.3417,1.3173,1.2915,0.0,1.2257,1.202,1.1687,1.1619,1.1735,1.2115,1.2088,1.2332,1.3315,1.3817,1.4217,1.4584,1.649,1.8464,2.0105,2.1055,2.1496,2.1299,2.1706,2.1903,2.1686,2.1564,2.1408,2.1231,2.0967,2.0756,2.0594,2.0492,2.0438,2.0438,2.0363,2.0153,1.982,1.9752,1.9576,1.9305,1.9047,1.8871,1.8742,1.8518,1.8301,1.8077,1.7935,1.7772,1.7616,1.7311,1.7195,1.7175,1.7032,1.6978,1.6978,1.6978,1.6978,1.6978,1.6978,1.6978,1.6978,1.6978,1.6978,1.6978,1.6978,1.6978,1.6978,1.6978,1.6978,1.6978,1.6978,1.6978,1.6978,1.6978,1.6978,1.6978,1.6978,1.6978,1.6978,1.6978,1.6978,1.6978,1.6978,1.6978,1.6978,1.6978,1.6978,1.6978,1.6978,1.6978,1.6978,1.6978,1.6809,1.668,1.6646,1.6537,1.6408,1.6259,1.6361,1.6435,1.6469,1.6469,1.6422,1.6307,1.6157,1.6062,1.6029,1.5906,1.5757,1.0914,1.1687,1.2379,1.221,1.223,1.223,1.1993,1.1945,1.1891,1.1667,1.1619,1.1714,1.202,1.2013,1.2237,1.3091,1.3654,1.4428,1.5689,1.7222,1.883,2.0471,2.1143,2.1496,2.155,2.1686,2.1686,2.1475,2.1387,2.1245,2.1021,2.0858,2.0668,2.0451,2.0363,2.0295,2.0227,2.0085,1.9908,1.9664,1.9447,1.9237,1.8993,1.8762,1.8586,1.8443,1.8287,1.8091,1.788,1.7724,1.7575,1.7419,1.7182,1.7093,1.7087,1.7012,1.6978,1.6978,1.6978,1.6978,1.6978,1.6978,1.6978,1.6978,1.6978,1.6978,1.6978,1.6978,1.6978,1.6978,1.6978,1.6978,1.6978,1.6978,1.6978,1.6978,1.6978,1.6978,1.6978,1.6978,1.6978,1.6978,1.6978,1.6978,1.6978,1.6978,1.6978,1.6978,1.6978,1.6978,1.6978,1.6978,1.6978,1.6978,1.6978,1.6904,1.6829,1.6754,1.6673,1.6558,1.6415,1.6483,1.6558,1.6625,1.6558,1.6483,1.6408,1.6191,1.6083,1.6083,1.5995,1.5879,1.0568,1.1362,1.2162,1.2155,1.2189,1.2182,1.2026,1.1891,1.1762,1.1647,1.164,1.1701,1.187,1.1959,1.2155,1.263,1.3458,1.4835,1.7114,1.7935,1.885,2.0329,2.0824,2.1157,2.1496,2.1584,2.1496,2.1231,2.1177,2.1021,2.0756,2.0716,2.056,2.0241,2.0227,2.0139,1.9963,1.9766,1.961,1.9522,1.9135,1.8871,1.8694,1.8531,1.8321,1.8091,1.8036,1.788,1.7629,1.746,1.7311,1.7175,1.7032,1.6978,1.6978,1.6978,1.6978,1.6978,1.6978,1.6978,1.6978,1.6978,1.6978,1.6978,1.6978,1.6978,1.6978,1.6978,1.6978,1.6978,1.6978,1.6978,1.6978,1.6978,1.6978,1.6978,1.6978,1.6978,1.6978,1.6978,1.6978,1.6978,1.6978,1.6978,1.6978,1.6978,1.6978,1.6978,1.6978,1.6978,1.6978,1.6978,1.6978,1.6978,1.6978,1.6978,1.6924,1.6795,1.6788,1.6727,1.6598,1.6571,1.6619,1.6748,1.6619,1.6544,1.6524,1.6246,1.6117,1.6117,1.609,1.6001,1.0928,1.1823,1.2447,1.1714,1.1714,1.1864,1.1721,1.1667,1.1647,1.1626,1.1714,1.1884,1.2169,1.2528,1.2976,1.3546,1.4909,1.651,1.8267,1.8918,1.9501,2.0275,2.0845,2.1109,2.0933,2.1143,2.1265,2.1211,2.098,2.0756,2.0594,2.0471,2.0207,1.9786,1.9766,1.9624,1.9345,1.9556,1.94,1.8905,1.883,1.8654,1.8389,1.8233,1.8124,1.8077,1.7826,1.7684,1.7629,1.7344,1.7216,1.7175,1.7032,1.6978,1.6978,1.6978,1.6978,1.6978,1.6978,1.6978,1.6978,1.6978,1.6978,1.6978,1.6978,1.6978,1.6978,1.6978,1.6978,1.6978,1.6978,1.6978,1.6978,1.6978,1.6978,1.6978,1.6978,1.6978,1.6978,1.6978,1.6978,1.6978,1.6978,1.6978,1.6978,1.6978,1.6978,1.6978,1.6978,1.6978,1.6978,1.6978,1.6978,1.6978,1.6978,1.6978,1.6971,1.6944,1.6944,1.6937,1.691,1.6781,1.6727,1.6748,1.6727,1.6653,1.6524,1.6354,1.6273,1.6273,1.6144,1.6001,1.0487,1.1206,1.1884,1.1877,1.24,1.2834,1.2528,1.24,1.2318,1.2237,1.2271,1.2359,1.2501,1.3091,1.3994,1.5323,1.6239,1.7249,1.8565,1.8938,1.9379,2.0227,2.0627,2.0892,2.1001,2.1123,2.1143,2.098,2.0845,2.0668,2.0438,2.0363,2.0119,1.9678,1.9664,1.9488,1.9094,1.9149,1.9047,1.8762,1.8606,1.8409,1.8199,1.8036,1.7935,1.7846,1.7704,1.7555,1.7392,1.7249,1.7148,1.7073,1.7005,1.6978,1.6978,1.6978,1.6978,1.6978,1.6978,1.6978,1.6978,1.6978,1.6978,1.6978,1.6978,1.6978,1.6978,1.6978,1.6978,1.6978,1.6978,1.6978,1.6978,1.6978,1.6978,1.6978,1.6978,1.6978,1.6978,1.6978,1.6978,1.6978,1.6978,1.6978,1.6978,1.6978,1.6978,1.6978,1.6978,1.6978,1.6978,1.6978,1.6978,1.6978,1.6978,1.6978,1.6978,1.6978,1.6978,1.6978,1.6978,1.691,1.6876,1.6876,1.6795,1.6714,1.6646,1.6497,1.6422,1.6422,1.6354,1.6279,1.0283,1.0833,1.1538,1.2223,1.2963,1.3519,1.3492,1.3322,1.3173,1.3193,1.32,1.3166,1.3064,1.3865,1.5099,1.6809,1.7439,1.8036,1.8959,1.9115,1.9447,2.0329,2.0526,2.075,2.1123,2.1123,2.1021,2.079,2.0702,2.056,2.0295,2.0207,1.9976,1.9576,1.9522,1.9312,1.8884,1.8762,1.8694,1.8654,1.8389,1.8158,1.7982,1.786,1.7738,1.7595,1.7555,1.7405,1.7188,1.7154,1.708,1.6978,1.6978,1.6978,1.6978,1.6978,1.6978,1.6978,1.6978,1.6978,1.6978,1.6978,1.6978,1.6978,1.6978,1.6978,1.6978,1.6978,1.6978,1.6978,1.6978,1.6978,1.6978,1.6978,1.6978,1.6978,1.6978,1.6978,1.6978,1.6978,1.6978,1.6978,1.6978,1.6978,1.6978,1.6978,1.6978,1.6978,1.6978,1.6978,1.6978,1.6978,1.6978,1.6978,1.6978,1.6978,1.6978,1.6978,1.6978,1.6978,1.6978,1.6978,1.6978,1.6978,1.6863,1.6802,1.6802,1.6653,1.6571,1.6571,1.6537,1.6524,1.0968,1.1531,1.2108,1.2583,1.2651,1.2915,1.4136,1.4082,1.3933,1.4482,1.4597,1.4468,1.4055,1.5052,1.6259,1.7229,1.8443,1.9447,1.9942,2.0119,2.0349,2.0702,2.0756,2.0824,2.1001,2.0892,2.079,2.077,2.0526,2.0295,2.0119,1.9854,1.9556,1.9237,1.9115,1.8884,1.8565,1.8552,1.8477,1.8355,1.8179,1.7948,1.7684,1.767,1.7582,1.7433,1.729,1.7216,1.7182,1.7053,1.6992,1.6978,1.6978,1.6978,1.6978,1.6978,1.6978,1.6978,1.6978,1.6978,1.6978,1.6978,1.6978,1.6978,1.6978,1.6978,1.6978,1.6978,1.6978,1.6978,1.6978,1.6978,1.6978,1.6978,1.6978,1.6978,1.6978,1.6978,1.6978,1.6978,1.6978,1.6978,1.6978,1.6978,1.6978,1.6978,1.6978,1.6978,1.6978,1.6978,1.6978,1.6978,1.6978,1.6978,1.6978,1.6978,1.6978,1.6978,1.6978,1.6978,1.6978,1.6978,1.6978,1.6978,1.6971,1.6965,1.6965,1.6809,1.6734,1.6727,1.6585,1.6524,1.0568,1.1253,1.2047,1.2596,1.3247,1.398,1.4869,1.5079,1.5208,1.5628,1.594,1.6056,1.5784,1.6307,1.71,1.8091,1.9081,1.9854,2.0315,2.0417,2.0539,2.0756,2.077,2.079,2.0858,2.0811,2.0702,2.0505,2.0397,2.0187,1.9841,1.9712,1.9434,1.8938,1.8884,1.8708,1.8409,1.8301,1.8179,1.8036,1.8077,1.7935,1.765,1.765,1.7514,1.7277,1.7216,1.7141,1.706,1.7005,1.6978,1.6978,1.6978,1.6978,1.6978,1.6978,1.6978,1.6978,1.6978,1.6978,1.6978,1.6978,1.6978,1.6978,1.6978,1.6978,1.6978,1.6978,1.6978,1.6978,1.6978,1.6978,1.6978,1.6978,1.6978,1.6978,1.6978,1.6978,1.6978,1.6978,1.6978,1.6978,1.6978,1.6978,1.6978,1.6978,1.6978,1.6978,1.6978,1.6978,1.6978,1.6978,1.6978,1.6978,1.6978,1.6978,1.6978,1.6978,1.6978,1.6978,1.6978,1.6978,1.6978,1.6978,1.6978,1.6978,1.6978,1.6924,1.6897,1.689,1.6836,1.6809,1.0371,1.0867,1.1586,1.2332,1.3308,1.438,1.5506,1.6029,1.6429,1.6971,1.7107,1.71,1.7046,1.7236,1.7684,1.8552,1.9434,2.0139,2.0485,2.0539,2.0573,2.0682,2.0702,2.0682,2.0627,2.0627,2.0526,2.0275,2.0173,1.9976,1.9678,1.9488,1.9183,1.8782,1.8674,1.8477,1.8179,1.8077,1.7914,1.7724,1.7826,1.7758,1.7507,1.7507,1.7365,1.7127,1.7127,1.7073,1.6978,1.6978,1.6978,1.6978,1.6978,1.6978,1.6978,1.6978,1.6978,1.6978,1.6978,1.6978,1.6978,1.6978,1.6978,1.6978,1.6978,1.6978,1.6978,1.6978,1.6978,1.6978,1.6978,1.6978,1.6978,1.6978,1.6978,1.6978,1.6978,1.6978,1.6978,1.6978,1.6978,1.6978,1.6978,1.6978,1.6978,1.6978,1.6978,1.6998,1.7039,1.7012,1.6978,1.6978,1.6978,1.6978,1.6978,1.6978,1.6978,1.6978,1.6978,1.6978,1.6978,1.6978,1.6978,1.6978,1.6978,1.6978,1.6978,1.6978,1.6978,1.6978,1.6978,1.6978,1.0575,1.05,1.0758,1.1809,1.2637,1.3783,1.6022,1.6876,1.7494,1.8552,1.8057,1.748,1.7629,1.7772,1.8023,1.8464,1.9535,2.0383,2.0526,2.0539,2.0539,2.0539,2.0539,2.0485,2.0349,2.0329,2.0261,2.0098,1.982,1.9664,1.9664,1.9081,1.8762,1.8762,1.8464,1.8165,1.786,1.786,1.7704,1.7419,1.7419,1.7338,1.7195,1.7195,1.7114,1.6978,1.6978,1.6978,1.6978,1.6978,1.6978,1.6978,1.6978,1.6978,1.6978,1.6978,1.6978,1.6978,1.6978,1.6978,1.6978,1.6978,1.6978,1.6978,1.6978,1.6978,1.6978,1.6978,1.6978,1.6978,1.6978,1.6978,1.6978,1.6978,1.6978,1.6978,1.6978,1.6978,1.6978,1.6978,1.6985,1.6985,1.6985,1.6985,1.6985,1.6985,1.6985,1.7032,1.7175,1.7066,1.6978,1.6978,1.6978,1.6978,1.6978,1.6978,1.6978,1.6978,1.6978,1.6978,1.6978,1.6978,1.6978,1.6978,1.6978,1.6978,1.6978,1.6978,1.6978,1.6978,1.6978,1.6978,1.0426,1.1036,1.1884,1.24,1.3804,1.5425,1.6836,1.7256,1.7738,1.9115,1.8938,1.8511,1.8443,1.864,1.8816,1.885,1.959,2.0261,2.0505,2.0539,2.0539,2.0539,2.0451,2.0383,2.0329,2.0227,2.0064,1.98,1.9712,1.9488,1.9047,1.8871,1.8565,1.8145,1.8036,1.786,1.7555,1.7555,1.7453,1.7263,1.7263,1.7236,1.7195,1.7195,1.7114,1.6978,1.6978,1.6978,1.6978,1.6978,1.6978,1.6978,1.6978,1.6978,1.6978,1.6978,1.6978,1.6978,1.6978,1.6978,1.6978,1.6978,1.6978,1.6978,1.6978,1.6978,1.6978,1.6978,1.6978,1.6978,1.6978,1.6978,1.6978,1.6978,1.6978,1.6978,1.6978,1.6978,1.6978,1.6978,1.706,1.7127,1.7127,1.7216,1.729,1.729,1.729,1.7263,1.7202,1.7066,1.6978,1.6978,1.6978,1.6978,1.6978,1.6978,1.6978,1.6978,1.6978,1.6978,1.6978,1.6978,1.6978,1.6978,1.6978,1.6978,1.6978,1.6978,1.6978,1.6978,1.6978,1.6978,1.0846,1.1538,1.2461,1.3173,1.4475,1.5967,1.7446,1.8057,1.864,1.9786,1.9556,1.9149,1.9135,1.9217,1.9291,1.9257,1.9786,2.0275,2.0505,2.0485,2.0451,2.0451,2.0329,2.0187,2.0085,1.9976,1.9786,1.9413,1.9345,1.9115,1.8694,1.8498,1.8233,1.788,1.7758,1.7575,1.7331,1.7331,1.7256,1.7107,1.7107,1.7107,1.7107,1.7107,1.706,1.6978,1.6917,1.6924,1.6978,1.6917,1.6924,1.6978,1.6978,1.6978,1.6978,1.6978,1.6978,1.6978,1.6978,1.6978,1.6978,1.6978,1.6978,1.6978,1.6978,1.6978,1.6978,1.6978,1.6978,1.6978,1.6978,1.6978,1.6978,1.6978,1.6978,1.6978,1.6978,1.6978,1.6978,1.6978,1.7093,1.7195,1.7195,1.7317,1.7419,1.7419,1.7419,1.7344,1.7134,1.708,1.7039,1.6985,1.6978,1.6978,1.6978,1.6978,1.6978,1.6978,1.6978,1.6978,1.6978,1.6978,1.6978,1.6978,1.6978,1.6978,1.6978,1.6978,1.6978,1.6978,1.6978,1.6978,1.1538,1.1979,1.2712,1.4034,1.493,1.6001,1.7948,1.9061,1.982,2.0349,1.9956,1.9569,1.9678,1.959,1.9556,1.9664,2.0031,2.0349,2.0485,2.0383,2.0309,2.0295,2.0153,1.9942,1.9644,1.961,1.9413,1.8972,1.8816,1.8654,1.8477,1.8091,1.7846,1.7812,1.7541,1.7324,1.7175,1.7175,1.7107,1.6978,1.6978,1.6978,1.6978,1.6978,1.6971,1.6951,1.6809,1.6822,1.6931,1.6788,1.6822,1.6958,1.6958,1.6971,1.6978,1.6978,1.6978,1.6978,1.6978,1.6978,1.6978,1.6978,1.6978,1.6978,1.6978,1.6978,1.6978,1.6978,1.6978,1.6978,1.6978,1.6978,1.6978,1.6978,1.6978,1.6978,1.6978,1.6978,1.6978,1.6978,1.7093,1.7195,1.7209,1.7338,1.7439,1.7439,1.7419,1.7304,1.7032,1.71,1.7127,1.7012,1.6985,1.6985,1.6998,1.6985,1.6978,1.6978,1.6978,1.6978,1.6978,1.6978,1.6978,1.6978,1.6978,1.6978,1.6978,1.6978,1.6978,1.6978,1.6978,1.6978,1.1253,1.2189,1.3431,1.455,1.6334,1.8023,1.883,1.9345,1.9698,1.982,2.0085,2.0241,2.0051,2.0085,2.0064,1.9854,2.001,2.0153,2.0187,2.0173,2.0098,1.9976,1.9841,1.9644,1.9325,1.9203,1.8993,1.8654,1.8599,1.8409,1.8023,1.7914,1.7704,1.7344,1.7277,1.7175,1.7026,1.7026,1.7012,1.6978,1.6978,1.6978,1.6978,1.6978,1.6917,1.6795,1.6761,1.67,1.6619,1.6585,1.6659,1.6802,1.6802,1.6876,1.6978,1.6978,1.6978,1.6978,1.6978,1.6978,1.6978,1.6978,1.6978,1.6978,1.6978,1.6978,1.6978,1.6978,1.6978,1.6978,1.6978,1.6978,1.6978,1.6978,1.6978,1.6978,1.6978,1.6978,1.6978,1.6978,1.7093,1.7229,1.7351,1.75,1.7602,1.7602,1.7399,1.7216,1.7154,1.7073,1.706,1.7141,1.7046,1.7026,1.7141,1.7046,1.6978,1.6978,1.6978,1.6978,1.6978,1.6978,1.6978,1.6978,1.6978,1.6978,1.6978,1.6978,1.6978,1.6978,1.6978,1.6978,1.1667,1.2691,1.4,1.5628,1.7351,1.8728,1.9027,1.94,1.9664,1.9664,1.9963,2.0173,2.001,2.0119,2.0139,1.9908,1.9942,1.9997,1.9997,1.9875,1.9732,1.9569,1.9434,1.9217,1.8905,1.8762,1.8552,1.8233,1.8145,1.7968,1.767,1.7582,1.7433,1.7202,1.7127,1.7019,1.687,1.687,1.6836,1.6761,1.6761,1.6761,1.6761,1.6836,1.6788,1.6639,1.6571,1.653,1.6517,1.6449,1.651,1.6639,1.6639,1.6734,1.687,1.687,1.6917,1.6978,1.6978,1.6978,1.6978,1.6978,1.6978,1.6978,1.6978,1.6978,1.6978,1.6978,1.6978,1.6978,1.6978,1.6978,1.6978,1.6978,1.6978,1.6978,1.6978,1.6978,1.6978,1.6978,1.7093,1.7216,1.7297,1.7439,1.7514,1.7439,1.7297,1.7168,1.71,1.7087,1.7114,1.7182,1.7127,1.7114,1.7182,1.706,1.6978,1.6978,1.6978,1.6978,1.6978,1.6978,1.6978,1.6978,1.6978,1.6978,1.6978,1.6978,1.6978,1.6978,1.6978,1.6978,1.2149,1.3308,1.4713,1.6727,1.7989,1.8762,1.8952,1.9291,1.959,1.959,1.9732,1.9875,1.9841,1.9922,1.9942,1.9786,1.9732,1.9712,1.9712,1.9481,1.9257,1.9094,1.8993,1.8796,1.8477,1.8321,1.8124,1.7846,1.7684,1.7541,1.7392,1.7263,1.7168,1.7121,1.6998,1.687,1.6714,1.6714,1.6646,1.6524,1.6524,1.651,1.649,1.6619,1.6605,1.6476,1.6361,1.6361,1.6435,1.632,1.6354,1.6483,1.6483,1.6578,1.6714,1.6714,1.6809,1.6944,1.6944,1.6958,1.6978,1.6978,1.6978,1.6978,1.6978,1.6978,1.6978,1.6978,1.6978,1.6978,1.6978,1.6978,1.6978,1.6978,1.6978,1.6978,1.6978,1.6978,1.6978,1.6978,1.7114,1.7243,1.7263,1.7378,1.7419,1.729,1.7249,1.7188,1.7073,1.7161,1.7243,1.727,1.7222,1.7202,1.7229,1.708,1.6978,1.6978,1.6978,1.6978,1.6978,1.6978,1.6978,1.6978,1.6978,1.6978,1.6978,1.6978,1.6978,1.6978,1.6978,1.6978,1.187,1.3912,1.6042,1.7121,1.7982,1.864,1.8918,1.9128,1.9257,1.9257,1.959,1.9841,1.9712,1.959,1.9468,1.9305,1.9183,1.9115,1.9115,1.8959,1.8796,1.864,1.8599,1.8477,1.8179,1.8023,1.786,1.7684,1.7534,1.7385,1.7229,1.7202,1.7073,1.6815,1.6788,1.6707,1.6551,1.6551,1.6544,1.6524,1.6524,1.6456,1.6341,1.6361,1.6354,1.6334,1.632,1.6246,1.6137,1.6123,1.6198,1.6341,1.6341,1.6429,1.6551,1.6551,1.6653,1.6781,1.6781,1.687,1.6978,1.6978,1.6978,1.6978,1.6978,1.6978,1.6978,1.6978,1.6978,1.6978,1.6978,1.6978,1.6978,1.6978,1.6978,1.6978,1.6978,1.6978,1.6978,1.6978,1.7202,1.7433,1.7561,1.7602,1.7609,1.7589,1.7473,1.7385,1.7365,1.7378,1.7439,1.7575,1.7351,1.7249,1.7378,1.7141,1.6978,1.6978,1.6978,1.6978,1.6978,1.6978,1.6978,1.6978,1.6978,1.6978,1.6978,1.6978,1.6978,1.6978,1.6978,1.6978,1.2467,1.4292,1.6001,1.7243,1.786,1.8233,1.8552,1.8728,1.883,1.883,1.8993,1.9149,1.9271,1.9237,1.9128,1.8972,1.883,1.8728,1.8728,1.8599,1.8423,1.8179,1.8158,1.8036,1.7738,1.7575,1.746,1.7399,1.7256,1.7107,1.6951,1.6944,1.6842,1.6625,1.6619,1.651,1.6279,1.6273,1.6232,1.6151,1.6232,1.6239,1.6185,1.6185,1.6185,1.6185,1.6185,1.6144,1.6083,1.6083,1.6123,1.6185,1.6185,1.6273,1.6402,1.6402,1.6551,1.6748,1.6748,1.6849,1.6978,1.6978,1.6978,1.6978,1.6978,1.6978,1.6978,1.6978,1.6978,1.6978,1.6978,1.6978,1.6978,1.6978,1.6978,1.6978,1.6978,1.6978,1.6978,1.6978,1.7087,1.7195,1.7263,1.7338,1.7392,1.7392,1.7405,1.7419,1.7419,1.7494,1.7575,1.754,1.7528,1.7439,1.7419,1.7222,1.71,1.71,1.71,1.7141,1.7222,1.7148,1.71,1.71,1.7019,1.6978,1.6978,1.6978,1.6978,1.6978,1.6978,1.6978,1.2494,1.3905,1.5181,1.6612,1.7222,1.7595,1.8091,1.8321,1.8423,1.8423,1.8423,1.8464,1.862,1.8742,1.8762,1.862,1.8464,1.8355,1.8321,1.8179,1.8002,1.7772,1.7758,1.767,1.7439,1.7283,1.7195,1.7195,1.7026,1.687,1.6754,1.6714,1.6605,1.6415,1.6449,1.6307,1.5974,1.5967,1.5913,1.5798,1.5913,1.5967,1.5967,1.5967,1.5988,1.6029,1.6062,1.6083,1.6083,1.6083,1.6083,1.6083,1.6083,1.6151,1.6252,1.6252,1.6435,1.6693,1.6693,1.6822,1.6978,1.6978,1.6978,1.6978,1.6978,1.6978,1.6978,1.6978,1.6978,1.6978,1.6978,1.6978,1.6978,1.6978,1.6978,1.6978,1.6978,1.6978,1.6992,1.7026,1.7032,1.706,1.7134,1.7236,1.7317,1.7358,1.746,1.7534,1.7534,1.7629,1.7704,1.7704,1.767,1.7602,1.7487,1.7338,1.7249,1.7249,1.7249,1.7283,1.7358,1.7256,1.7175,1.7141,1.7032,1.6978,1.6978,1.6978,1.6978,1.6978,1.6978,1.6978,1.1179,1.2271,1.358,1.4808,1.5757,1.6653,1.765,1.8002,1.8111,1.8111,1.8111,1.8036,1.7772,1.807,1.8301,1.8145,1.8002,1.7846,1.7717,1.7561,1.746,1.7446,1.7446,1.7439,1.7419,1.7283,1.7195,1.7195,1.6924,1.6761,1.6748,1.6612,1.6402,1.611,1.6246,1.611,1.5662,1.5662,1.5655,1.5649,1.5655,1.5662,1.5662,1.5662,1.5737,1.5872,1.6015,1.6083,1.6083,1.6083,1.6083,1.6083,1.6083,1.609,1.6096,1.6096,1.6279,1.653,1.653,1.6727,1.6978,1.6978,1.6978,1.6978,1.6978,1.6978,1.6978,1.6978,1.6978,1.6978,1.6978,1.6978,1.6978,1.6978,1.6978,1.6978,1.6978,1.6978,1.7019,1.7154,1.7182,1.727,1.7561,1.7623,1.767,1.7812,1.7826,1.7846,1.7846,1.7846,1.7846,1.7846,1.7738,1.765,1.7629,1.7494,1.7405,1.7405,1.7405,1.7344,1.7209,1.7195,1.7127,1.6992,1.6985,1.6978,1.6978,1.6978,1.6978,1.6978,1.6978,1.6978,1.1294,1.1945,1.2745,1.3946,1.4855,1.5622,1.6286,1.6992,1.7514,1.7514,1.7595,1.7629,1.7521,1.7717,1.7846,1.7684,1.7616,1.7561,1.7507,1.7453,1.7385,1.7283,1.7277,1.7202,1.7012,1.7032,1.6978,1.6775,1.6754,1.6625,1.6334,1.6273,1.6103,1.5805,1.5852,1.5757,1.5493,1.5493,1.5493,1.5493,1.5594,1.5642,1.5642,1.5642,1.5716,1.5859,1.5913,1.5988,1.6083,1.6083,1.6083,1.6083,1.6083,1.6083,1.6083,1.6083,1.6266,1.6524,1.6524,1.672,1.6978,1.6978,1.6978,1.6978,1.6978,1.6978,1.6978,1.6978,1.6978,1.6978,1.6978,1.6978,1.7005,1.7093,1.7188,1.7263,1.7263,1.7188,1.7161,1.7311,1.7338,1.7372,1.7487,1.7582,1.7663,1.7717,1.7812,1.786,1.786,1.786,1.786,1.786,1.7812,1.7758,1.765,1.7595,1.7568,1.7568,1.7568,1.7541,1.7487,1.7487,1.7372,1.7121,1.7114,1.7073,1.6978,1.6978,1.6978,1.6978,1.6978,1.6978,1.1063,1.1389,1.1898,1.3091,1.3695,1.4285,1.5384,1.6096,1.6605,1.6904,1.7127,1.727,1.727,1.7311,1.7344,1.7344,1.7344,1.7324,1.7277,1.727,1.7216,1.706,1.7046,1.6944,1.67,1.6768,1.6741,1.6537,1.6524,1.6395,1.6096,1.5988,1.5845,1.5649,1.554,1.5459,1.5411,1.5357,1.5337,1.5337,1.5438,1.5486,1.5486,1.5486,1.5594,1.5778,1.573,1.5818,1.6008,1.6062,1.6049,1.6008,1.6062,1.6083,1.6083,1.6083,1.6239,1.6456,1.6503,1.6686,1.691,1.6965,1.6978,1.6978,1.6978,1.6978,1.6978,1.6978,1.6978,1.6992,1.7039,1.7087,1.7154,1.7249,1.7344,1.7433,1.7487,1.7378,1.7297,1.7399,1.7419,1.7439,1.7487,1.7582,1.7663,1.7717,1.7806,1.786,1.786,1.786,1.786,1.786,1.786,1.7826,1.7717,1.7717,1.7717,1.7717,1.7717,1.7704,1.765,1.765,1.7507,1.7195,1.7195,1.7121,1.6978,1.6978,1.6978,1.6978,1.6978,1.6978,0.0,0.0,0.0,1.2155,1.2244,1.2657,1.4991,1.5323,1.5391,1.6279,1.672,1.6944,1.6951,1.6836,1.6829,1.7114,1.7168,1.7127,1.6985,1.6965,1.691,1.6761,1.6637,1.668,1.6524,1.6517,1.6517,1.6497,1.6239,1.6076,1.6062,1.5784,1.5628,1.5628,1.5337,1.5255,1.5404,1.5255,1.5181,1.5181,1.5181,1.5181,1.5181,1.5181,1.535,1.5622,1.5479,1.5574,1.5852,1.6008,1.5988,1.5866,1.6022,1.6083,1.6083,1.609,1.6185,1.6334,1.6476,1.6625,1.6775,1.6931,1.6978,1.6978,1.6978,1.6978,1.6978,1.6978,1.6985,1.7019,1.7161,1.7311,1.7426,1.7426,1.7433,1.7473,1.7623,1.7541,1.7433,1.7433,1.7433,1.748,1.7629,1.765,1.7704,1.7846,1.786,1.786,1.786,1.786,1.786,1.786,1.786,1.786,1.786,1.786,1.786,1.786,1.786,1.7792,1.765,1.765,1.7514,1.7202,1.7202,1.7127,1.6985,1.6985,1.6978,1.6978,1.6978,1.6978,1.0622,0.0,0.0,0.0,0.0,0.0,1.2583,1.3498,1.4373,1.495,1.5574,1.6076,1.6293,1.6388,1.6422,1.6395,1.6564,1.6693,1.6653,1.6646,1.6632,1.6592,1.6585,1.6483,1.6225,1.6395,1.6341,1.5913,1.6008,1.594,1.5615,1.5411,1.5309,1.5309,1.5228,1.5201,1.5248,1.5201,1.5181,1.5181,1.5181,1.5181,1.5181,1.5181,1.5289,1.5472,1.5432,1.5459,1.5554,1.5811,1.5893,1.5866,1.6022,1.6083,1.6096,1.6205,1.6273,1.6347,1.6598,1.6714,1.6775,1.6931,1.6978,1.6978,1.6978,1.6978,1.6978,1.6978,1.7053,1.7168,1.7317,1.7473,1.7589,1.7589,1.767,1.7758,1.7792,1.7772,1.7738,1.7738,1.7738,1.7758,1.7792,1.7812,1.7812,1.786,1.786,1.786,1.786,1.786,1.786,1.786,1.786,1.786,1.786,1.786,1.786,1.786,1.786,1.7792,1.765,1.7758,1.767,1.7365,1.7358,1.7283,1.7134,1.7032,1.6978,1.6978,1.6978,1.6978,1.1036,1.0887,1.0806,1.0928,0.0,0.0,1.1925,1.261,1.3349,1.4238,1.4869,1.5377,1.5737,1.5825,1.5832,1.5805,1.5947,1.6123,1.6313,1.6341,1.6313,1.6252,1.6239,1.6151,1.592,1.6049,1.6008,1.5662,1.5744,1.5635,1.5248,1.5147,1.5065,1.4997,1.4997,1.5031,1.5092,1.5092,1.5126,1.5181,1.5181,1.5181,1.5181,1.5181,1.5269,1.5404,1.5343,1.535,1.5425,1.5594,1.5703,1.5778,1.5927,1.6029,1.609,1.6185,1.6218,1.6246,1.6483,1.6564,1.6605,1.6815,1.6883,1.6897,1.6958,1.6978,1.6978,1.6978,1.7127,1.7324,1.7473,1.7629,1.7738,1.7738,1.7806,1.786,1.786,1.786,1.786,1.786,1.786,1.786,1.786,1.786,1.786,1.786,1.786,1.786,1.786,1.786,1.786,1.786,1.786,1.786,1.786,1.786,1.786,1.786,1.786,1.7826,1.7738,1.7826,1.7758,1.7521,1.7514,1.7439,1.729,1.708,1.7012,1.7066,1.7066,1.7107,1.1545,1.1369,1.1314,1.1538,1.1016,0.0,1.2149,1.2216,1.2359,1.3682,1.4211,1.4577,1.5011,1.5018,1.4991,1.5072,1.5187,1.5438,1.5934,1.6008,1.5961,1.5845,1.5798,1.5737,1.5628,1.5601,1.5581,1.5567,1.5425,1.5228,1.4984,1.4957,1.4882,1.4746,1.474,1.4808,1.4943,1.4964,1.5031,1.516,1.5174,1.5181,1.5181,1.5181,1.5255,1.5377,1.5242,1.5262,1.5384,1.5384,1.5486,1.5655,1.5798,1.5947,1.6083,1.6103,1.6096,1.611,1.6293,1.6341,1.6361,1.6673,1.6761,1.6781,1.6937,1.6978,1.6985,1.7019,1.7216,1.746,1.7629,1.7772,1.786,1.786,1.786,1.786,1.786,1.786,1.786,1.786,1.786,1.786,1.786,1.786,1.786,1.786,1.786,1.786,1.786,1.786,1.786,1.786,1.786,1.786,1.786,1.786,1.786,1.786,1.786,1.786,1.786,1.786,1.7812,1.767,1.765,1.7575,1.7419,1.7154,1.7093,1.7216,1.7216,1.729,1.2013,1.1911,1.1889,1.1511,1.1484,0.0,1.0873,1.1158,1.1572,1.1742,1.2203,1.2684,1.301,1.3342,1.3458,1.3125,1.3783,1.4618,1.5425,1.554,1.5574,1.5669,1.5466,1.535,1.5445,1.5343,1.5221,1.5113,1.4957,1.4896,1.497,1.4855,1.4774,1.474,1.474,1.4753,1.4787,1.4909,1.4984,1.5011,1.5126,1.5181,1.5181,1.5181,1.5201,1.5221,1.5194,1.5201,1.5228,1.5228,1.5391,1.5655,1.5798,1.5947,1.6096,1.6218,1.6185,1.6137,1.653,1.651,1.6381,1.6802,1.6849,1.6781,1.6937,1.6978,1.7032,1.727,1.7378,1.748,1.7758,1.7846,1.786,1.786,1.786,1.786,1.786,1.786,1.786,1.786,1.786,1.786,1.786,1.786,1.786,1.786,1.786,1.786,1.786,1.786,1.786,1.786,1.786,1.786,1.786,1.786,1.786,1.786,1.786,1.786,1.786,1.786,1.7846,1.7826,1.7704,1.7575,1.7419,1.7365,1.7351,1.7378,1.7378,1.7392,1.2318,1.2121,1.2006,1.1782,1.1667,0.0,0.0,1.1009,1.1233,1.145,1.1619,1.1864,1.2311,1.2454,1.2528,1.2603,1.3125,1.3777,1.4523,1.4889,1.5106,1.5181,1.5059,1.4991,1.5065,1.5004,1.493,1.4862,1.4787,1.474,1.474,1.4665,1.459,1.4523,1.4523,1.4557,1.4624,1.478,1.4896,1.497,1.5113,1.5181,1.5181,1.5181,1.5181,1.5181,1.5181,1.5181,1.5181,1.5181,1.5364,1.5649,1.5716,1.5886,1.609,1.6171,1.6151,1.611,1.6341,1.6368,1.6361,1.6653,1.6748,1.6781,1.6937,1.6978,1.7039,1.7338,1.7419,1.7487,1.7792,1.786,1.786,1.786,1.786,1.786,1.786,1.786,1.786,1.786,1.786,1.786,1.786,1.786,1.786,1.786,1.786,1.786,1.786,1.786,1.786,1.786,1.786,1.786,1.786,1.786,1.786,1.786,1.786,1.786,1.786,1.786,1.786,1.786,1.7792,1.7717,1.7636,1.7636,1.7602,1.7534,1.7534,1.7575,1.2705,1.2454,1.2359,1.2155,1.1938,1.1701,0.0,0.0,0.0,1.1457,1.1294,1.124,1.1728,1.166,1.166,1.206,1.2474,1.304,1.3753,1.44,1.4757,1.4665,1.457,1.455,1.4719,1.4665,1.4631,1.4692,1.4618,1.455,1.4516,1.4482,1.4421,1.4306,1.4299,1.4353,1.4468,1.4618,1.4774,1.493,1.5072,1.514,1.514,1.514,1.514,1.514,1.514,1.516,1.5181,1.5181,1.5364,1.5642,1.5642,1.5818,1.6083,1.6083,1.6083,1.6083,1.6117,1.6185,1.63,1.6503,1.6666,1.6815,1.6944,1.6978,1.7039,1.7338,1.7419,1.7487,1.7792,1.7846,1.7826,1.7826,1.7826,1.7826,1.7826,1.7846,1.786,1.786,1.786,1.786,1.786,1.786,1.786,1.786,1.786,1.786,1.786,1.786,1.786,1.786,1.786,1.786,1.786,1.786,1.786,1.786,1.786,1.786,1.786,1.786,1.786,1.786,1.7901,1.7901,1.786,1.7901,1.7826,1.7684,1.7684,1.7758,1.3478,1.3451,1.3417,1.2494,1.2725,1.2827,1.1491,0.0,1.1009,1.0548,0.0,1.0019,1.0086,0.0,0.0,1.0019,1.1084,1.2422,1.3758,1.4519,1.4807,1.4572,1.3953,1.3865,1.4665,1.438,1.4258,1.4516,1.417,1.4109,1.4489,1.4394,1.4319,1.4299,1.4299,1.4306,1.4326,1.4468,1.4618,1.4767,1.4923,1.4997,1.4997,1.4997,1.4997,1.4997,1.4997,1.5065,1.5181,1.5181,1.5364,1.5642,1.5642,1.5818,1.6083,1.6083,1.6083,1.6103,1.6239,1.6205,1.6178,1.6592,1.6829,1.6958,1.6978,1.6978,1.7039,1.7338,1.7419,1.7487,1.7792,1.7772,1.767,1.767,1.767,1.767,1.767,1.7772,1.786,1.786,1.786,1.786,1.786,1.786,1.786,1.786,1.786,1.786,1.786,1.786,1.786,1.786,1.786,1.786,1.786,1.786,1.786,1.786,1.786,1.786,1.786,1.786,1.786,1.786,1.8002,1.8002,1.786,1.8002,1.7989,1.7846,1.7846,1.7846,1.3763,1.3817,1.3899,1.3024,1.3105,1.3078,1.1837,1.1416,1.1199,1.086,0.0,0.0,0.0,0.0,0.0,0.0,1.0906,1.1625,1.3199,1.3796,1.4637,1.6185,1.5431,1.4758,1.4423,1.5051,1.4986,1.3944,1.4949,1.5194,1.4109,1.4238,1.4299,1.4299,1.4299,1.4299,1.4299,1.4441,1.4543,1.4611,1.4855,1.497,1.497,1.497,1.5018,1.5086,1.5004,1.5052,1.5181,1.5181,1.5364,1.5642,1.5642,1.5818,1.6083,1.6083,1.6083,1.609,1.6157,1.6246,1.6395,1.6768,1.6931,1.6978,1.6978,1.6978,1.7039,1.7338,1.7419,1.7487,1.7792,1.7812,1.7772,1.7772,1.7772,1.7772,1.7772,1.7826,1.786,1.786,1.786,1.786,1.786,1.786,1.786,1.786,1.786,1.786,1.786,1.786,1.786,1.786,1.786,1.786,1.786,1.786,1.786,1.786,1.786,1.786,1.786,1.786,1.786,1.786,1.8023,1.8023,1.786,1.8023,1.8023,1.786,1.786,1.786,1.434,1.4326,1.434,1.3505,1.3349,1.3139,1.2121,1.1762,1.1579,1.1389,1.1084,0.0,0.0,0.0,1.05,1.107,0.0,1.1541,1.3478,1.3979,1.4877,1.6721,1.6397,1.5702,1.5029,1.5793,1.565,1.3917,1.544,1.5628,1.3855,1.4034,1.4211,1.4299,1.4299,1.4299,1.4299,1.4401,1.4475,1.4516,1.478,1.4889,1.4848,1.4889,1.4964,1.5052,1.495,1.5011,1.5181,1.5181,1.5337,1.5574,1.5574,1.5757,1.6022,1.6069,1.6083,1.6083,1.6083,1.6273,1.6564,1.6829,1.6944,1.6978,1.6978,1.7005,1.7093,1.7351,1.7453,1.7541,1.7792,1.7826,1.7812,1.7812,1.7812,1.7812,1.7812,1.7826,1.786,1.786,1.786,1.786,1.786,1.786,1.786,1.786,1.786,1.786,1.786,1.786,1.786,1.786,1.786,1.786,1.786,1.786,1.786,1.786,1.786,1.786,1.786,1.7901,1.7935,1.7935,1.8111,1.8111,1.7935,1.8077,1.8057,1.786,1.786,1.786,1.552,1.5255,1.4909,1.3871,1.3505,1.3166,1.2264,1.2162,1.2176,1.187,1.1796,1.1701,1.1423,1.124,1.1009,1.0442,1.1176,0.0,0.0,1.5805,1.5673,1.5035,1.5674,1.64,1.6837,1.6516,1.5798,1.4748,1.4953,1.4663,1.3677,1.3777,1.3994,1.4292,1.4299,1.4299,1.4299,1.4306,1.4373,1.4516,1.4672,1.4672,1.4529,1.4679,1.4753,1.4753,1.4746,1.4916,1.5181,1.5181,1.5276,1.5418,1.5418,1.5601,1.5879,1.6029,1.6083,1.6083,1.6083,1.6273,1.6544,1.6707,1.6856,1.6978,1.6978,1.7073,1.7216,1.7378,1.7528,1.7684,1.7826,1.7758,1.765,1.765,1.765,1.765,1.765,1.7772,1.786,1.786,1.786,1.786,1.786,1.786,1.786,1.786,1.786,1.786,1.786,1.786,1.786,1.786,1.786,1.786,1.786,1.786,1.786,1.786,1.786,1.786,1.786,1.8002,1.8091,1.8091,1.8375,1.8375,1.8091,1.8233,1.8158,1.786,1.786,1.786,1.5811,1.5879,1.575,1.4407,1.4183,1.3946,1.2651,1.2549,1.2678,1.2467,1.2345,1.2216,1.202,1.1619,1.1324,1.1385,1.1534,1.2394,0.0,1.6266,1.7633,1.8354,1.8205,1.7558,1.6312,1.6903,1.625,1.361,1.4713,1.5401,1.5081,1.4292,1.4479,1.5949,1.4885,1.4299,1.4299,1.4299,1.4326,1.4373,1.4516,1.4563,1.4516,1.4563,1.4645,1.474,1.474,1.4855,1.5052,1.5147,1.5269,1.5411,1.5411,1.5594,1.5957,1.5913,1.5995,1.611,1.6307,1.6435,1.6564,1.6822,1.6937,1.6978,1.6978,1.7012,1.708,1.7229,1.7378,1.7534,1.7684,1.7758,1.7792,1.7792,1.7792,1.7792,1.7792,1.7826,1.786,1.786,1.786,1.786,1.786,1.786,1.786,1.786,1.786,1.786,1.786,1.786,1.786,1.786,1.786,1.786,1.786,1.7948,1.8023,1.8023,1.8023,1.8057,1.8158,1.8111,1.8145,1.8233,1.8423,1.8443,1.8247,1.8301,1.8267,1.8158,1.7948,1.786,1.6395,1.6422,1.6266,1.5201,1.4916,1.459,1.341,1.3417,1.36,1.3342,1.3166,1.3017,1.2868,1.2264,1.1784,1.1731,1.1851,1.2766,0.0,1.7236,1.9054,2.0239,1.97,1.8782,1.7734,1.8127,1.7351,1.4492,1.5307,1.5619,1.4996,1.4083,1.4259,1.5771,1.4828,1.4299,1.4299,1.4299,1.4299,1.4299,1.4441,1.4482,1.4434,1.4489,1.4563,1.4658,1.4719,1.4828,1.4984,1.5126,1.5242,1.5337,1.5391,1.556,1.5784,1.5832,1.5988,1.6198,1.6435,1.6558,1.6646,1.6897,1.6978,1.6978,1.6978,1.7019,1.7073,1.7168,1.7344,1.7521,1.7623,1.7758,1.786,1.786,1.786,1.786,1.786,1.786,1.786,1.786,1.786,1.786,1.786,1.786,1.786,1.786,1.786,1.786,1.786,1.786,1.786,1.786,1.786,1.786,1.786,1.8002,1.8077,1.8023,1.8111,1.8199,1.8233,1.8247,1.8423,1.8796,1.8674,1.8654,1.8708,1.8443,1.8287,1.8233,1.8036,1.7948]}]]